[[{"header":{"parameterUnit":"m.s-1","parameterCategory":1,"la1":31.0,"la2":29.5877,"lo1":-88.7671,"lo2":-86.6584,"dy":0.0162,"dx":0.0185,"nx":115,"ny":88,"refTime":"2023-11-03T06:00:00:Z","depth":0,"parameterNumber":2,"parameterNumberName":"U-component_of_WINDS"},"data":[0.0,0.0,0.0,0.0,0.0,0.0,0.0,0.0,0.0,0.0,0.0,0.0,0.0,0.0,0.0,0.0,0.0,0.0,0.0,0.0,0.0,0.0,0.0,0.0,0.0,0.0,0.0,0.0,0.0,0.0,0.0,0.0,0.0,0.0,0.0,0.0,0.0,0.0,0.0,0.0,0.0,0.0,0.0,0.0,0.0,0.0,0.0,0.0,0.0,0.0,0.0,0.0,0.0,0.0,0.0,0.0,0.0,0.0,0.0,0.0,0.0,0.0,0.0,0.0,0.0,0.0,0.0,0.0,0.0,0.0,0.0,0.0,0.0,0.0,0.0,0.0,0.0,0.0,0.0,0.0,0.0,0.0,0.0,0.0,0.0,0.0,0.0,0.0,0.0,0.0,0.0,0.0,0.0,0.0,0.0,0.0,0.0,0.0,0.0,0.0,0.0,0.0,0.0,0.0,0.0,0.0,0.0,0.0,0.0,0.0,0.0,0.0,0.0,0.0,0.0,0.0,0.0,0.0,0.0,0.0,0.0,0.0,0.0,0.0,0.0,0.0,0.0,0.0,0.0,0.0,0.0,0.0,0.0,0.0,0.0,0.0,0.0,0.0,0.0,0.0,0.0,0.0,0.0,0.0,0.0,0.0,0.0,0.0,0.0,0.0,0.0,0.0,0.0,0.0,0.0,0.0,0.0,0.0,0.0,0.0,0.0,0.0,0.0,0.0,0.0,0.0,0.0,0.0,0.0,0.0,0.0,0.0,0.0,0.0,0.0,0.0,0.0,0.0,0.0,0.0,0.0,0.0,0.0,0.0,0.0,0.0,0.0,0.0,0.0,0.0,0.0,0.0,0.0,0.0,0.0,0.0,0.0,0.0,0.0,0.0,0.0,0.0,0.0,0.0,0.0,0.0,0.0,0.0,0.0,0.0,0.0,0.0,0.0,0.0,0.0,0.0,0.0,0.0,0.0,0.0,0.0,0.0,0.0,0.0,0.0,0.0,0.0,0.0,0.0,0.0,0.0,0.0,0.0,0.0,0.0,0.0,0.0,0.0,0.0,0.0,0.0,0.0,0.0,0.0,0.0,0.0,0.0,0.0,0.0,0.0,0.0,0.0,0.0,0.0,0.0,0.0,0.0,0.0,0.0,0.0,0.0,0.0,0.0,0.0,0.0,0.0,0.0,0.0,0.0,0.0,0.0,0.0,0.0,0.0,0.0,0.0,0.0,0.0,0.0,0.0,0.0,0.0,0.0,0.0,0.0,0.0,0.0,0.0,0.0,0.0,0.0,0.0,0.0,0.0,0.0,0.0,0.0,0.0,0.0,0.0,0.0,0.0,0.0,0.0,0.0,0.0,0.0,0.0,0.0,0.0,0.0,0.0,0.0,0.0,0.0,0.0,0.0,0.0,0.0,0.0,0.0,0.0,0.0,0.0,0.0,0.0,0.0,0.0,0.0,0.0,0.0,0.0,0.0,0.0,0.0,0.0,0.0,0.0,0.0,0.0,0.0,0.0,0.0,0.0,0.0,0.0,0.0,0.0,0.0,0.0,0.0,0.0,0.0,0.0,0.0,0.0,0.0,0.0,0.0,0.0,0.0,0.0,0.0,0.0,0.0,0.0,0.0,0.0,0.0,0.0,0.0,0.0,0.0,0.0,0.0,0.0,0.0,0.0,0.0,0.0,0.0,0.0,0.0,0.0,0.0,0.0,0.0,0.0,0.0,0.0,0.0,0.0,0.0,0.0,0.0,0.0,0.0,0.0,0.0,0.0,0.0,0.0,0.0,0.0,0.0,0.0,0.0,0.0,0.0,0.0,0.0,0.0,0.0,0.0,0.0,0.0,0.0,0.0,0.0,0.0,0.0,0.0,0.0,0.0,0.0,0.0,0.0,0.0,0.0,0.0,0.0,0.0,0.0,0.0,0.0,0.0,0.0,0.0,0.0,0.0,0.0,0.0,0.0,0.0,0.0,0.0,0.0,0.0,0.0,0.0,0.0,0.0,0.0,0.0,0.0,0.0,0.0,0.0,0.0,0.0,0.0,0.0,0.0,0.0,0.0,0.0,0.0,0.0,0.0,0.0,0.0,0.0,0.0,0.0,0.0,0.0,0.0,0.0,0.0,0.0,0.0,0.0,0.0,0.0,0.0,0.0,0.0,0.0,0.0,0.0,0.0,0.0,0.0,0.0,0.0,0.0,0.0,0.0,0.0,0.0,0.0,0.0,0.0,0.0,0.0,0.0,0.0,0.0,0.0,0.0,0.0,0.0,0.0,0.0,0.0,0.0,0.0,0.0,0.0,0.0,0.0,0.0,0.0,0.0,0.0,0.0,0.0,0.0,0.0,0.0,0.0,0.0,0.0,0.0,0.0,0.0,0.0,0.0,0.0,0.0,0.0,0.0,0.0,0.0,0.0,0.0,0.0,0.0,0.0,0.0,0.0,0.0,0.0,0.0,0.0,0.0,0.0,0.0,0.0,0.0,0.0,0.0,0.0,0.0,0.0,0.0,0.0,0.0,0.0,0.0,0.0,0.0,0.0,0.0,0.0,0.0,0.0,0.0,0.0,0.0,0.0,0.0,0.0,0.0,0.0,0.0,0.0,0.0,0.0,0.0,0.0,0.0,0.0,0.0,0.0,0.0,0.0,0.0,0.0,0.0,0.0,0.0,0.0,0.0,0.0,0.0,0.0,0.0,0.0,0.0,0.0,0.0,0.0,0.0,0.0,0.0,0.0,0.0,0.0,0.0,0.0,0.0,0.0,0.0,0.0,0.0,0.0,0.0,0.0,0.0,0.0,0.0,0.0,0.0,0.0,0.0,0.0,0.0,0.0,0.0,0.0,0.0,0.0,0.0,0.0,0.0,0.0,0.0,0.0,0.0,0.0,0.0,0.0,0.0,0.0,0.0,0.0,0.0,0.0,0.0,0.0,0.0,0.0,0.0,0.0,0.0,0.0,0.0,0.0,0.0,0.0,0.0,0.0,0.0,0.0,0.0,0.0,0.0,0.0,0.0,0.0,0.0,0.0,0.0,0.0,0.0,0.0,0.0,0.0,0.0,0.0,0.0,0.0,0.0,0.0,0.0,0.0,0.0,0.0,0.0,0.0,0.0,0.0,0.0,0.0,0.0,0.0,0.0,0.0,0.0,0.0,0.0,0.0,0.0,0.0,0.0,0.0,0.0,0.0,0.0,0.0,0.0,0.0,0.0,0.0,0.0,0.0,0.0,0.0,0.0,0.0,0.0,0.0,0.0,0.0,0.0,0.0,0.0,0.0,0.0,0.0,0.0,0.0,0.0,0.0,0.0,0.0,0.0,0.0,0.0,0.0,0.0,0.0,0.0,0.0,0.0,0.0,0.0,0.0,0.0,0.0,0.0,0.0,0.0,0.0,0.0,0.0,0.0,0.0,0.0,0.0,0.0,0.0,0.0,0.0,0.0,0.0,0.0,0.0,0.0,0.0,0.0,0.0,0.0,0.0,0.0,0.0,0.0,0.0,0.0,0.0,0.0,0.0,0.0,0.0,0.0,0.0,0.0,0.0,0.0,0.0,0.0,0.0,0.0,0.0,0.0,0.0,0.0,0.0,0.0,0.0,0.0,0.0,0.0,0.0,0.0,0.0,0.0,0.0,0.0,0.0,0.0,0.0,0.0,0.0,0.0,0.0,0.0,0.0,0.0,0.0,0.0,0.0,0.0,0.0,0.0,0.0,0.0,0.0,0.0,0.0,0.0,0.0,0.0,0.0,0.0,0.0,0.0,0.0,0.0,0.0,0.0,0.0,0.0,0.0,0.0,0.0,0.0,0.0,0.0,0.0,0.0,0.0,0.0,0.0,0.0,0.0,0.0,0.0,0.0,0.0,0.0,0.0,0.0,0.0,0.0,0.0,0.0,0.0,0.0,0.0,0.0,0.0,0.0,0.0,0.0,0.0,0.0,0.0,0.0,0.0,0.0,0.0,0.0,0.0,0.0,0.0,0.0,0.0,0.0,0.0,0.0,0.0,0.0,0.0,0.0,0.0,0.0,0.0,0.0,0.0,0.0,0.0,0.0,0.0,0.0,0.0,0.0,0.0,0.0,0.0,0.0,0.0,0.0,0.0,0.0,0.0,0.0,0.0,0.0,0.0,0.0,0.0,0.0,0.0,0.0,0.0,0.0,0.0,0.0,0.0,0.0,0.0,0.0,0.0,0.0,0.0,0.0,0.0,0.0,0.0,0.0,0.0,0.0,0.0,0.0,0.0,0.0,0.0,0.0,0.0,0.0,0.0,0.0,0.0,0.0,-1.4676,0.0,0.0,0.0,0.0,0.0,0.0,0.0,0.0,0.0,0.0,0.0,0.0,0.0,0.0,0.0,0.0,0.0,0.0,0.0,0.0,0.0,0.0,0.0,0.0,0.0,0.0,0.0,0.0,0.0,0.0,0.0,0.0,0.0,0.0,0.0,0.0,0.0,0.0,0.0,0.0,0.0,0.0,0.0,0.0,0.0,0.0,0.0,0.0,0.0,0.0,0.0,0.0,0.0,0.0,0.0,0.0,0.0,0.0,0.0,0.0,0.0,0.0,0.0,0.0,0.0,0.0,0.0,0.0,0.0,0.0,0.0,0.0,0.0,0.0,0.0,0.0,0.0,0.0,0.0,0.0,0.0,0.0,0.0,0.0,0.0,0.0,0.0,0.0,0.0,0.0,0.0,0.0,0.0,0.0,0.0,0.0,0.0,0.0,0.0,0.0,0.0,0.0,0.0,0.0,0.0,0.0,0.0,0.0,0.0,0.0,-1.5163,-1.521,-1.5255,-1.492,-1.4213,0.0,0.0,0.0,0.0,0.0,0.0,0.0,0.0,0.0,0.0,0.0,0.0,0.0,0.0,0.0,0.0,0.0,0.0,0.0,0.0,0.0,0.0,0.0,0.0,0.0,0.0,0.0,0.0,0.0,0.0,0.0,0.0,0.0,0.0,0.0,0.0,0.0,0.0,0.0,0.0,0.0,0.0,0.0,0.0,0.0,0.0,0.0,0.0,0.0,0.0,0.0,0.0,0.0,0.0,0.0,0.0,0.0,0.0,0.0,0.0,0.0,0.0,0.0,0.0,0.0,0.0,0.0,0.0,0.0,0.0,0.0,0.0,0.0,0.0,0.0,0.0,0.0,0.0,0.0,0.0,0.0,0.0,0.0,0.0,0.0,0.0,0.0,0.0,0.0,0.0,0.0,0.0,0.0,0.0,0.0,0.0,0.0,0.0,0.0,0.0,0.0,0.0,0.0,0.0,0.0,0.0,0.0,0.0,0.0,0.0,0.0,0.0,-1.4981,-1.4632,-1.397,0.0,0.0,0.0,0.0,0.0,0.0,0.0,0.0,0.0,0.0,0.0,0.0,0.0,0.0,0.0,0.0,0.0,0.0,0.0,0.0,0.0,0.0,0.0,0.0,0.0,0.0,0.0,0.0,0.0,0.0,0.0,0.0,0.0,0.0,0.0,0.0,0.0,0.0,0.0,0.0,0.0,0.0,0.0,0.0,0.0,0.0,0.0,0.0,0.0,0.0,0.0,0.0,0.0,0.0,0.0,0.0,0.0,0.0,0.0,0.0,0.0,0.0,0.0,0.0,0.0,0.0,0.0,0.0,0.0,0.0,0.0,0.0,0.0,0.0,0.0,0.0,0.0,0.0,0.0,0.0,0.0,0.0,0.0,0.0,0.0,0.0,0.0,0.0,0.0,0.0,0.0,0.0,0.0,0.0,0.0,0.0,0.0,0.0,0.0,0.0,0.0,0.0,0.0,0.0,0.0,0.0,0.0,0.0,0.0,0.0,-1.4839,-1.4903,-1.4856,0.0,-1.4349,0.0,0.0,0.0,0.0,0.0,0.0,0.0,0.0,0.0,0.0,0.0,0.0,0.0,0.0,0.0,0.0,0.0,0.0,0.0,0.0,0.0,0.0,0.0,0.0,0.0,0.0,0.0,0.0,0.0,0.0,0.0,0.0,0.0,0.0,0.0,0.0,0.0,0.0,0.0,0.0,0.0,0.0,0.0,0.0,0.0,0.0,0.0,0.0,0.0,0.0,0.0,0.0,0.0,0.0,0.0,0.0,0.0,0.0,0.0,0.0,0.0,0.0,0.0,0.0,0.0,0.0,0.0,0.0,0.0,0.0,0.0,0.0,0.0,0.0,0.0,0.0,0.0,0.0,0.0,0.0,0.0,0.0,0.0,0.0,0.0,0.0,0.0,0.0,0.0,0.0,0.0,0.0,0.0,0.0,0.0,0.0,0.0,0.0,0.0,0.0,0.0,0.0,0.0,0.0,0.0,0.0,0.0,0.0,0.0,0.0,-1.4763,-1.4839,-1.4702,-1.4562,0.0,0.0,0.0,0.0,0.0,0.0,0.0,0.0,0.0,0.0,0.0,0.0,0.0,0.0,0.0,0.0,0.0,0.0,0.0,0.0,0.0,0.0,0.0,0.0,0.0,0.0,0.0,0.0,0.0,0.0,0.0,0.0,0.0,0.0,0.0,0.0,0.0,0.0,0.0,0.0,0.0,0.0,0.0,0.0,0.0,0.0,0.0,0.0,0.0,0.0,0.0,0.0,0.0,0.0,0.0,0.0,0.0,0.0,0.0,0.0,0.0,0.0,0.0,0.0,0.0,0.0,0.0,0.0,0.0,0.0,0.0,0.0,0.0,0.0,0.0,0.0,0.0,0.0,0.0,0.0,0.0,0.0,0.0,0.0,0.0,0.0,0.0,0.0,0.0,0.0,0.0,0.0,0.0,0.0,0.0,0.0,0.0,0.0,0.0,0.0,0.0,0.0,0.0,0.0,0.0,0.0,0.0,0.0,0.0,0.0,-1.4624,-1.4716,-1.4761,-1.4639,-1.4462,-1.422,0.0,0.0,0.0,0.0,0.0,0.0,0.0,0.0,0.0,0.0,0.0,0.0,0.0,0.0,0.0,0.0,0.0,0.0,0.0,0.0,0.0,0.0,0.0,0.0,0.0,0.0,0.0,0.0,0.0,0.0,0.0,0.0,0.0,0.0,0.0,0.0,0.0,0.0,0.0,0.0,0.0,0.0,0.0,0.0,0.0,0.0,0.0,0.0,0.0,0.0,0.0,0.0,0.0,0.0,0.0,0.0,0.0,0.0,0.0,0.0,0.0,0.0,0.0,0.0,0.0,0.0,0.0,0.0,0.0,0.0,0.0,0.0,0.0,0.0,0.0,0.0,0.0,0.0,0.0,0.0,0.0,0.0,0.0,0.0,0.0,0.0,0.0,0.0,0.0,0.0,0.0,0.0,0.0,0.0,0.0,0.0,0.0,0.0,0.0,0.0,0.0,0.0,0.0,0.0,0.0,0.0,0.0,0.0,-1.4501,-1.4624,-1.4714,-1.4714,-1.4714,-1.4342,0.0,0.0,0.0,0.0,0.0,0.0,0.0,0.0,0.0,0.0,0.0,0.0,0.0,0.0,0.0,0.0,0.0,0.0,0.0,0.0,0.0,0.0,0.0,0.0,0.0,0.0,0.0,0.0,0.0,0.0,0.0,0.0,0.0,0.0,0.0,0.0,0.0,0.0,0.0,0.0,0.0,0.0,0.0,0.0,0.0,0.0,0.0,0.0,0.0,0.0,0.0,0.0,0.0,0.0,0.0,0.0,0.0,0.0,0.0,0.0,0.0,0.0,0.0,0.0,0.0,0.0,0.0,0.0,0.0,0.0,0.0,0.0,0.0,0.0,0.0,0.0,0.0,0.0,0.0,0.0,0.0,0.0,0.0,0.0,0.0,0.0,0.0,0.0,0.0,0.0,0.0,0.0,0.0,0.0,0.0,0.0,0.0,0.0,0.0,0.0,0.0,0.0,0.0,0.0,0.0,0.0,0.0,0.0,0.0,-1.47,-1.4827,-1.4875,-1.4875,-1.4825,-1.4452,0.0,0.0,0.0,0.0,0.0,0.0,0.0,0.0,0.0,0.0,0.0,0.0,0.0,0.0,0.0,0.0,0.0,0.0,0.0,0.0,0.0,0.0,0.0,0.0,0.0,0.0,0.0,0.0,0.0,0.0,0.0,0.0,0.0,0.0,0.0,0.0,0.0,0.0,0.0,0.0,0.0,0.0,0.0,0.0,0.0,0.0,0.0,0.0,0.0,0.0,0.0,0.0,0.0,0.0,0.0,0.0,0.0,0.0,0.0,0.0,0.0,0.0,0.0,0.0,0.0,0.0,0.0,0.0,0.0,0.0,0.0,0.0,0.0,0.0,0.0,0.0,0.0,0.0,0.0,0.0,0.0,0.0,0.0,0.0,0.0,0.0,0.0,0.0,0.0,0.0,0.0,0.0,0.0,0.0,0.0,0.0,0.0,0.0,0.0,0.0,0.0,0.0,0.0,0.0,0.0,0.0,0.0,0.0,0.0,-1.5279,0.0,-1.57,-1.5482,-1.5374,-1.4895,0.0,0.0,0.0,0.0,0.0,0.0,0.0,0.0,0.0,0.0,0.0,0.0,0.0,0.0,0.0,0.0,0.0,0.0,0.0,0.0,0.0,0.0,0.0,0.0,0.0,0.0,0.0,0.0,0.0,0.0,0.0,0.0,0.0,0.0,0.0,0.0,0.0,0.0,0.0,0.0,0.0,0.0,0.0,0.0,0.0,0.0,0.0,0.0,0.0,0.0,0.0,0.0,0.0,0.0,0.0,0.0,0.0,0.0,0.0,0.0,0.0,0.0,0.0,0.0,0.0,0.0,0.0,0.0,0.0,0.0,0.0,0.0,0.0,0.0,0.0,0.0,0.0,0.0,0.0,0.0,0.0,0.0,0.0,0.0,0.0,0.0,0.0,0.0,0.0,0.0,0.0,0.0,0.0,0.0,0.0,0.0,0.0,0.0,0.0,0.0,0.0,0.0,0.0,0.0,0.0,0.0,0.0,0.0,-1.5367,-1.6292,-1.7069,-1.715,-1.6541,-1.6435,-1.5694,0.0,0.0,0.0,0.0,0.0,0.0,0.0,0.0,0.0,0.0,0.0,0.0,0.0,0.0,0.0,0.0,0.0,0.0,0.0,0.0,0.0,0.0,0.0,0.0,0.0,0.0,0.0,0.0,0.0,0.0,0.0,0.0,0.0,0.0,0.0,0.0,0.0,0.0,0.0,0.0,0.0,0.0,0.0,0.0,0.0,0.0,0.0,0.0,0.0,0.0,0.0,0.0,0.0,0.0,0.0,0.0,0.0,0.0,0.0,0.0,0.0,0.0,0.0,0.0,0.0,0.0,0.0,0.0,0.0,0.0,0.0,0.0,0.0,0.0,0.0,0.0,0.0,0.0,0.0,0.0,0.0,0.0,0.0,0.0,0.0,0.0,0.0,0.0,0.0,0.0,0.0,0.0,0.0,0.0,0.0,0.0,0.0,0.0,0.0,0.0,0.0,0.0,0.0,0.0,0.0,0.0,0.0,0.0,0.0,-1.7653,-1.7992,-1.8146,-1.8004,-1.7257,-1.6411,0.0,0.0,0.0,0.0,0.0,0.0,0.0,0.0,0.0,0.0,0.0,0.0,0.0,0.0,0.0,0.0,0.0,0.0,0.0,0.0,0.0,0.0,0.0,0.0,0.0,0.0,0.0,0.0,0.0,0.0,0.0,0.0,0.0,0.0,0.0,0.0,0.0,0.0,0.0,0.0,0.0,0.0,0.0,0.0,0.0,0.0,0.0,0.0,0.0,0.0,0.0,0.0,0.0,0.0,0.0,0.0,0.0,0.0,0.0,0.0,0.0,0.0,0.0,0.0,0.0,0.0,0.0,0.0,0.0,0.0,0.0,0.0,0.0,0.0,0.0,0.0,0.0,0.0,0.0,0.0,0.0,0.0,0.0,0.0,0.0,0.0,0.0,0.0,0.0,0.0,0.0,0.0,0.0,0.0,0.0,0.0,0.0,0.0,0.0,0.0,0.0,0.0,0.0,0.0,0.0,0.0,0.0,0.0,0.0,-2.0645,-2.0961,-2.0921,-2.0502,-1.9709,-1.8448,-1.6657,0.0,0.0,0.0,0.0,0.0,0.0,0.0,0.0,0.0,0.0,0.0,0.0,0.0,0.0,0.0,0.0,0.0,0.0,0.0,0.0,0.0,0.0,0.0,0.0,0.0,0.0,0.0,0.0,0.0,0.0,0.0,0.0,0.0,0.0,0.0,0.0,0.0,0.0,0.0,0.0,0.0,0.0,0.0,0.0,0.0,0.0,0.0,0.0,0.0,0.0,0.0,0.0,0.0,0.0,0.0,0.0,0.0,0.0,0.0,0.0,0.0,0.0,0.0,0.0,0.0,0.0,0.0,0.0,0.0,0.0,0.0,0.0,0.0,0.0,0.0,0.0,0.0,0.0,0.0,0.0,0.0,0.0,0.0,0.0,0.0,0.0,0.0,0.0,0.0,0.0,0.0,0.0,0.0,0.0,0.0,0.0,0.0,0.0,0.0,0.0,0.0,0.0,0.0,0.0,0.0,0.0,0.0,0.0,-2.4942,-2.5633,-2.522,-2.3719,-2.317,-2.1373,0.0,0.0,0.0,0.0,0.0,0.0,0.0,0.0,0.0,0.0,0.0,0.0,0.0,0.0,0.0,0.0,0.0,0.0,0.0,0.0,0.0,0.0,0.0,0.0,0.0,0.0,0.0,0.0,0.0,0.0,0.0,0.0,0.0,0.0,0.0,0.0,0.0,0.0,0.0,0.0,0.0,0.0,0.0,0.0,0.0,0.0,0.0,0.0,0.0,0.0,0.0,0.0,0.0,0.0,0.0,0.0,0.0,0.0,0.0,0.0,0.0,0.0,0.0,0.0,0.0,0.0,0.0,0.0,0.0,0.0,0.0,0.0,0.0,0.0,0.0,0.0,0.0,0.0,0.0,0.0,0.0,0.0,0.0,0.0,0.0,0.0,0.0,0.0,0.0,0.0,0.0,0.0,0.0,0.0,0.0,0.0,0.0,0.0,0.0,0.0,0.0,0.0,0.0,0.0,0.0,0.0,0.0,0.0,0.0,-2.8112,-2.9859,-2.9246,-2.6096,-2.3863,-2.2405,0.0,0.0,0.0,0.0,0.0,0.0,0.0,0.0,0.0,0.0,0.0,0.0,0.0,0.0,0.0,0.0,0.0,0.0,0.0,0.0,0.0,0.0,0.0,0.0,0.0,0.0,0.0,0.0,0.0,0.0,0.0,0.0,0.0,0.0,0.0,0.0,0.0,0.0,0.0,0.0,0.0,0.0,0.0,0.0,0.0,0.0,0.0,0.0,0.0,0.0,0.0,0.0,0.0,0.0,0.0,0.0,0.0,0.0,0.0,0.0,0.0,0.0,0.0,0.0,0.0,0.0,0.0,0.0,0.0,0.0,0.0,0.0,0.0,0.0,0.0,0.0,0.0,0.0,0.0,0.0,0.0,0.0,0.0,0.0,0.0,0.0,0.0,0.0,0.0,0.0,0.0,0.0,0.0,0.0,0.0,0.0,0.0,0.0,0.0,0.0,0.0,0.0,0.0,0.0,0.0,0.0,0.0,0.0,-2.8026,-2.9958,-3.1792,-3.1697,-2.9503,-2.69,-2.483,0.0,0.0,0.0,0.0,0.0,0.0,0.0,0.0,0.0,0.0,0.0,0.0,0.0,0.0,0.0,0.0,0.0,0.0,0.0,0.0,0.0,0.0,0.0,0.0,0.0,0.0,0.0,0.0,0.0,0.0,0.0,0.0,0.0,0.0,0.0,0.0,0.0,0.0,0.0,0.0,0.0,0.0,0.0,0.0,0.0,0.0,0.0,0.0,0.0,0.0,0.0,0.0,0.0,0.0,0.0,0.0,0.0,0.0,0.0,0.0,0.0,0.0,0.0,0.0,0.0,0.0,0.0,0.0,0.0,0.0,0.0,0.0,0.0,0.0,0.0,0.0,0.0,0.0,0.0,0.0,0.0,0.0,0.0,0.0,0.0,0.0,0.0,0.0,0.0,0.0,0.0,0.0,0.0,0.0,0.0,0.0,0.0,0.0,0.0,0.0,0.0,0.0,0.0,0.0,0.0,0.0,0.0,0.0,-2.9612,-3.0975,-3.2373,-3.3131,-3.3052,-3.0719,-2.7745,0.0,0.0,0.0,0.0,0.0,0.0,0.0,0.0,0.0,0.0,0.0,0.0,0.0,0.0,0.0,0.0,0.0,0.0,0.0,0.0,0.0,0.0,0.0,0.0,0.0,0.0,0.0,0.0,0.0,0.0,0.0,0.0,0.0,0.0,0.0,0.0,0.0,0.0,0.0,0.0,0.0,0.0,0.0,0.0,0.0,0.0,0.0,0.0,0.0,0.0,0.0,0.0,0.0,0.0,0.0,0.0,0.0,0.0,0.0,0.0,0.0,0.0,0.0,0.0,0.0,0.0,0.0,0.0,0.0,0.0,0.0,0.0,0.0,0.0,0.0,0.0,0.0,0.0,0.0,0.0,0.0,0.0,0.0,0.0,0.0,0.0,0.0,0.0,0.0,0.0,0.0,0.0,0.0,0.0,0.0,0.0,0.0,0.0,0.0,0.0,0.0,0.0,0.0,0.0,0.0,0.0,0.0,0.0,-3.0088,-3.2169,-3.3346,-3.3956,-3.3918,-3.0545,-2.8138,0.0,0.0,0.0,0.0,0.0,0.0,0.0,0.0,0.0,0.0,0.0,0.0,0.0,0.0,0.0,0.0,0.0,0.0,0.0,0.0,0.0,0.0,0.0,0.0,0.0,0.0,0.0,0.0,0.0,0.0,0.0,0.0,0.0,0.0,0.0,0.0,0.0,0.0,0.0,0.0,0.0,0.0,0.0,0.0,0.0,0.0,0.0,0.0,-1.672,0.0,0.0,0.0,0.0,0.0,0.0,0.0,0.0,0.0,0.0,0.0,0.0,0.0,0.0,0.0,0.0,0.0,0.0,0.0,0.0,0.0,0.0,0.0,0.0,0.0,0.0,0.0,0.0,0.0,0.0,0.0,0.0,0.0,0.0,0.0,0.0,0.0,0.0,0.0,0.0,0.0,0.0,0.0,0.0,0.0,0.0,0.0,0.0,0.0,0.0,0.0,0.0,0.0,0.0,0.0,0.0,0.0,0.0,0.0,-3.0893,-3.3119,-3.3846,-3.4216,-3.4111,-3.1752,-2.9789,0.0,0.0,0.0,0.0,0.0,0.0,0.0,0.0,0.0,0.0,0.0,0.0,0.0,0.0,0.0,0.0,0.0,0.0,0.0,0.0,0.0,0.0,0.0,0.0,0.0,0.0,0.0,0.0,0.0,0.0,0.0,0.0,0.0,0.0,0.0,0.0,0.0,0.0,0.0,0.0,0.0,0.0,0.0,0.0,0.0,0.0,0.0,0.0,0.0,0.0,0.0,0.0,0.0,0.0,0.0,0.0,0.0,0.0,0.0,0.0,0.0,0.0,0.0,0.0,0.0,0.0,0.0,0.0,0.0,0.0,0.0,0.0,0.0,0.0,0.0,0.0,0.0,0.0,0.0,0.0,0.0,0.0,0.0,0.0,0.0,0.0,0.0,0.0,0.0,0.0,0.0,0.0,0.0,0.0,0.0,0.0,0.0,0.0,0.0,0.0,0.0,0.0,0.0,0.0,0.0,0.0,0.0,-2.9556,-3.1828,-3.3828,-3.4111,-3.4216,-3.4179,-3.3271,-3.1677,-2.9348,0.0,0.0,0.0,0.0,0.0,0.0,0.0,0.0,0.0,0.0,0.0,0.0,0.0,0.0,0.0,0.0,0.0,0.0,0.0,0.0,0.0,0.0,0.0,0.0,0.0,0.0,0.0,0.0,0.0,0.0,0.0,0.0,0.0,0.0,0.0,0.0,0.0,0.0,-1.1673,-1.5384,0.0,0.0,0.0,0.0,0.0,0.0,0.0,0.0,-2.095,0.0,0.0,0.0,0.0,0.0,0.0,0.0,0.0,0.0,0.0,0.0,0.0,0.0,0.0,0.0,0.0,0.0,0.0,0.0,0.0,0.0,0.0,0.0,0.0,0.0,0.0,0.0,0.0,0.0,0.0,0.0,0.0,0.0,0.0,0.0,0.0,0.0,0.0,0.0,0.0,0.0,0.0,0.0,0.0,0.0,0.0,0.0,0.0,0.0,0.0,0.0,0.0,0.0,0.0,0.0,0.0,-2.8288,-3.0596,-3.2548,-3.4099,-3.4185,-3.4216,-3.4197,-3.3817,-3.2538,-3.0165,0.0,0.0,0.0,0.0,0.0,0.0,0.0,0.0,0.0,0.0,0.0,0.0,0.0,0.0,0.0,0.0,0.0,0.0,0.0,0.0,0.0,0.0,0.0,0.0,0.0,0.0,0.0,0.0,0.0,0.0,0.0,0.0,0.0,0.0,0.0,0.0,0.0,0.0,0.0,-1.717,-1.9291,0.0,0.0,0.0,0.0,0.0,0.0,0.0,0.0,-2.1624,0.0,0.0,0.0,0.0,0.0,0.0,0.0,0.0,0.0,0.0,0.0,0.0,0.0,0.0,0.0,0.0,0.0,0.0,0.0,0.0,0.0,0.0,0.0,0.0,0.0,0.0,0.0,0.0,0.0,0.0,0.0,0.0,0.0,0.0,0.0,0.0,0.0,0.0,0.0,0.0,0.0,0.0,0.0,0.0,0.0,0.0,0.0,0.0,0.0,0.0,0.0,0.0,0.0,0.0,0.0,-2.8753,-3.1526,-3.3563,-3.4798,-3.4878,-3.4878,-3.4847,-3.4186,-3.2711,0.0,0.0,0.0,0.0,0.0,0.0,0.0,0.0,0.0,0.0,0.0,0.0,0.0,0.0,0.0,0.0,0.0,0.0,0.0,0.0,0.0,0.0,0.0,0.0,0.0,0.0,0.0,0.0,0.0,0.0,0.0,0.0,0.0,0.0,0.0,0.0,0.0,0.0,0.0,0.0,-1.9074,-2.1058,-2.2938,0.0,0.0,0.0,0.0,0.0,0.0,-2.4263,-2.3072,0.0,0.0,0.0,0.0,0.0,0.0,0.0,0.0,0.0,0.0,0.0,0.0,0.0,0.0,0.0,0.0,0.0,0.0,0.0,0.0,0.0,0.0,0.0,0.0,0.0,0.0,0.0,0.0,0.0,0.0,0.0,0.0,0.0,0.0,0.0,0.0,0.0,0.0,0.0,0.0,0.0,0.0,0.0,0.0,0.0,0.0,0.0,0.0,0.0,0.0,0.0,0.0,0.0,0.0,0.0,-2.9493,-3.2702,-3.4779,-3.5702,-3.5751,-3.5751,-3.572,-3.4594,-3.2859,0.0,0.0,0.0,0.0,0.0,0.0,0.0,0.0,0.0,0.0,0.0,0.0,0.0,0.0,0.0,0.0,0.0,0.0,0.0,0.0,0.0,0.0,0.0,0.0,0.0,0.0,0.0,0.0,0.0,0.0,0.0,0.0,0.0,0.0,0.0,0.0,0.0,0.0,0.0,0.0,0.0,-2.2605,-2.4518,-2.4664,0.0,0.0,0.0,0.0,-2.6021,-2.5412,0.0,0.0,0.0,0.0,0.0,0.0,0.0,0.0,0.0,0.0,0.0,0.0,0.0,0.0,0.0,0.0,0.0,0.0,0.0,0.0,0.0,0.0,0.0,0.0,0.0,0.0,0.0,0.0,0.0,0.0,0.0,0.0,0.0,0.0,0.0,0.0,0.0,0.0,0.0,0.0,0.0,0.0,0.0,0.0,0.0,0.0,0.0,0.0,0.0,0.0,0.0,0.0,0.0,0.0,0.0,0.0,-3.1306,-3.4469,-3.6246,-3.6525,-3.6569,-3.6556,-3.6538,-3.5172,-3.3433,0.0,0.0,0.0,0.0,0.0,0.0,0.0,0.0,0.0,0.0,0.0,0.0,0.0,0.0,0.0,0.0,0.0,0.0,0.0,0.0,0.0,0.0,0.0,0.0,0.0,0.0,0.0,0.0,0.0,0.0,0.0,0.0,0.0,0.0,0.0,0.0,0.0,0.0,0.0,0.0,0.0,-2.3125,-2.5471,-2.5865,-2.5883,0.0,0.0,-2.6404,-2.659,-2.6404,0.0,0.0,0.0,0.0,0.0,0.0,0.0,0.0,0.0,0.0,0.0,0.0,0.0,0.0,0.0,0.0,0.0,0.0,0.0,0.0,0.0,0.0,0.0,0.0,0.0,0.0,0.0,0.0,0.0,0.0,0.0,0.0,0.0,0.0,0.0,0.0,0.0,0.0,0.0,0.0,0.0,0.0,0.0,0.0,0.0,0.0,0.0,0.0,0.0,0.0,0.0,0.0,0.0,0.0,0.0,-2.954,-3.2391,-3.561,-3.7293,-3.7392,-3.7373,-3.7373,-3.7392,-3.5589,-3.3596,0.0,0.0,0.0,0.0,0.0,0.0,0.0,0.0,0.0,0.0,0.0,0.0,0.0,0.0,0.0,0.0,0.0,0.0,0.0,0.0,0.0,0.0,0.0,0.0,0.0,0.0,0.0,0.0,0.0,0.0,0.0,0.0,0.0,0.0,0.0,0.0,0.0,0.0,0.0,0.0,0.0,0.0,-2.5675,-2.67,0.0,0.0,0.0,-2.7437,-2.7454,0.0,0.0,0.0,0.0,0.0,0.0,0.0,0.0,0.0,0.0,0.0,0.0,0.0,0.0,0.0,0.0,0.0,0.0,0.0,0.0,0.0,0.0,0.0,0.0,0.0,0.0,0.0,0.0,0.0,0.0,0.0,0.0,0.0,0.0,0.0,0.0,0.0,0.0,0.0,0.0,0.0,0.0,0.0,0.0,0.0,0.0,0.0,0.0,0.0,0.0,0.0,0.0,0.0,0.0,0.0,0.0,0.0,-3.3309,-3.6546,-3.8191,-3.8191,-3.8209,-3.8209,-3.8172,-3.6368,0.0,0.0,0.0,0.0,0.0,0.0,0.0,0.0,0.0,0.0,0.0,0.0,0.0,0.0,0.0,0.0,0.0,0.0,0.0,0.0,0.0,0.0,0.0,0.0,0.0,0.0,0.0,-1.2512,0.0,0.0,0.0,0.0,0.0,0.0,0.0,0.0,0.0,0.0,0.0,0.0,0.0,0.0,-2.4092,-2.6272,-2.7635,-2.8408,0.0,0.0,-2.8408,-2.8339,-2.7828,-2.6892,0.0,0.0,0.0,0.0,0.0,0.0,0.0,0.0,0.0,0.0,0.0,0.0,0.0,0.0,0.0,0.0,0.0,0.0,0.0,0.0,0.0,0.0,0.0,0.0,0.0,0.0,0.0,0.0,0.0,0.0,0.0,0.0,0.0,0.0,0.0,0.0,0.0,0.0,0.0,0.0,0.0,0.0,0.0,0.0,0.0,0.0,0.0,0.0,0.0,0.0,0.0,0.0,0.0,0.0,-3.1733,-3.423,-3.7389,-3.9008,-3.9008,-3.9008,-3.9027,-3.9008,-3.7837,-3.6158,0.0,0.0,0.0,0.0,0.0,0.0,0.0,0.0,0.0,0.0,0.0,0.0,0.0,0.0,0.0,0.0,0.0,0.0,0.0,0.0,0.0,0.0,0.0,0.0,0.0,0.0,0.0,0.0,0.0,0.0,0.0,0.0,0.0,0.0,0.0,0.0,0.0,0.0,0.0,0.0,0.0,-2.571,-2.7855,-2.8807,-2.9317,0.0,-2.93,-2.9317,-2.93,-2.9317,-2.8952,-2.7924,0.0,0.0,0.0,0.0,0.0,0.0,0.0,0.0,0.0,0.0,0.0,0.0,0.0,0.0,0.0,0.0,0.0,0.0,0.0,0.0,0.0,0.0,0.0,0.0,0.0,0.0,0.0,0.0,0.0,0.0,0.0,0.0,0.0,0.0,0.0,0.0,0.0,0.0,0.0,0.0,0.0,0.0,0.0,0.0,0.0,0.0,0.0,0.0,0.0,0.0,0.0,0.0,0.0,-3.2272,-3.5087,-3.7753,-3.9101,-3.9101,-3.9101,-3.9101,-3.9101,-3.8061,-3.675,0.0,0.0,0.0,0.0,0.0,0.0,0.0,0.0,0.0,0.0,0.0,0.0,0.0,0.0,0.0,0.0,0.0,0.0,0.0,0.0,0.0,0.0,0.0,0.0,0.0,0.0,0.0,0.0,-2.2086,-2.3267,-2.314,0.0,0.0,0.0,0.0,0.0,0.0,0.0,0.0,0.0,0.0,-2.6714,-2.8481,-2.9567,0.0,0.0,-3.0195,-3.0332,-3.0708,-3.0399,-2.982,-2.8946,-2.7745,0.0,0.0,0.0,0.0,0.0,0.0,0.0,0.0,0.0,0.0,0.0,0.0,0.0,0.0,0.0,0.0,0.0,0.0,0.0,0.0,0.0,0.0,0.0,0.0,0.0,0.0,0.0,0.0,0.0,0.0,0.0,0.0,0.0,0.0,0.0,0.0,0.0,0.0,0.0,0.0,0.0,0.0,0.0,0.0,0.0,0.0,0.0,0.0,0.0,0.0,0.0,0.0,-3.351,-3.6278,-3.8656,-3.9844,-3.9844,-3.9602,-3.9491,-3.9454,-3.8553,-3.7478,0.0,0.0,0.0,0.0,0.0,0.0,0.0,0.0,0.0,0.0,0.0,0.0,0.0,0.0,0.0,0.0,0.0,0.0,0.0,0.0,0.0,0.0,0.0,0.0,0.0,0.0,0.0,0.0,-2.4414,-2.5052,-2.4018,0.0,0.0,0.0,0.0,0.0,0.0,0.0,0.0,0.0,0.0,-2.8215,-2.9788,-3.0789,-3.1438,-3.1662,-3.1695,-3.1795,-3.2217,-3.1819,-3.1249,-3.0562,0.0,0.0,0.0,0.0,0.0,0.0,0.0,0.0,0.0,0.0,0.0,0.0,0.0,0.0,0.0,0.0,0.0,0.0,0.0,0.0,0.0,0.0,0.0,0.0,0.0,0.0,0.0,0.0,0.0,0.0,-1.7992,0.0,0.0,0.0,0.0,0.0,0.0,0.0,0.0,0.0,0.0,0.0,0.0,0.0,0.0,0.0,0.0,0.0,0.0,0.0,0.0,0.0,0.0,-3.5703,-3.7924,-4.0256,-4.1497,-4.1497,-4.0787,-4.0364,-4.0346,-3.9528,-3.8506,-3.7256,0.0,0.0,0.0,0.0,0.0,0.0,0.0,0.0,0.0,0.0,0.0,0.0,0.0,0.0,0.0,0.0,0.0,0.0,0.0,0.0,0.0,0.0,0.0,0.0,0.0,0.0,-2.3784,-2.5362,-2.5663,0.0,0.0,0.0,0.0,0.0,0.0,0.0,0.0,0.0,0.0,-2.8689,-3.0347,-3.2057,-3.2625,-3.3093,-3.3854,-3.3859,-3.3797,-3.3814,-3.3696,-3.3533,0.0,0.0,0.0,0.0,0.0,0.0,0.0,0.0,0.0,0.0,0.0,0.0,0.0,0.0,0.0,0.0,0.0,0.0,0.0,0.0,0.0,0.0,0.0,0.0,0.0,0.0,0.0,-2.1866,-2.4413,0.0,0.0,0.0,0.0,0.0,0.0,0.0,0.0,0.0,0.0,0.0,-3.3775,-3.367,0.0,0.0,0.0,0.0,0.0,0.0,0.0,0.0,0.0,0.0,0.0,0.0,-3.6554,-3.8218,-4.0449,-4.1605,-4.1605,-4.133,-4.12,-4.1181,-4.0383,-3.9131,-3.7363,0.0,0.0,0.0,0.0,0.0,0.0,0.0,0.0,0.0,0.0,0.0,0.0,0.0,0.0,0.0,0.0,0.0,0.0,0.0,0.0,0.0,0.0,0.0,0.0,0.0,-2.4458,0.0,0.0,0.0,0.0,0.0,0.0,0.0,0.0,0.0,0.0,0.0,-2.8275,-2.9525,-3.1035,-3.2429,-3.3396,-3.3621,-3.38,0.0,0.0,0.0,0.0,0.0,0.0,0.0,0.0,0.0,0.0,0.0,0.0,0.0,0.0,-2.6766,-2.3967,-2.3712,-2.3851,-2.3689,0.0,0.0,0.0,0.0,0.0,0.0,0.0,0.0,0.0,0.0,0.0,0.0,0.0,0.0,-2.7719,0.0,-3.0658,0.0,0.0,0.0,0.0,0.0,0.0,0.0,0.0,-3.6805,-3.7857,-3.7942,-3.7855,-3.7751,0.0,-3.6933,-3.5029,0.0,0.0,0.0,0.0,0.0,0.0,0.0,0.0,-3.829,-3.9606,-4.1477,-4.2426,-4.2426,-4.2166,-4.2017,-4.1999,-4.1252,-4.017,-3.8825,-3.7799,-3.5879,0.0,0.0,0.0,0.0,0.0,0.0,0.0,0.0,0.0,0.0,0.0,0.0,0.0,0.0,0.0,0.0,0.0,0.0,0.0,0.0,0.0,0.0,0.0,-2.7381,0.0,0.0,0.0,0.0,0.0,0.0,0.0,0.0,0.0,-2.6388,-2.853,-3.0593,-3.1682,-3.2812,-3.3847,-3.4743,0.0,0.0,0.0,0.0,0.0,0.0,0.0,-3.5516,-3.5428,-3.4739,-3.3896,-3.2972,-3.2368,-3.1994,-3.1987,0.0,0.0,-2.7859,-2.7482,-2.7618,-2.7425,-2.7365,-2.7394,-2.763,-2.7642,-2.7736,0.0,0.0,0.0,0.0,0.0,0.0,0.0,0.0,-3.162,-3.2702,0.0,-3.4621,0.0,0.0,0.0,0.0,0.0,-3.7274,0.0,0.0,-4.0975,-4.16,-4.138,-4.1364,-4.1296,-4.1144,-4.0827,-4.0599,-4.0293,-3.7325,0.0,0.0,0.0,0.0,0.0,0.0,-4.0854,-4.1971,-4.3266,-4.3986,-4.3949,-4.3225,-4.2816,-4.2779,-4.2036,-4.159,-4.1501,-3.9651,-3.8107,-3.702,-3.2909,0.0,0.0,0.0,0.0,0.0,0.0,0.0,0.0,0.0,0.0,0.0,0.0,0.0,0.0,0.0,0.0,0.0,0.0,0.0,0.0,-2.8368,0.0,0.0,0.0,0.0,0.0,0.0,0.0,0.0,0.0,0.0,-2.9881,-3.0696,-3.1859,-3.3478,0.0,0.0,0.0,0.0,-3.6887,-3.8318,-3.8453,-3.8351,-3.8368,-3.7672,-3.716,-3.7298,0.0,0.0,-3.3765,-3.3316,-3.3128,-3.294,-3.3395,-3.3009,-3.1362,-3.0929,-3.0712,-3.0233,-3.0128,-3.0331,-3.0893,-3.0837,-3.0991,-3.459,0.0,0.0,0.0,0.0,-3.121,-3.3994,-3.8707,-3.839,-3.9493,-4.1614,-4.1524,0.0,0.0,0.0,0.0,0.0,0.0,-4.2722,-4.3331,-4.4397,-4.4936,-4.4985,-4.4985,-4.4951,-4.4916,-4.4833,-4.5078,-4.5524,-4.463,-4.2614,-3.9609,0.0,0.0,0.0,0.0,-4.2318,-4.2371,-4.3436,-4.4005,-4.4005,-4.3782,-4.3373,-4.2835,-4.2575,-4.2184,-4.1609,-4.1019,-3.9899,-3.8141,-3.6721,0.0,0.0,0.0,0.0,0.0,0.0,0.0,0.0,0.0,0.0,0.0,0.0,0.0,0.0,0.0,0.0,0.0,0.0,0.0,-2.9244,-3.0453,-3.0938,0.0,0.0,0.0,0.0,0.0,0.0,0.0,0.0,0.0,-3.3064,-3.4003,-3.4831,0.0,0.0,-3.7352,-3.7887,-3.7939,-3.8077,-3.8543,-3.8487,0.0,-3.8402,-3.8151,-3.7986,-3.8071,-3.7799,-3.7438,-3.7038,-3.6965,-3.696,-3.6886,-3.7009,-3.6769,-3.5752,-3.4219,-3.3179,-3.2948,-3.2856,-3.2846,-3.3008,-3.2913,-3.2849,-4.2575,-3.913,-3.5724,-3.5537,-3.7511,-3.7205,-3.9599,-4.3639,-4.3319,-4.3981,-4.529,-4.5254,-4.4472,-4.3195,-4.2991,0.0,0.0,0.0,-4.5238,-4.5571,-4.6086,-4.6376,-4.6494,-4.6513,-4.6513,-4.6513,-4.6513,-4.6754,-4.7237,-4.7519,-4.6373,-4.3889,0.0,0.0,-4.3305,-4.3962,-4.4175,-4.3957,-4.4633,-4.4841,-4.4525,-4.4191,-4.3782,-4.3299,-4.3262,-4.2909,-4.211,-4.2073,-4.1352,-3.9795,-3.909,-3.7074,0.0,0.0,0.0,0.0,0.0,0.0,0.0,0.0,0.0,0.0,0.0,-2.0197,-2.0721,0.0,0.0,0.0,-2.8455,-3.0672,-3.274,-3.3012,0.0,0.0,0.0,0.0,0.0,0.0,0.0,-3.2348,-3.3372,-3.4445,-3.5404,-3.6642,-3.7259,-3.6831,-3.7757,-3.8613,-3.8991,0.0,-3.9129,-3.9479,-3.9445,-3.9399,-3.9382,-3.9089,-3.8791,-3.8516,-3.8572,-3.8555,-3.851,-3.8555,-3.8594,-3.8594,-3.8594,-3.8456,-3.803,-3.6788,-3.5645,-3.5076,-3.4891,-3.483,-3.4809,-3.4643,-3.4474,-4.889,-4.827,-4.1076,-3.9737,-4.2313,-4.237,-4.4006,-4.6645,-4.668,-4.6596,-4.6441,-4.6613,-4.6441,-4.6049,-4.6048,0.0,-4.6246,-4.6353,-4.651,-4.668,-4.6698,-4.668,-4.668,-4.6698,-4.6698,-4.6698,-4.668,-4.668,-4.6754,-4.7394,-4.7693,-4.7711,-4.7515,-4.693,-4.5993,-4.6065,-4.6171,-4.6222,-4.6392,-4.6141,-4.5398,-4.4618,-4.4172,-4.4098,-4.4098,-4.3708,-4.2946,-4.2816,-4.2482,-4.1798,-4.0551,-3.9352,-3.8172,0.0,0.0,0.0,0.0,0.0,0.0,0.0,0.0,0.0,0.0,0.0,0.0,0.0,0.0,0.0,-3.1963,0.0,-3.5809,-3.5582,0.0,0.0,0.0,-3.3977,-3.3808,-3.3554,-3.3681,-3.4348,0.0,0.0,-3.7108,-3.8597,-3.9101,-3.7836,-3.8323,-3.9048,-3.9681,-3.9802,-4.0043,-4.0705,-4.0877,-4.0877,-4.0698,-4.0215,-3.9572,-3.9026,-3.8807,-3.8893,-3.8853,-3.8876,-3.8801,-3.8893,-3.8824,-3.8789,-3.872,-3.8582,-3.8215,-3.6732,-3.6444,-3.6397,-3.6354,-3.6163,-3.6009,-4.889,-4.8745,-4.6854,-4.6522,-4.7206,-4.7224,-4.7626,-4.8314,-4.8333,-4.8316,-4.8263,-4.8297,-4.8281,-4.8158,-4.8158,-4.8175,-4.8209,-4.8264,-4.828,-4.8333,-4.8333,-4.8314,-4.8333,-4.8333,-4.8333,-4.8314,-4.8333,-4.8333,-4.8333,-4.852,-4.8577,-4.8595,-4.8542,-4.8083,-4.7219,-4.7198,-4.6972,-4.6428,-4.6477,-4.6401,-4.6215,-4.603,-4.5602,-4.4989,-4.4989,-4.4581,-4.3745,-4.3113,-4.2983,-4.3392,-4.3116,-4.2325,-4.0975,-3.8403,0.0,0.0,0.0,0.0,0.0,0.0,0.0,0.0,0.0,-2.6577,-2.813,0.0,-3.3037,0.0,-3.4662,-3.5611,-3.5612,-3.5698,0.0,0.0,-3.522,-3.5131,-3.4607,-3.5587,-3.6302,-3.6271,-3.7138,-3.7848,-3.8065,-3.8969,-3.9496,-3.9232,-3.9859,-4.0411,-4.0601,-4.0618,-4.0687,-4.086,-4.0929,-4.0894,-4.0946,-4.0774,-4.0549,-4.0377,-4.0342,-4.0359,-4.0342,-4.0359,-4.0359,-4.0342,-4.0336,-4.0135,-3.9543,-3.9439,-3.9112,-3.8284,-3.806,-3.7993,-3.7904,-3.7729,-3.7598,-5.0023,-5.0023,-5.0023,-5.0005,-4.9968,-4.9224,-4.889,-4.889,-4.889,-4.889,-4.889,-4.889,-4.889,-4.889,-4.889,-4.889,-4.889,-4.889,-4.889,-4.889,-4.889,-4.889,-4.889,-4.889,-4.889,-4.889,-4.889,-4.889,-4.889,-4.889,-4.889,-4.889,-4.889,-4.8633,-4.8208,-4.819,-4.7984,-4.7571,-4.72,-4.7033,-4.7014,-4.668,-4.629,-4.5844,-4.5825,-4.5602,-4.5119,-4.4674,-4.4655,-4.5082,-4.5069,-4.4648,-4.3828,-4.1397,-3.8919,0.0,0.0,0.0,0.0,0.0,0.0,0.0,0.0,0.0,0.0,0.0,-3.5266,-3.5662,-3.6331,-3.6668,-3.6528,-3.694,-3.7001,-3.654,-3.6888,-3.7042,-3.6793,-3.7422,-3.7823,-3.7689,-3.8431,-3.8969,-3.8986,-3.9698,-4.0203,-4.0233,-4.0912,-4.1274,-4.0963,-4.0894,-4.0894,-4.0912,-4.1188,-4.155,-4.1861,-4.1619,-4.1395,-4.136,-4.1119,-4.0894,-4.0894,-4.0894,-4.0894,-4.0894,-4.0894,-4.0774,-4.0342,-4.0239,-4.0083,-3.9773,-3.9635,-3.9307,-3.8574,-3.8322,-3.8224,-5.1398,-5.1398,-5.1398,-5.1398,-5.1286,-4.9837,-4.9224,-4.9224,-4.9224,-4.915,-4.9057,-4.9039,-4.9002,-4.889,-4.889,-4.889,-4.889,-4.889,-4.889,-4.889,-4.889,-4.889,-4.889,-4.889,-4.889,-4.889,-4.889,-4.889,-4.889,-4.889,-4.889,-4.889,-4.889,-4.889,-4.889,-4.889,-4.889,-4.889,-4.8203,-4.785,-4.785,-4.7163,-4.6754,-4.6661,-4.6643,-4.6605,-4.6513,-4.6513,-4.6531,-4.6643,-4.6541,-4.6493,-4.6462,-4.3743,-4.1613,0.0,-3.7501,0.0,0.0,0.0,0.0,0.0,0.0,0.0,0.0,-3.569,-3.6811,-3.763,-3.775,-3.7895,-3.8201,-3.8708,-3.8901,-3.871,-3.8813,-3.8977,-3.9087,-3.889,-3.8732,-3.8732,-3.9388,-3.9871,-4.0026,-4.0636,-4.1067,-4.1257,-4.1757,-4.1964,-4.1378,-4.1291,-4.1326,-4.1205,-4.174,-4.2396,-4.2861,-4.2568,-4.2147,-4.2102,-4.1723,-4.1205,-4.1274,-4.1274,-4.124,-4.124,-4.1188,-4.1067,-4.105,-4.0963,-4.0877,-4.0791,-4.0774,-4.0347,-3.9198,-3.8774,-3.8619,-5.1398,-5.1398,-5.1398,-5.1398,-5.1379,-5.1045,-5.0933,-5.0933,-5.0933,-5.0543,-4.9893,-4.9875,-4.9522,-4.8909,-4.889,-4.889,-4.889,-4.889,-4.889,-4.889,-4.889,-4.889,-4.889,-4.889,-4.889,-4.889,-4.889,-4.889,-4.889,-4.889,-4.889,-4.889,-4.889,-4.889,-4.889,0.0,0.0,0.0,-4.8742,-4.8667,-4.8686,-4.8537,-4.8129,-4.7516,-4.7478,0.0,-4.655,-4.6513,-4.681,-4.7423,-4.7443,0.0,0.0,0.0,0.0,0.0,0.0,0.0,0.0,0.0,0.0,0.0,-3.8958,-3.8131,-3.6524,-3.801,-3.9424,-4.0258,-4.0366,-4.0404,-4.0469,-4.0236,-3.995,-3.9593,-3.9297,-3.9023,-3.8772,-3.9174,-3.9491,-3.9491,-4.0181,-4.0912,-4.1464,-4.1698,-4.2033,-4.2568,-4.2879,-4.2913,-4.2775,-4.2706,-4.2741,-4.2775,-4.2879,-4.3034,-4.3155,-4.3086,-4.2965,-4.2948,-4.2896,-4.2723,-4.2689,-4.2706,-4.2723,-4.2689,-4.224,-4.1809,-4.1792,-4.1326,-4.0981,-4.0912,-4.0912,-4.0761,-4.0343,-4.025,-4.0237,-5.2587,0.0,-5.2587,-5.2587,0.0,-5.2587,-5.2587,-5.2531,-5.1732,-5.1138,-5.0766,-5.0729,-5.0525,-5.0135,-5.0135,-5.0135,-5.0135,-5.0135,-5.0135,-5.0135,-5.0135,-5.0135,-5.0135,-4.9707,-4.9503,-4.9522,-4.9113,-4.889,-4.889,-4.889,-4.889,-4.889,-4.889,-4.889,-4.889,-4.889,-4.889,-4.889,-4.889,-4.889,-4.889,-4.889,-4.8704,-4.8314,-4.8296,0.0,0.0,0.0,0.0,0.0,0.0,0.0,0.0,-4.7279,0.0,-4.4325,-4.2881,-4.2079,-4.1967,-4.1588,-4.1447,-4.1651,-4.1105,-4.0211,-3.8958,-3.9851,-4.0624,-4.1058,-4.0909,-4.0685,-4.051,-4.0393,-4.0197,-3.9824,-3.9931,-3.9948,-3.9819,-4.0066,-4.0422,-4.0808,-4.1205,-4.174,-4.2482,-4.2603,-4.2741,-4.3138,-4.3517,-4.3741,-4.3707,-4.3414,-4.3293,-4.3672,-4.3759,-4.388,-4.4147,-4.3949,-4.3741,-4.3724,-4.3448,-4.3224,-4.3207,-4.3207,-4.3207,-4.3172,-4.2844,-4.2603,-4.2568,-4.2275,-4.1912,-4.1567,-4.1447,-4.1267,-4.0937,-4.0793,-4.0776,-5.424,-5.4258,-5.424,-5.424,-5.4258,-5.4258,-5.4166,-5.3905,0.0,0.0,0.0,-5.1621,-5.1546,-5.1398,-5.1398,-5.1398,-5.1398,-5.1398,-5.1398,-5.1398,-5.1398,-5.1398,-5.1361,-5.0673,-5.0358,-5.0376,-4.9689,-4.9336,-4.9336,-4.9187,-4.9113,-4.9113,-4.8964,-4.889,-4.889,-4.889,-4.889,-4.889,-4.889,-4.889,-4.889,-4.889,-4.889,-4.889,-4.889,-4.9224,-4.9856,-4.9875,-5.0192,-5.0897,-5.0806,-5.0084,-4.8698,-4.7813,-4.6636,-4.504,-4.4125,-4.3906,-4.44,-4.3725,-4.336,-4.3497,-4.2286,-4.1445,-4.1251,-4.1264,-4.1352,-4.1515,-4.1155,-4.0836,-4.054,-4.0664,-4.0643,-4.0381,-4.0868,-4.1254,-4.1298,-4.1309,-4.1567,-4.2102,-4.2206,-4.2499,-4.3258,-4.3379,-4.3465,-4.3638,-4.4173,-4.4492,-4.4432,-4.4052,-4.3914,-4.4371,-4.4518,-4.4699,-4.5104,-4.4906,-4.4509,-4.4458,-4.4018,-4.3603,-4.3586,-4.3603,-4.3586,-4.3724,-4.3517,-4.3396,-4.3379,-4.3207,-4.2982,-4.2361,-4.2223,-4.1974,-4.1309,-4.1101,-4.1067,-5.5949,-5.5949,-5.5949,-5.5949,-5.5949,-5.5949,-5.5522,-5.4779,-5.3868,-5.307,-5.2457,-5.2438,-5.2048,-5.1398,-5.1398,-5.1398,-5.1398,-5.1398,-5.1398,-5.1398,-5.1398,-5.1398,-5.1398,-5.1286,-5.1212,-5.1231,-5.1101,-5.1045,-5.0971,-5.0302,-4.9949,-4.9856,-4.9243,-4.8909,-4.889,-4.889,-4.889,-4.889,-4.889,-4.889,-4.889,-4.889,-4.889,-4.889,-4.889,-4.8946,-4.9057,-4.9043,-4.9027,-4.9138,-4.9048,-4.8845,-4.8624,-4.8458,-4.7942,-4.6985,-4.6746,-4.6103,-4.4783,-4.4545,-4.4179,-4.3571,-4.3294,-4.2873,-4.2196,-4.2122,-4.2415,-4.3057,-4.3043,-4.3044,-4.2974,-4.2702,-4.2526,-4.2686,-4.2559,-4.2538,-4.2763,-4.2792,-4.2844,-4.3,-4.3034,-4.331,-4.4,-4.4156,-4.438,-4.4906,-4.5044,-4.5216,-4.5165,-4.5156,-4.5121,-4.5207,-4.5242,-4.5294,-4.5345,-4.5345,-4.5173,-4.5242,-4.5087,-4.4941,-4.4897,-4.4923,-4.4897,-4.5035,-4.4509,-4.419,-4.4138,-4.3603,-4.331,-4.3069,-4.3017,-4.2758,-4.2033,-4.1826,-4.1619,-5.632,-5.632,-5.632,-5.632,-5.632,-5.632,-5.6079,-5.5689,-5.5336,-5.4444,-5.3311,-5.3255,-5.307,-5.2717,-5.2698,-5.2698,-5.2717,-5.2698,-5.2698,-5.2698,-5.2698,-5.2717,-5.2679,-5.2271,-5.2067,-5.2029,-5.1602,-5.1398,-5.1361,-5.0989,-5.0803,-5.0748,-4.9968,-4.9336,-4.8927,-4.889,-4.889,-4.889,-4.889,-4.889,-4.889,-4.889,-4.889,-4.889,-4.889,-4.9113,-4.954,-4.9524,-4.9693,-5.0101,-5.001,-4.9529,-4.8606,-4.8476,-4.7887,-4.6654,-4.6544,-4.6195,-4.5406,-4.5351,-4.5186,-4.4837,-4.48,-4.4654,-4.4305,-4.3846,-4.3773,-4.4121,-4.4327,-4.4454,-4.4472,-4.4091,-4.3894,-4.3989,-4.3602,-4.343,-4.3491,-4.3321,-4.3362,-4.3707,-4.3793,-4.4087,-4.4803,-4.4906,-4.4992,-4.5363,-4.5414,-4.5414,-4.5414,-4.5414,-4.5414,-4.5414,-4.5414,-4.5397,-4.5414,-4.5414,-4.5414,-4.5414,-4.5414,-4.5414,-4.5414,-4.5414,-4.5414,-4.5397,-4.5096,-4.4923,-4.4889,-4.4647,-4.4268,-4.3845,-4.3793,-4.3483,-4.2861,-4.2344,-4.1757,-5.684,-5.684,-5.684,-5.684,-5.6822,-5.6655,-5.658,-5.6562,-5.6376,-5.5577,-5.4481,-5.437,-5.437,-5.437,-5.437,-5.4258,-5.4091,-5.4073,-5.398,-5.3813,-5.3813,-5.3813,-5.3757,-5.3144,-5.2865,-5.281,-5.2234,-5.1936,-5.1936,-5.1769,-5.1565,-5.1361,-5.0729,-4.9986,-4.9187,-4.9169,-4.9094,-4.8909,-4.889,-4.889,-4.889,-4.889,-4.889,-4.889,-4.889,-4.9187,-4.98,-4.9802,-5.0063,-5.062,-5.0582,-4.9915,-4.8624,-4.8382,-4.7755,-4.6599,-4.6452,-4.6342,-4.6177,-4.5993,-4.5902,-4.5902,-4.5902,-4.5883,-4.5865,-4.5516,-4.5131,-4.5058,-4.524,-4.5415,-4.5359,-4.5102,-4.4884,-4.4832,-4.4533,-4.4314,-4.4218,-4.3905,-4.3897,-4.444,-4.4544,-4.4785,-4.5242,-4.5414,-4.5397,-4.538,-4.5414,-4.5414,-4.5414,-4.5414,-4.5414,-4.5414,-4.5414,-4.5414,-4.5414,-4.5414,-4.5414,-4.5414,-4.5414,-4.5414,-4.5414,-4.5414,-4.5414,-4.5397,-4.5397,-4.5328,-4.538,-4.5363,-4.5087,-4.4647,-4.4544,-4.4285,-4.3603,-4.2654,-4.1809,-5.8456,-5.8494,-5.8419,-5.8454,-5.8364,-5.7695,-5.7398,-5.7305,-5.6636,-5.6227,-5.6079,-5.6079,-5.606,-5.606,-5.6004,-5.5596,-5.4946,-5.487,-5.4518,-5.3924,-5.3813,-5.3813,-5.385,-5.372,-5.3701,-5.3664,-5.3534,-5.3441,-5.3404,-5.281,-5.2122,-5.1472,-5.1305,-5.0859,-5.0098,-5.0005,-4.9633,-4.8909,-4.889,-4.889,-4.889,-4.889,-4.889,-4.889,-4.889,-4.8927,-4.9057,-4.8951,-4.8953,-4.9009,-4.8883,-4.8697,-4.8494,-4.8363,-4.8233,-4.8049,-4.8049,-4.7774,-4.7039,-4.6324,-4.5975,-4.5902,-4.5975,-4.5993,-4.6012,-4.6507,-4.6544,-4.603,-4.5865,-4.5938,-4.5847,-4.5846,-4.5812,-4.5688,-4.5561,-4.5458,-4.5232,-4.5243,-4.5225,-4.5259,-4.5207,-4.5328,-4.538,-4.5414,-4.5414,-4.5414,-4.5414,-4.5414,-4.5414,-4.5414,-4.5414,-4.5414,-4.5414,-4.5414,-4.5414,-4.5414,-4.5414,-4.5414,-4.5414,-4.5414,-4.5414,-4.5414,-4.5414,-4.5414,-4.5414,-4.5414,-4.5414,-4.5414,-4.538,-4.5225,-4.513,-4.5018,-4.4251,-4.3155,-4.2033,-5.8677,-5.8677,-5.8677,-5.8677,-5.8642,-5.8345,-5.8234,-5.8178,-5.7881,-5.7713,-5.7732,-5.7713,-5.7212,-5.632,-5.632,-5.6097,-5.5782,-5.5782,-5.5596,-5.5224,-5.4779,-5.4518,-5.4481,-5.3998,-5.3813,-5.3813,-5.3813,-5.3813,-5.3757,-5.346,-5.2902,-5.2197,-5.2104,-5.1695,-5.0933,-5.0878,-5.045,-4.9633,-4.9615,-4.9373,-4.8946,-4.889,-4.889,-4.889,-4.889,-4.889,-4.889,-4.8874,-4.884,-4.8787,-4.8661,-4.8532,-4.8494,-4.8363,-4.8324,-4.8324,-4.8324,-4.8177,-4.7847,-4.7498,-4.7315,-4.7315,-4.7315,-4.7315,-4.7333,-4.7645,-4.7664,-4.7407,-4.7315,-4.7315,-4.7297,-4.7315,-4.7195,-4.688,-4.6587,-4.6253,-4.591,-4.5589,-4.5414,-4.5414,-4.5414,-4.5414,-4.5414,-4.5414,-4.5414,-4.5414,-4.5414,-4.5414,-4.5414,-4.5414,-4.5414,-4.5414,-4.5414,-4.5414,-4.5414,-4.5414,-4.5414,-4.5414,-4.5414,-4.5414,-4.5414,-4.5414,-4.5414,-4.5414,-4.5414,-4.5414,-4.5414,-4.5414,-4.5414,-4.5414,-4.5363,-4.5173,-4.4466,-4.381,-4.2965,-5.8762,-5.8698,-5.8677,-5.8677,-5.8677,-5.8677,-5.8677,-5.8677,-5.8677,-5.8677,-5.8677,-5.8677,-5.8066,-5.7063,-5.697,-5.6859,-5.6655,-5.6636,-5.6506,-5.6265,-5.5652,-5.5354,-5.5261,-5.4518,-5.4128,-5.4072,-5.3905,-5.3813,-5.3813,-5.3813,-5.3497,-5.3014,-5.2921,-5.2531,-5.1825,-5.1732,-5.1323,-5.0525,-5.045,-5.0079,-4.9355,-4.9224,-4.9132,-4.8927,-4.889,-4.889,-4.889,-4.889,-4.8874,-4.8822,-4.8715,-4.8605,-4.8532,-4.842,-4.8325,-4.8324,-4.8324,-4.8324,-4.8324,-4.8324,-4.8324,-4.8324,-4.8324,-4.8324,-4.8324,-4.8324,-4.8324,-4.8269,-4.8324,-4.8269,-4.8324,-4.8324,-4.8113,-4.7671,-4.727,-4.689,-4.6418,-4.5912,-4.5641,-4.5615,-4.5528,-4.5414,-4.5414,-4.5414,-4.5414,-4.5414,-4.5414,-4.5414,-4.5414,-4.5414,-4.5414,-4.5414,-4.5414,-4.5414,-4.5414,-4.5414,-4.5414,-4.5414,-4.5414,-4.5414,-4.5414,-4.5414,-4.5414,-4.5414,-4.5414,-4.5414,-4.5414,-4.5414,-4.5414,-4.5414,-4.538,-4.5242,-4.482,-4.4475,-4.388,-5.8986,-5.8719,-5.8677,-5.8677,-5.8677,-5.8677,-5.8677,-5.8677,-5.8677,-5.8677,-5.8677,-5.8677,-5.8661,-5.8512,-5.8438,-5.8159,-5.7528,-5.7453,-5.7082,-5.6469,-5.6283,-5.6246,-5.619,-5.5373,-5.4964,-5.489,-5.424,-5.3868,-5.3813,-5.3813,-5.3775,-5.3738,-5.3683,-5.3311,-5.2661,-5.2549,-5.2141,-5.1435,-5.1323,-5.0933,-5.0172,-5.0042,-4.9652,-4.9057,-4.8909,-4.889,-4.889,-4.889,-4.889,-4.8891,-4.8822,-4.8715,-4.8587,-4.8513,-4.8438,-4.8306,-4.8324,-4.8324,-4.8324,-4.8324,-4.8324,-4.8324,-4.8324,-4.8324,-4.8324,-4.8324,-4.8324,-4.8324,-4.8324,-4.8324,-4.8324,-4.8324,-4.8113,-4.7674,-4.7591,-4.7313,-4.6908,-4.6363,-4.6186,-4.6062,-4.5675,-4.5423,-4.5414,-4.5414,-4.5414,-4.5414,-4.5414,-4.5414,-4.5414,-4.5414,-4.5414,-4.5414,-4.5414,-4.5414,-4.5414,-4.5414,-4.5414,-4.5414,-4.5414,-4.5414,-4.5414,-4.5414,-4.5414,-4.5414,-4.5414,-4.5414,-4.5414,-4.5414,-4.5414,-4.5414,-4.5414,-4.5242,-4.5087,-4.4665,-4.4147,-5.9006,-5.8716,-5.8677,-5.8677,-5.8677,-5.8677,-5.8677,-5.8677,-5.8677,-5.8677,-5.8677,-5.8677,-5.8677,-5.8677,-5.8677,-5.8568,-5.8289,-5.8289,-5.8103,-5.7788,-5.7323,-5.7063,-5.697,-5.6227,-5.5837,-5.5707,-5.4964,-5.4296,-5.3831,-5.3813,-5.3813,-5.3813,-5.3813,-5.3645,-5.3404,-5.3367,-5.2977,-5.2252,-5.2159,-5.1769,-5.0952,-5.0432,-4.9986,-4.967,-4.9169,-4.889,-4.889,-4.889,-4.889,-4.889,-4.8821,-4.8732,-4.8587,-4.8458,-4.8363,-4.8306,-4.8324,-4.8324,-4.8324,-4.8324,-4.8324,-4.8324,-4.8324,-4.8324,-4.8324,-4.8324,-4.8324,-4.8324,-4.8324,-4.8324,-4.8324,-4.8324,-4.8113,-4.7695,-4.7591,-4.7442,-4.6936,-4.6489,-4.6211,-4.6112,-4.5727,-4.5423,-4.5414,-4.5414,-4.5414,-4.5414,-4.5414,-4.5414,-4.5414,-4.5414,-4.5414,-4.5414,-4.5414,-4.5414,-4.5414,-4.5414,-4.5414,-4.5414,-4.5414,-4.5414,-4.5414,-4.5483,-4.5518,-4.5449,-4.5432,-4.5466,-4.5483,-4.5414,-4.5414,-4.5414,-4.5414,-4.5414,-4.5397,-4.5027,-4.4699,-5.9006,-5.8719,-5.8677,-5.8677,-5.8677,-5.8677,-5.8677,-5.8677,-5.8677,-5.8677,-5.8677,-5.8677,-5.8677,-5.8677,-5.8677,-5.8677,-5.8677,-5.8698,-5.8677,-5.8661,-5.8141,-5.7881,-5.7751,-5.7063,-5.671,-5.6506,-5.554,-5.4723,-5.4221,-5.3924,-5.3813,-5.3813,-5.3813,-5.3813,-5.3813,-5.3813,-5.3497,-5.307,-5.2977,-5.2605,-5.1825,-5.1268,-5.0803,-5.045,-4.9726,-4.9169,-4.8927,-4.889,-4.889,-4.8891,-4.8856,-4.8768,-4.8605,-4.842,-4.8343,-4.8306,-4.8324,-4.8324,-4.8324,-4.8324,-4.8324,-4.8324,-4.8324,-4.8324,-4.8324,-4.8324,-4.8324,-4.8324,-4.8324,-4.8324,-4.8324,-4.8324,-4.819,-4.7877,-4.7797,-4.7713,-4.7374,-4.6817,-4.6315,-4.5955,-4.5615,-4.5423,-4.5414,-4.5414,-4.5414,-4.5414,-4.5414,-4.5414,-4.5414,-4.5414,-4.5414,-4.5414,-4.5414,-4.5414,-4.5414,-4.5397,-4.5423,-4.545,-4.5414,-4.5414,-4.5492,-4.5579,-4.5622,-4.5527,-4.5527,-4.5552,-4.5518,-4.5432,-4.5414,-4.5414,-4.5414,-4.5414,-4.5414,-4.5414,-4.5096,-5.9025,-5.8719,-5.8677,-5.8677,-5.8677,-5.8677,-5.8677,-5.8677,-5.8677,-5.8677,-5.8677,-5.8677,-5.8677,-5.8677,-5.8677,-5.8677,-5.8677,-5.8677,-5.8677,-5.8679,-5.8642,-5.8584,-5.8549,-5.7862,-5.7435,-5.7323,-5.5856,-5.5076,-5.4852,-5.4258,-5.3905,-5.3831,-5.3813,-5.3813,-5.3813,-5.3794,-5.3794,-5.3701,-5.3683,-5.3348,-5.2698,-5.2457,-5.2067,-5.1416,-5.0618,-4.9856,-4.9076,-4.8946,-4.889,-4.889,-4.8891,-4.8784,-4.8642,-4.8532,-4.842,-4.8343,-4.8324,-4.8324,-4.8324,-4.8324,-4.8324,-4.8324,-4.8324,-4.8324,-4.8324,-4.8324,-4.8324,-4.8324,-4.8324,-4.8324,-4.8324,-4.8324,-4.8287,-4.8287,-4.8229,-4.8209,-4.8053,-4.7421,-4.6513,-4.5701,-4.5397,-4.5414,-4.5414,-4.5414,-4.5414,-4.5414,-4.5414,-4.5414,-4.5414,-4.5414,-4.5414,-4.5414,-4.5423,-4.5423,-4.5423,-4.5423,-4.5432,-4.5459,-4.5423,-4.5414,-4.558,-4.5666,-4.584,-4.5814,-4.5962,-4.597,-4.5483,-4.5414,-4.5414,-4.5414,-4.5414,-4.5414,-4.5414,-4.5414,-4.5414,-5.9252,-5.8719,-5.8677,-5.8677,-5.8677,-5.8677,-5.8677,-5.8677,-5.8677,-5.8677,-5.8677,-5.8677,-5.8677,-5.8677,-5.8677,-5.8677,-5.8677,-5.8677,-5.8677,-5.8677,-5.8677,-5.8677,-5.8642,-5.8456,-5.8048,-5.7528,-5.7008,-5.6097,-5.5149,-5.476,-5.4369,-5.3924,-5.3813,-5.3813,-5.3813,-5.3813,-5.3813,-5.3813,-5.3813,-5.3664,-5.3385,-5.2884,-5.2475,-5.2197,-5.1454,-5.0859,-5.0599,-4.9522,-4.8927,-4.8927,-4.889,-4.8856,-4.8732,-4.8587,-4.8494,-4.8438,-4.8363,-4.8324,-4.8324,-4.8324,-4.8324,-4.8324,-4.8324,-4.8324,-4.8324,-4.8324,-4.8324,-4.8324,-4.8324,-4.8324,-4.8324,-4.8324,-4.8324,-4.8324,-4.8324,-4.8287,-4.8151,-4.7442,-4.6513,-4.5641,-4.5414,-4.5414,-4.5414,-4.5414,-4.5414,-4.5414,-4.5414,-4.5414,-4.5423,-4.5476,-4.5414,-4.5414,-4.5423,-4.5641,-4.5829,-4.5963,-4.6013,-4.5945,-4.5837,-4.5727,-4.5831,-4.6108,-4.6211,-4.6185,-4.6315,-4.61,-4.5632,-4.5414,-4.5414,-4.5414,-4.5414,-4.5414,-4.5414,-4.5414,-4.5414,-5.9362,-5.8719,-5.8677,-5.8677,-5.8677,-5.8677,-5.8677,-5.8677,-5.8677,-5.8677,-5.8677,-5.8677,-5.8677,-5.8677,-5.8677,-5.8677,-5.8677,-5.8677,-5.8677,-5.8677,-5.8677,-5.8677,-5.8677,-5.8677,-5.8494,-5.7973,-5.7639,-5.6989,-5.5967,-5.5299,-5.476,-5.4314,-5.3961,-5.3813,-5.3813,-5.3813,-5.3813,-5.3813,-5.3813,-5.3813,-5.372,-5.3311,-5.3051,-5.294,-5.2271,-5.1881,-5.1751,-5.0525,-4.967,-4.9355,-4.9076,-4.8856,-4.8804,-4.8697,-4.8569,-4.8494,-4.842,-4.8363,-4.8306,-4.8324,-4.8324,-4.8324,-4.8324,-4.8324,-4.8324,-4.8324,-4.8324,-4.8324,-4.8324,-4.8324,-4.8324,-4.8324,-4.8324,-4.8324,-4.8324,-4.8132,-4.7834,-4.7288,-4.6489,-4.5701,-4.5414,-4.5414,-4.5414,-4.5414,-4.5414,-4.5414,-4.5414,-4.5537,-4.5615,-4.5718,-4.577,-4.5879,-4.607,-4.6266,-4.6411,-4.6507,-4.6584,-4.6489,-4.637,-4.6273,-4.6253,-4.679,-4.7082,-4.6663,-4.6623,-4.6047,-4.5589,-4.545,-4.5414,-4.5414,-4.5414,-4.5414,-4.5414,-4.5414,-4.5414,-5.9417,-5.876,-5.8739,-5.8719,-5.8698,-5.8677,-5.8677,-5.8677,-5.8677,-5.8677,-5.8677,-5.8677,-5.8677,-5.8677,-5.8677,-5.8677,-5.8677,-5.8677,-5.8677,-5.8677,-5.8677,-5.8677,-5.8677,-5.8677,-5.8642,-5.8494,-5.7955,-5.7565,-5.7156,-5.6023,-5.5056,-5.4871,-5.4277,-5.3831,-5.3831,-5.3813,-5.3813,-5.3813,-5.3813,-5.3813,-5.3813,-5.3757,-5.3738,-5.3701,-5.3051,-5.2661,-5.2549,-5.1788,-5.0952,-5.0135,-4.9392,-4.9004,-4.8841,-4.8804,-4.8715,-4.8532,-4.8513,-4.8438,-4.8343,-4.8306,-4.8324,-4.8324,-4.8324,-4.8324,-4.8324,-4.8324,-4.8306,-4.8343,-4.8306,-4.8324,-4.8324,-4.8306,-4.8324,-4.8324,-4.8324,-4.7955,-4.7156,-4.6999,-4.656,-4.5786,-4.5476,-4.5423,-4.545,-4.5414,-4.5414,-4.5423,-4.5476,-4.5727,-4.5988,-4.6161,-4.6435,-4.6537,-4.6584,-4.6753,-4.6845,-4.6959,-4.7049,-4.7248,-4.7053,-4.689,-4.673,-4.7185,-4.7429,-4.7055,-4.6766,-4.6145,-4.5641,-4.5502,-4.5397,-4.5414,-4.5414,-4.5414,-4.5414,-4.5397,-4.5423,-5.9736,-5.9083,-5.9064,-5.8926,-5.8719,-5.8677,-5.8677,-5.8677,-5.8677,-5.8677,-5.8677,-5.8677,-5.8677,-5.8677,-5.8677,-5.8677,-5.8677,-5.8677,-5.8677,-5.8677,-5.8677,-5.8677,-5.8677,-5.8677,-5.8677,-5.8642,-5.8438,-5.8085,-5.7528,-5.697,-5.619,-5.502,-5.4797,-5.4351,-5.3905,-5.3813,-5.3813,-5.3813,-5.3813,-5.3813,-5.3813,-5.3813,-5.3813,-5.3775,-5.3571,-5.346,-5.3404,-5.2717,-5.1565,-5.0228,-4.993,-4.9486,-4.906,-4.8914,-4.8843,-4.8771,-4.8587,-4.8476,-4.8438,-4.8344,-4.8306,-4.8324,-4.8324,-4.8324,-4.8324,-4.8306,-4.8344,-4.8382,-4.8363,-4.8344,-4.8419,-4.8363,-4.8306,-4.8324,-4.8324,-4.8055,-4.7567,-4.7399,-4.7031,-4.6193,-4.5988,-4.5829,-4.5589,-4.5502,-4.5502,-4.5537,-4.5752,-4.6062,-4.6363,-4.6584,-4.6863,-4.6817,-4.6886,-4.7093,-4.7252,-4.736,-4.7551,-4.7897,-4.7816,-4.7527,-4.7335,-4.7348,-4.7304,-4.7041,-4.7025,-4.6578,-4.5887,-4.5406,-4.5423,-4.5563,-4.5563,-4.5641,-4.5502,-4.545,-4.5476,-5.9865,-5.9215,-5.9215,-5.9006,-5.8719,-5.8677,-5.8677,-5.8677,-5.8677,-5.8677,-5.8677,-5.8677,-5.8677,-5.8677,-5.8677,-5.8677,-5.8677,-5.8677,-5.8677,-5.8677,-5.8677,-5.8677,-5.8677,-5.8677,-5.8677,-5.8677,-5.8677,-5.8456,-5.8029,-5.7676,-5.6766,-5.5726,-5.5187,-5.4593,-5.385,-5.3813,-5.3813,-5.3813,-5.3813,-5.3813,-5.3813,-5.3813,-5.3813,-5.3813,-5.3813,-5.3813,-5.372,-5.3348,-5.2345,-5.1045,-5.0636,-5.0432,-4.9986,-4.9543,-4.934,-4.9305,-4.8846,-4.8532,-4.8476,-4.8382,-4.8306,-4.8324,-4.8343,-4.8343,-4.8325,-4.8363,-4.8458,-4.8476,-4.8457,-4.8458,-4.8495,-4.8458,-4.8439,-4.8439,-4.842,-4.8152,-4.7671,-4.7591,-4.727,-4.6747,-4.6483,-4.6411,-4.6045,-4.602,-4.602,-4.6094,-4.6315,-4.6584,-4.6822,-4.7049,-4.7266,-4.7309,-4.7396,-4.763,-4.7733,-4.7795,-4.7816,-4.8152,-4.8191,-4.7955,-4.7834,-4.7609,-4.7392,-4.7258,-4.7222,-4.6936,-4.6126,-4.5684,-4.5963,-4.6062,-4.5963,-4.5988,-4.5938,-4.5641,-4.5641,-5.9946,-5.9306,-5.9289,-5.9064,-5.8782,-5.8719,-5.8677,-5.8677,-5.8677,-5.8677,-5.8677,-5.8677,-5.8677,-5.8677,-5.8677,-5.8677,-5.8677,-5.8677,-5.8677,-5.8677,-5.8677,-5.8677,-5.8677,-5.8677,-5.8677,-5.8677,-5.8677,-5.8679,-5.8456,-5.7936,-5.7249,-5.6432,-5.5614,-5.476,-5.4166,-5.3905,-5.3813,-5.3813,-5.3813,-5.3813,-5.3813,-5.3813,-5.3813,-5.3813,-5.3813,-5.3813,-5.3813,-5.3664,-5.3088,-5.1732,-5.1584,-5.1416,-5.1268,-5.0562,-5.0266,-5.0083,-4.9547,-4.9067,-4.8808,-4.8806,-4.8527,-4.8565,-4.8548,-4.8457,-4.8401,-4.8476,-4.8569,-4.8569,-4.8587,-4.8569,-4.8569,-4.8587,-4.8569,-4.855,-4.8532,-4.8248,-4.7856,-4.7674,-4.7503,-4.7066,-4.6959,-4.6976,-4.6908,-4.6908,-4.6863,-4.6537,-4.6771,-4.7026,-4.7291,-4.7506,-4.7793,-4.8014,-4.8093,-4.8209,-4.8229,-4.8248,-4.8209,-4.8287,-4.8287,-4.819,-4.819,-4.7974,-4.7671,-4.7503,-4.7399,-4.6941,-4.6175,-4.6094,-4.6442,-4.6489,-4.6411,-4.6607,-4.6747,-4.6211,-4.5963,-6.0449,-6.0057,-5.9791,-5.945,-5.9083,-5.8823,-5.8698,-5.8677,-5.8677,-5.8677,-5.8677,-5.8677,-5.8677,-5.8677,-5.8677,-5.8677,-5.8677,-5.8677,-5.8677,-5.8677,-5.8677,-5.8677,-5.8677,-5.8677,-5.8677,-5.8677,-5.8677,-5.8677,-5.8605,-5.8456,-5.8009,-5.7193,-5.6302,-5.5577,-5.4759,-5.4073,-5.3813,-5.3813,-5.3813,-5.3813,-5.3813,-5.3813,-5.3813,-5.3813,-5.3813,-5.3813,-5.3813,-5.3813,-5.3627,-5.3237,-5.2679,-5.2122,-5.1639,-5.1286,-5.112,-5.099,-5.0806,-5.0546,-5.0415,-4.9803,-4.9395,-4.9377,-4.8991,-4.8495,-4.855,-4.8624,-4.8697,-4.8697,-4.8678,-4.8623,-4.8623,-4.8587,-4.8623,-4.8605,-4.8605,-4.8532,-4.8383,-4.8249,-4.7935,-4.7591,-4.7442,-4.7313,-4.6999,-4.7022,-4.7022,-4.6976,-4.7182,-4.7446,-4.7674,-4.7935,-4.8113,-4.8324,-4.8324,-4.8324,-4.8324,-4.8324,-4.8324,-4.8324,-4.8324,-4.8324,-4.8324,-4.8248,-4.7915,-4.7713,-4.7569,-4.7008,-4.6424,-4.659,-4.6959,-4.6908,-4.6863,-4.7066,-4.7066,-4.6584,-4.6308,-6.0616,-6.0293,-6.0121,-5.9723,-5.9234,-5.9006,-5.8845,-5.8719,-5.8677,-5.8677,-5.8677,-5.8677,-5.8677,-5.8677,-5.8677,-5.8677,-5.8677,-5.8677,-5.8677,-5.8677,-5.8677,-5.8677,-5.8677,-5.8677,-5.8677,-5.8677,-5.8677,-5.8677,-5.8677,-5.8642,-5.8252,-5.749,-5.671,-5.5819,-5.502,-5.424,-5.385,-5.3813,-5.3813,-5.3813,-5.3813,-5.3813,-5.3813,-5.3813,-5.3813,-5.3813,-5.3813,-5.3813,-5.3813,-5.3701,-5.3385,-5.2995,-5.2531,-5.2159,-5.1974,-5.1899,-5.1417,-5.1232,-5.0971,-5.0711,-5.0377,-5.0358,-4.9953,-4.9603,-4.9362,-4.927,-4.9084,-4.8898,-4.8768,-4.875,-4.875,-4.875,-4.875,-4.8732,-4.8732,-4.8697,-4.866,-4.855,-4.8363,-4.8094,-4.8015,-4.7877,-4.7671,-4.7482,-4.7524,-4.7671,-4.771,-4.7935,-4.7955,-4.8152,-4.8209,-4.8324,-4.8324,-4.8324,-4.8324,-4.8324,-4.8324,-4.8324,-4.8324,-4.8324,-4.8324,-4.8229,-4.8094,-4.7917,-4.7715,-4.7442,-4.7026,-4.7288,-4.7378,-4.7356,-4.7356,-4.7464,-4.7356,-4.7004,-4.6747,-6.0629,-6.0362,-6.0321,-5.9927,-5.9413,-5.9325,-5.9121,-5.8823,-5.8782,-5.8781,-5.8677,-5.8677,-5.8677,-5.8677,-5.8677,-5.8677,-5.8677,-5.8677,-5.8677,-5.8677,-5.8677,-5.8677,-5.8677,-5.8677,-5.8677,-5.8677,-5.8677,-5.8677,-5.8677,-5.8661,-5.8401,-5.7676,-5.6915,-5.619,-5.528,-5.4444,-5.398,-5.385,-5.3813,-5.3813,-5.3813,-5.3813,-5.3813,-5.3813,-5.3813,-5.3813,-5.3813,-5.3813,-5.3813,-5.3813,-5.3813,-5.3813,-5.3645,-5.3255,-5.2791,-5.2772,-5.2178,-5.1936,-5.1805,-5.1489,-5.1285,-5.1304,-5.1139,-5.0843,-5.0306,-4.999,-4.9655,-4.9266,-4.9006,-4.8855,-4.889,-4.8855,-4.8873,-4.8891,-4.8857,-4.8822,-4.8786,-4.8696,-4.8624,-4.8476,-4.8364,-4.8231,-4.823,-4.8152,-4.8249,-4.8325,-4.8306,-4.8324,-4.8324,-4.8324,-4.8324,-4.8324,-4.8324,-4.8324,-4.8324,-4.8324,-4.8324,-4.8324,-4.8324,-4.8324,-4.8324,-4.8267,-4.8172,-4.8035,-4.7836,-4.763,-4.7609,-4.7754,-4.7816,-4.7816,-4.7816,-4.7854,-4.7671,-4.7417,-4.7093,-6.0757,-6.0678,-6.0422,-6.0237,-6.0068,-5.982,-5.9467,-5.9178,-5.9084,-5.8947,-5.8719,-5.8677,-5.8677,-5.8677,-5.8677,-5.8677,-5.8677,-5.8677,-5.8677,-5.8677,-5.8677,-5.8677,-5.8677,-5.8677,-5.8677,-5.8677,-5.8677,-5.8677,-5.8677,-5.8679,-5.8568,-5.8326,-5.7639,-5.6822,-5.5986,-5.5224,-5.4351,-5.3868,-5.3813,-5.3813,-5.3813,-5.3813,-5.3813,-5.3813,-5.3813,-5.3813,-5.3813,-5.3813,-5.3813,-5.3813,-5.3813,-5.3813,-5.3775,-5.3627,-5.3534,-5.346,-5.3292,-5.3012,-5.2955,-5.2528,-5.2268,-5.2046,-5.1732,-5.138,-5.1009,-5.0563,-5.0228,-4.9764,-4.9281,-4.8927,-4.889,-4.889,-4.889,-4.8891,-4.8891,-4.8874,-4.8874,-4.8839,-4.8767,-4.8642,-4.8605,-4.855,-4.8513,-4.8458,-4.8439,-4.8401,-4.8363,-4.8363,-4.8343,-4.8324,-4.8324,-4.8324,-4.8324,-4.8324,-4.8324,-4.8324,-4.8324,-4.8324,-4.8324,-4.8324,-4.8324,-4.8324,-4.8229,-4.8132,-4.8132,-4.8073,-4.8113,-4.8191,-4.8152,-4.8073,-4.8132,-4.819,-4.7875,-4.7545,-4.7026,-6.08,-6.0788,-6.0629,-6.0468,-6.0293,-6.015,-5.9836,-5.9521,-5.9288,-5.9103,-5.8946,-5.8782,-5.8677,-5.8677,-5.8677,-5.8677,-5.8677,-5.8677,-5.8677,-5.8677,-5.8677,-5.8677,-5.8677,-5.8677,-5.8677,-5.8677,-5.8677,-5.8677,-5.8677,-5.8677,-5.8677,-5.8512,-5.7899,-5.71,-5.6283,-5.541,-5.463,-5.3998,-5.3813,-5.3813,-5.3813,-5.3813,-5.3813,-5.3813,-5.3813,-5.3813,-5.3813,-5.3813,-5.3813,-5.3813,-5.3813,-5.3813,-5.3813,-5.3813,-5.3813,-5.3813,-5.3813,-5.3793,-5.3736,-5.3309,-5.3142,-5.3105,-5.2697,-5.2363,-5.2048,-5.1621,-5.0971,-5.0209,-4.9875,-4.9336,-4.8964,-4.8909,-4.889,-4.889,-4.889,-4.889,-4.889,-4.889,-4.882,-4.875,-4.8714,-4.866,-4.8587,-4.8569,-4.855,-4.8513,-4.8457,-4.842,-4.8382,-4.8363,-4.8343,-4.8324,-4.8324,-4.8324,-4.8324,-4.8324,-4.8324,-4.8324,-4.8324,-4.8324,-4.8324,-4.8324,-4.8324,-4.8267,-4.8305,-4.8324,-4.8305,-4.8248,-4.8287,-4.8324,-4.8267,-4.8209,-4.7955,-4.763,-4.716,-6.08,-6.08,-6.08,-6.0641,-6.0403,-6.0409,-6.0208,-5.9868,-5.957,-5.9413,-5.9289,-5.9064,-5.8905,-5.8803,-5.8739,-5.8677,-5.8677,-5.8677,-5.8677,-5.8677,-5.8677,-5.8677,-5.8677,-5.8677,-5.8677,-5.8677,-5.8677,-5.8677,-5.8677,-5.8677,-5.8677,-5.8568,-5.8011,-5.7212,-5.6357,-5.5707,-5.4779,-5.4073,-5.3813,-5.3813,-5.3813,-5.3813,-5.3813,-5.3813,-5.3813,-5.3813,-5.3813,-5.3813,-5.3813,-5.3813,-5.3813,-5.3813,-5.3813,-5.3813,-5.3813,-5.3813,-5.3813,-5.3813,-5.3794,-5.3756,-5.3645,-5.3626,-5.3757,-5.3404,-5.2977,-5.2419,-5.1825,-5.0543,-5.006,-4.9689,-4.9057,-4.889,-4.889,-4.889,-4.889,-4.889,-4.889,-4.889,-4.889,-4.8856,-4.884,-4.8786,-4.8714,-4.866,-4.8679,-4.8624,-4.8569,-4.8476,-4.8457,-4.8401,-4.8382,-4.8324,-4.8324,-4.8324,-4.8324,-4.8324,-4.8324,-4.8324,-4.8324,-4.8324,-4.8324,-4.8324,-4.8324,-4.8324,-4.8324,-4.8324,-4.8324,-4.8324,-4.8324,-4.8324,-4.8324,-4.8152,-4.7856,-4.7692,-4.7378,-6.08,-6.08,-6.08,-6.0788,-6.0734,-6.0702,-6.0546,-6.0251,-6.0146,-5.9977,-5.9706,-5.9658,-5.9433,-5.9121,-5.8825,-5.8719,-5.8677,-5.8677,-5.8677,-5.8677,-5.8677,-5.8677,-5.8677,-5.8677,-5.8677,-5.8677,-5.8677,-5.8677,-5.8677,-5.8677,-5.8677,-5.8603,-5.8475,-5.7806,-5.6395,-5.6079,-5.5336,-5.4091,-5.3813,-5.3813,-5.3813,-5.3813,-5.3813,-5.3813,-5.3813,-5.3813,-5.3813,-5.3813,-5.3813,-5.3813,-5.3813,-5.3813,-5.3813,-5.3813,-5.3813,-5.3813,-5.3813,-5.3813,-5.3813,-5.3813,-5.3813,-5.3813,-5.3813,-5.3738,-5.346,-5.294,-5.2067,-5.032,-5.0172,-4.9856,-4.9243,-4.8927,-4.8909,-4.889,-4.889,-4.889,-4.889,-4.889,-4.889,-4.889,-4.8856,-4.8874,-4.8838,-4.8804,-4.8787,-4.8751,-4.8678,-4.8606,-4.8532,-4.8476,-4.8439,-4.8401,-4.8363,-4.8363,-4.8343,-4.8343,-4.8306,-4.8324,-4.8324,-4.8324,-4.8324,-4.8324,-4.8324,-4.8324,-4.8324,-4.8324,-4.8324,-4.8324,-4.8324,-4.8324,-4.8324,-4.8035,-4.7695,-4.7591,-4.7609,-6.08,-6.08,-6.08,-6.08,-6.08,-6.08,-6.0722,-6.0559,-6.0362,-6.0223,-6.0057,-5.9855,-5.9571,-5.9233,-5.9025,-5.8867,-5.8721,-5.8719,-5.8698,-5.8698,-5.8698,-5.8698,-5.8677,-5.8677,-5.8677,-5.8677,-5.8677,-5.8677,-5.8677,-5.8677,-5.8677,-5.8677,-5.8605,-5.7881,-5.6469,-5.632,-5.5299,-5.4277,-5.3813,-5.3813,-5.3813,-5.3813,-5.3813,-5.3813,-5.3813,-5.3813,-5.3813,-5.3813,-5.3813,-5.3813,-5.3813,-5.3813,-5.3813,-5.3813,-5.3813,-5.3813,-5.3813,-5.3813,-5.3813,-5.3813,-5.3813,-5.3813,-5.3813,-5.3794,-5.372,-5.3441,-5.2828,-5.1676,-5.1101,-5.0469,-4.9652,-4.915,-4.8964,-4.889,-4.889,-4.889,-4.889,-4.889,-4.889,-4.889,-4.889,-4.889,-4.889,-4.8874,-4.884,-4.8821,-4.8768,-4.8715,-4.8642,-4.8587,-4.855,-4.8495,-4.8476,-4.8438,-4.84,-4.8381,-4.8325,-4.8306,-4.8306,-4.8306,-4.8324,-4.8324,-4.8324,-4.8324,-4.8324,-4.8324,-4.8324,-4.8324,-4.8324,-4.8324,-4.8324,-4.8093,-4.7917,-4.7995,-4.7994,-6.08,-6.08,-6.08,-6.08,-6.08,-6.08,-6.08,-6.0757,-6.0546,-6.0436,-6.0335,-6.0087,-5.9755,-5.9501,-5.9378,-5.9178,-5.8865,-5.8925,-5.8823,-5.8781,-5.8762,-5.8764,-5.87,-5.8677,-5.8677,-5.8677,-5.8677,-5.8677,-5.8677,-5.8677,-5.8677,-5.8677,-5.8677,-5.7788,-5.6729,-5.619,-5.5466,-5.398,-5.3813,-5.3813,-5.3813,-5.3813,-5.3813,-5.3813,-5.3813,-5.3813,-5.3813,-5.3813,-5.3813,-5.3813,-5.3813,-5.3813,-5.3813,-5.3813,-5.3813,-5.3813,-5.3813,-5.3813,-5.3813,-5.3813,-5.3813,-5.3813,-5.3813,-5.3813,-5.3794,-5.3794,-5.346,-5.2457,-5.2048,-5.1193,-5.0302,-4.9522,-4.9224,-4.9039,-4.889,-4.889,-4.889,-4.889,-4.889,-4.889,-4.889,-4.889,-4.889,-4.889,-4.8873,-4.8891,-4.8856,-4.8822,-4.875,-4.8678,-4.8605,-4.8569,-4.855,-4.8513,-4.8495,-4.8457,-4.8382,-4.8325,-4.8325,-4.8306,-4.8306,-4.8324,-4.8324,-4.8324,-4.8324,-4.8324,-4.8324,-4.8324,-4.8324,-4.8324,-4.8324,-4.8324,-4.8248,-4.8324,-4.8305,-6.08,-6.08,-6.08,-6.08,-6.08,-6.08,-6.08,-6.08,-6.0757,-6.0734,-6.0666,-6.0422,-6.0237,-6.0116,-5.982,-5.9537,-5.9197,-5.9556,-5.929,-5.9025,-5.8967,-5.8967,-5.8865,-5.8762,-5.87,-5.8677,-5.8677,-5.8677,-5.8677,-5.8677,-5.8677,-5.8677,-5.8677,-5.7695,-5.6673,-5.5967,-5.5243,-5.4054,-5.3813,-5.3813,-5.3813,-5.3813,-5.3813,-5.3813,-5.3813,-5.3813,-5.3813,-5.3813,-5.3813,-5.3813,-5.3813,-5.3813,-5.3813,-5.3813,-5.3813,-5.3813,-5.3813,-5.3813,-5.3813,-5.3813,-5.3813,-5.3813,-5.3813,-5.3813,-5.3813,-5.3813,-5.3404,-5.2828,-5.2494,-5.1676,-5.0748,-4.9986,-4.9577,-4.9094,-4.889,-4.889,-4.889,-4.889,-4.889,-4.889,-4.889,-4.889,-4.889,-4.889,-4.889,-4.8909,-4.8891,-4.8839,-4.8804,-4.875,-4.866,-4.8623,-4.8605,-4.8605,-4.8605,-4.855,-4.8458,-4.842,-4.8382,-4.8344,-4.8306,-4.8306,-4.8324,-4.8324,-4.8324,-4.8324,-4.8324,-4.8324,-4.8324,-4.8324,-4.8324,-4.8324,-4.8324,-4.8324,-4.8324,-6.0835,-6.0781,-6.08,-6.08,-6.08,-6.08,-6.08,-6.08,-6.08,-6.08,-6.08,-6.0654,-6.0494,-6.0327,-6.0194,-5.9899,-5.9622,-5.9708,-5.9573,-5.9504,-5.9486,-5.9344,-5.914,-5.8967,-5.8888,-5.8741,-5.8698,-5.8698,-5.8677,-5.8677,-5.8677,-5.8677,-5.8677,-5.7676,-5.6655,-5.5429,-5.4463,-5.4128,-5.3813,-5.3813,-5.3813,-5.3813,-5.3813,-5.3813,-5.3813,-5.3813,-5.3813,-5.3813,-5.3813,-5.3813,-5.3813,-5.3813,-5.3813,-5.3813,-5.3813,-5.3813,-5.3813,-5.3813,-5.3813,-5.3813,-5.3813,-5.3813,-5.3813,-5.3813,-5.3813,-5.3813,-5.372,-5.3311,-5.2865,-5.2085,-5.1231,-5.045,-4.9837,-4.9206,-4.889,-4.889,-4.889,-4.889,-4.889,-4.889,-4.889,-4.889,-4.889,-4.889,-4.889,-4.889,-4.8891,-4.8891,-4.8839,-4.8821,-4.8767,-4.8713,-4.8714,-4.8696,-4.8696,-4.8624,-4.8532,-4.8476,-4.8438,-4.8382,-4.8325,-4.8306,-4.8324,-4.8324,-4.8324,-4.8306,-4.8306,-4.8324,-4.8324,-4.8324,-4.8324,-4.8324,-4.8324,-4.8324,-4.8363,-6.0869,-6.0835,-6.0793,-6.08,-6.08,-6.08,-6.08,-6.08,-6.08,-6.08,-6.08,-6.0788,-6.0678,-6.0507,-6.0436,-6.0265,-6.0057,-6.0076,-5.995,-5.9887,-5.9823,-5.9708,-5.9502,-5.9325,-5.9215,-5.8945,-5.8825,-5.8845,-5.8716,-5.8677,-5.8677,-5.8677,-5.8605,-5.7713,-5.6283,-5.4741,-5.3813,-5.3813,-5.3813,-5.3813,-5.3813,-5.3813,-5.3813,-5.3813,-5.3813,-5.3813,-5.3813,-5.3813,-5.3813,-5.3813,-5.3813,-5.3813,-5.3813,-5.3813,-5.3813,-5.3813,-5.3813,-5.3813,-5.3813,-5.3813,-5.3813,-5.3813,-5.3813,-5.3813,-5.3813,-5.3813,-5.3738,-5.372,-5.3218,-5.2605,-5.1806,-5.1119,-5.032,-4.9689,-4.9002,-4.889,-4.889,-4.889,-4.889,-4.889,-4.889,-4.889,-4.889,-4.889,-4.889,-4.889,-4.889,-4.889,-4.8873,-4.8874,-4.8855,-4.882,-4.882,-4.8804,-4.8787,-4.8732,-4.8678,-4.8532,-4.8457,-4.8382,-4.8344,-4.8325,-4.8324,-4.8324,-4.8306,-4.8306,-4.8344,-4.8382,-4.8363,-4.8306,-4.8343,-4.8382,-4.8401,-4.842,-4.8439,-6.0911,-6.088,-6.0835,-6.0781,-6.0781,-6.08,-6.08,-6.08,-6.08,-6.08,-6.08,-6.08,-6.08,-6.0746,-6.069,-6.0546,-6.0409,-6.0533,-6.0436,-6.0106,-6.0175,-6.0072,-5.9887,-5.9741,-5.9571,-5.927,-5.9122,-5.8966,-5.8779,-5.8698,-5.8698,-5.8568,-5.8345,-5.7676,-5.6246,-5.4648,-5.3868,-5.3813,-5.3813,-5.3813,-5.3813,-5.3813,-5.3813,-5.3813,-5.3813,-5.3813,-5.3813,-5.3813,-5.3813,-5.3813,-5.3813,-5.3813,-5.3813,-5.3813,-5.3813,-5.3813,-5.3813,-5.3813,-5.3813,-5.3813,-5.3813,-5.3813,-5.3813,-5.3813,-5.3813,-5.3813,-5.3813,-5.3775,-5.3645,-5.3255,-5.2587,-5.1788,-5.0878,-5.0042,-4.9336,-4.889,-4.889,-4.889,-4.889,-4.889,-4.889,-4.889,-4.889,-4.889,-4.889,-4.889,-4.889,-4.889,-4.889,-4.889,-4.889,-4.8873,-4.8874,-4.8856,-4.8839,-4.8856,-4.8786,-4.8642,-4.8495,-4.8458,-4.842,-4.8401,-4.8363,-4.8325,-4.8363,-4.842,-4.8457,-4.8476,-4.8438,-4.842,-4.8457,-4.8494,-4.8495,-4.8495,-4.8513,-6.0948,-6.0911,-6.0869,-6.0835,-6.08,-6.08,-6.08,-6.08,-6.08,-6.08,-6.08,-6.08,-6.08,-6.08,-6.08,-6.0734,-6.0678,-6.0678,-6.0546,-6.052,-6.0559,-6.0395,-6.0223,-6.0076,-5.9918,-5.9605,-5.9379,-5.9159,-5.9064,-5.8825,-5.8698,-5.8568,-5.7852,-5.6859,-5.5986,-5.4779,-5.3813,-5.3813,-5.3813,-5.3813,-5.3813,-5.3813,-5.3813,-5.3813,-5.3813,-5.3813,-5.3813,-5.3813,-5.3813,-5.3813,-5.3813,-5.3813,-5.3813,-5.3813,-5.3813,-5.3813,-5.3813,-5.3813,-5.3813,-5.3813,-5.3813,-5.3813,-5.3813,-5.3813,-5.3813,-5.3813,-5.3813,-5.3813,-5.3813,-5.3385,-5.2661,-5.1862,-5.0989,-5.0135,-4.9485,-4.9039,-4.889,-4.889,-4.889,-4.889,-4.889,-4.889,-4.889,-4.889,-4.889,-4.889,-4.889,-4.889,-4.889,-4.889,-4.889,-4.889,-4.8873,-4.8891,-4.8891,-4.8874,-4.8839,-4.8697,-4.8606,-4.855,-4.8514,-4.8458,-4.8476,-4.8458,-4.8495,-4.8532,-4.8569,-4.8569,-4.855,-4.855,-4.8587,-4.8587,-4.8587,-4.8587,-4.8587,-6.0981,-6.0938,-6.0924,-6.0891,-6.0835,-6.0812,-6.08,-6.08,-6.08,-6.08,-6.08,-6.08,-6.08,-6.08,-6.08,-6.08,-6.08,-6.08,-6.08,-6.08,-6.0781,-6.0559,-6.0382,-6.0265,-5.9931,-5.9673,-5.9379,-5.9178,-5.8947,-5.8803,-5.8784,-5.8495,-5.7397,-5.6874,-5.6033,-5.4931,-5.3813,-5.3813,-5.3813,-5.3813,-5.3813,-5.3813,-5.3813,-5.3813,-5.3813,-5.3813,-5.3813,-5.3813,-5.3813,-5.3813,-5.3813,-5.3813,-5.3813,-5.3813,-5.3813,-5.3813,-5.3813,-5.3813,-5.3813,-5.3813,-5.3813,-5.3813,-5.3813,-5.3813,-5.3813,-5.3813,-5.3813,-5.3813,-5.3813,-5.3553,-5.2995,-5.2159,-5.1212,-5.0376,-4.9652,-4.9206,-4.889,-4.889,-4.889,-4.889,-4.889,-4.889,-4.889,-4.889,-4.889,-4.889,-4.889,-4.889,-4.889,-4.889,-4.889,-4.889,-4.8873,-4.8874,-4.8874,-4.8875,-4.8822,-4.8751,-4.8696,-4.8641,-4.8569,-4.8532,-4.855,-4.8587,-4.8569,-4.8587,-4.866,-4.8678,-4.8678,-4.8696,-4.8732,-4.8732,-4.8697,-4.8678,-4.8678,-6.1002,-6.0992,-6.0999,-6.0946,-6.09,-6.0823,-6.08,-6.08,-6.08,-6.08,-6.08,-6.08,-6.08,-6.08,-6.08,-6.08,-6.08,-6.08,-6.08,-6.08,-6.08,-6.0591,-6.0468,-6.0354,-6.0112,-5.9601,-5.9342,-5.9379,-5.8865,-5.8925,-5.9064,-5.8858,-5.7808,-5.7154,-5.6267,-5.5134,-5.4075,-5.3851,-5.3813,-5.3813,-5.3813,-5.3851,-5.3851,-5.3851,-5.3851,-5.3851,-5.3832,-5.3813,-5.3813,-5.3813,-5.3813,-5.3813,-5.3813,-5.3813,-5.3813,-5.3813,-5.3813,-5.3813,-5.3813,-5.3813,-5.3813,-5.3813,-5.3813,-5.3813,-5.3813,-5.3813,-5.3813,-5.3813,-5.3813,-5.3813,-5.3571,-5.2549,-5.1528,-5.0692,-4.9837,-4.9373,-4.9002,-4.889,-4.889,-4.889,-4.889,-4.889,-4.889,-4.889,-4.889,-4.889,-4.889,-4.889,-4.889,-4.889,-4.889,-4.889,-4.8891,-4.8856,-4.8856,-4.8856,-4.8839,-4.8786,-4.8786,-4.875,-4.8678,-4.8641,-4.8678,-4.8678,-4.8641,-4.8641,-4.8732,-4.8821,-4.8838,-4.8855,-4.8839,-4.8821,-4.8786,-4.8821,-4.882,-6.1032,-6.1002,-6.1011,-6.0969,-6.0891,-6.0835,-6.08,-6.08,-6.08,-6.08,-6.08,-6.08,-6.08,-6.08,-6.08,-6.08,-6.08,-6.08,-6.08,-6.08,-6.08,-6.0734,-6.0654,-6.0572,-6.0462,-6.0274,-6.0038,-5.9769,-5.9772,-5.9624,-5.9469,-5.9393,-5.8082,-5.7447,-5.6557,-5.539,-5.4546,-5.3981,-5.3889,-5.3907,-5.3944,-5.4054,-5.3999,-5.3981,-5.4089,-5.4054,-5.3926,-5.3851,-5.3832,-5.3813,-5.3794,-5.3813,-5.3813,-5.3813,-5.3813,-5.3813,-5.3813,-5.3813,-5.3813,-5.3813,-5.3813,-5.3813,-5.3813,-5.3813,-5.3813,-5.3813,-5.3813,-5.3813,-5.3813,-5.3813,-5.3608,-5.281,-5.1992,-5.1268,-5.0376,-4.9633,-4.9243,-4.8964,-4.8946,-4.889,-4.889,-4.889,-4.889,-4.889,-4.889,-4.889,-4.889,-4.889,-4.889,-4.889,-4.889,-4.889,-4.8873,-4.8874,-4.8874,-4.8891,-4.8874,-4.8856,-4.8856,-4.8839,-4.8803,-4.8767,-4.8803,-4.8785,-4.8731,-4.8785,-4.8856,-4.8891,-4.889,-4.889,-4.8855,-4.8874,-4.8892,-4.8891,-4.889,-6.108,-6.1032,-6.1051,-6.0991,-6.0944,-6.0888,-6.0823,-6.08,-6.08,-6.08,-6.08,-6.08,-6.08,-6.08,-6.08,-6.08,-6.08,-6.08,-6.08,-6.08,-6.08,-6.0666,-6.0654,-6.0597,-6.0436,-6.0395,-6.0251,-5.9965,-6.0102,-6.0078,-5.9939,-5.933,-5.813,-5.752,-5.6716,-5.566,-5.4829,-5.4413,-5.421,-5.4194,-5.4264,-5.4364,-5.4296,-5.4264,-5.4432,-5.4332,-5.4177,-5.4089,-5.4,-5.3944,-5.3926,-5.3813,-5.3813,-5.3813,-5.3813,-5.3813,-5.3813,-5.3813,-5.3813,-5.3813,-5.3813,-5.3813,-5.3813,-5.3813,-5.3813,-5.3813,-5.3813,-5.3813,-5.3813,-5.3757,-5.346,-5.3088,-5.2512,-5.1918,-5.0933,-4.9931,-4.9503,-4.9113,-4.8983,-4.8909,-4.889,-4.889,-4.889,-4.889,-4.889,-4.889,-4.889,-4.889,-4.889,-4.889,-4.889,-4.889,-4.889,-4.8873,-4.889,-4.889,-4.8873,-4.8891,-4.8873,-4.8873,-4.889,-4.8873,-4.8855,-4.8855,-4.8873,-4.8891,-4.8891,-4.8891,-4.889,-4.889,-4.889,-4.8891,-4.8891,-4.8891,-4.889,-6.1099,-6.1089,-6.1089,-6.1051,-6.0978,-6.0924,-6.0869,-6.0823,-6.0823,-6.0812,-6.0812,-6.08,-6.08,-6.08,-6.08,-6.08,-6.08,-6.08,-6.08,-6.08,-6.08,-6.0678,-6.0514,-6.0349,-6.0422,-6.0087,-5.9965,-6.0175,-6.0034,-5.9951,-5.9666,-5.9016,-5.8296,-5.7568,-5.669,-5.5823,-5.5164,-5.4947,-5.4832,-5.4802,-5.4746,-5.4791,-5.4821,-5.4761,-5.4791,-5.4791,-5.4685,-5.4511,-5.4279,-5.4177,-5.4018,-5.3832,-5.3813,-5.3813,-5.3813,-5.3851,-5.387,-5.3851,-5.387,-5.3889,-5.3851,-5.3832,-5.3813,-5.3813,-5.3813,-5.3813,-5.3813,-5.3813,-5.3813,-5.3813,-5.359,-5.3348,-5.2884,-5.2327,-5.1546,-5.058,-4.9875,-4.9392,-4.8946,-4.889,-4.889,-4.889,-4.889,-4.889,-4.889,-4.889,-4.889,-4.889,-4.889,-4.889,-4.889,-4.889,-4.889,-4.889,-4.889,-4.889,-4.889,-4.889,-4.889,-4.889,-4.889,-4.889,-4.889,-4.889,-4.889,-4.889,-4.889,-4.889,-4.889,-4.889,-4.889,-4.889,-4.889,-4.889,-4.889,-6.1099,-6.1089,-6.1041,-6.1002,-6.1001,-6.0997,-6.0965,-6.0955,-6.0955,-6.09,-6.0812,-6.08,-6.08,-6.0812,-6.08,-6.08,-6.08,-6.08,-6.08,-6.08,-6.08,-6.0757,-6.0666,-6.0597,-6.0572,-6.0616,-6.0559,-6.0437,-6.0245,-5.9951,-5.9578,-5.9137,-5.8223,-5.7128,-5.6706,-5.5919,-5.5516,-5.5369,-5.5369,-5.5172,-5.4952,-5.5042,-5.5111,-5.5009,-5.4981,-5.5028,-5.4851,-5.4511,-5.4347,-5.4246,-5.3963,-5.3851,-5.3813,-5.3813,-5.3813,-5.3851,-5.4054,-5.4054,-5.3999,-5.4054,-5.409,-5.3907,-5.3832,-5.3813,-5.3813,-5.3813,-5.3813,-5.3813,-5.3813,-5.3813,-5.3757,-5.3515,-5.3274,-5.2717,-5.2141,-5.1193,-5.0246,-4.9577,-4.8983,-4.889,-4.889,-4.889,-4.889,-4.889,-4.889,-4.889,-4.889,-4.889,-4.889,-4.889,-4.889,-4.889,-4.889,-4.889,-4.889,-4.889,-4.889,-4.889,-4.889,-4.889,-4.889,-4.889,-4.889,-4.889,-4.889,-4.889,-4.889,-4.889,-4.889,-4.889,-4.889,-4.889,-4.889,-4.889,-4.889,-6.0228,-6.0596,-6.0916,-6.1022,-6.1002,-6.101,-6.0999,-6.1017,-6.1006,-6.0955,-6.09,-6.0877,-6.0866,-6.0835,-6.0812,-6.0812,-6.08,-6.08,-6.08,-6.08,-6.08,-6.08,-6.08,-6.08,-6.0757,-6.08,-6.0762,-6.0604,-6.0185,-5.98,-5.9327,-5.8492,-5.733,-5.6791,-5.6503,-5.5925,-5.5695,-5.5673,-5.5695,-5.5508,-5.5172,-5.532,-5.5413,-5.5301,-5.5288,-5.5282,-5.5023,-5.4682,-5.4444,-5.433,-5.4125,-5.4194,-5.4246,-5.4315,-5.4281,-5.4315,-5.4416,-5.443,-5.433,-5.433,-5.4366,-5.4142,-5.4194,-5.4298,-5.387,-5.387,-5.3926,-5.3926,-5.3832,-5.3813,-5.3813,-5.3645,-5.359,-5.3255,-5.2531,-5.1676,-5.0506,-4.9466,-4.9057,-4.889,-4.889,-4.889,-4.889,-4.889,-4.889,-4.889,-4.889,-4.889,-4.889,-4.889,-4.889,-4.889,-4.889,-4.889,-4.889,-4.889,-4.889,-4.889,-4.889,-4.889,-4.889,-4.889,-4.889,-4.889,-4.889,-4.889,-4.889,-4.889,-4.889,-4.889,-4.889,-4.889,-4.889,-4.889,-4.889,-5.9096,-5.9803,-6.0596,-6.0896,-6.0906,-6.0973,-6.1031,-6.1018,-6.1018,-6.0999,-6.1008,-6.0935,-6.0914,-6.09,-6.0877,-6.0835,-6.0823,-6.0835,-6.0823,-6.08,-6.08,-6.08,-6.08,-6.08,-6.0666,-6.0531,-6.0454,-5.9935,-5.9338,-5.8934,-5.8234,-5.7176,-5.6744,-5.6475,-5.5925,-5.5695,-5.5724,-5.5705,-5.5705,-5.5724,-5.5703,-5.5684,-5.5651,-5.5662,-5.5673,-5.5554,-5.532,-5.5037,-5.4697,-5.456,-5.4446,-5.4495,-5.4591,-5.4639,-5.467,-5.4719,-5.4791,-5.4791,-5.4746,-5.4776,-5.4639,-5.4528,-5.4716,-5.4591,-5.4123,-5.4052,-5.4105,-5.4015,-5.3907,-5.3776,-5.3776,-5.3758,-5.372,-5.3478,-5.2735,-5.1936,-5.0634,-4.9428,-4.9113,-4.889,-4.889,-4.889,-4.889,-4.889,-4.889,-4.889,-4.889,-4.889,-4.889,-4.889,-4.889,-4.889,-4.889,-4.889,-4.889,-4.889,-4.889,-4.889,-4.889,-4.889,-4.889,-4.889,-4.889,-4.889,-4.889,-4.889,-4.889,-4.889,-4.889,-4.889,-4.889,-4.889,-4.889,-4.889,-4.889,-5.8681,-5.8913,-5.9764,-6.0103,-6.02,-6.077,-6.108,-6.109,-6.1022,-6.107,-6.0916,-6.0973,-6.099,-6.0957,-6.0965,-6.0944,-6.088,-6.088,-6.0835,-6.0812,-6.065,-6.0716,-6.0619,-6.0296,-6.0235,-6.0004,-5.9688,-5.9254,-5.8602,-5.7937,-5.7429,-5.6999,-5.6258,-5.6008,-5.5931,-5.5796,-5.5776,-5.5776,-5.5776,-5.5776,-5.5756,-5.5745,-5.5714,-5.5684,-5.5684,-5.5662,-5.5543,-5.5332,-5.5204,-5.505,-5.4866,-5.4821,-5.4866,-5.4924,-5.4924,-5.4995,-5.5111,-5.5083,-5.505,-5.5119,-5.4976,-5.4773,-5.4876,-5.479,-5.4525,-5.4481,-5.4427,-5.422,-5.4044,-5.3757,-5.3684,-5.3628,-5.3553,-5.3126,-5.2493,-5.1577,-5.0507,-4.957,-4.8964,-4.889,-4.889,-4.889,-4.889,-4.889,-4.889,-4.889,-4.889,-4.889,-4.8976,-4.8942,-4.8907,-4.8942,-4.8959,-4.889,-4.889,-4.889,-4.889,-4.889,-4.889,-4.889,-4.889,-4.889,-4.889,-4.889,-4.889,-4.889,-4.889,-4.889,-4.889,-4.889,-4.889,-4.889,-4.889,-4.889,-4.889]},{"header":{"parameterUnit":"m.s-1","parameterCategory":1,"la1":31.0,"la2":29.5877,"lo1":-88.7671,"lo2":-86.6584,"dy":0.0162,"dx":0.0185,"nx":115,"ny":88,"refTime":"2023-11-03T06:00:00:Z","depth":0,"parameterNumber":3,"parameterNumberName":"V-component_of_WINDS"},"data":[0.0,0.0,0.0,0.0,0.0,0.0,0.0,0.0,0.0,0.0,0.0,0.0,0.0,0.0,0.0,0.0,0.0,0.0,0.0,0.0,0.0,0.0,0.0,0.0,0.0,0.0,0.0,0.0,0.0,0.0,0.0,0.0,0.0,0.0,0.0,0.0,0.0,0.0,0.0,0.0,0.0,0.0,0.0,0.0,0.0,0.0,0.0,0.0,0.0,0.0,0.0,0.0,0.0,0.0,0.0,0.0,0.0,0.0,0.0,0.0,0.0,0.0,0.0,0.0,0.0,0.0,0.0,0.0,0.0,0.0,0.0,0.0,0.0,0.0,0.0,0.0,0.0,0.0,0.0,0.0,0.0,0.0,0.0,0.0,0.0,0.0,0.0,0.0,0.0,0.0,0.0,0.0,0.0,0.0,0.0,0.0,0.0,0.0,0.0,0.0,0.0,0.0,0.0,0.0,0.0,0.0,0.0,0.0,0.0,0.0,0.0,0.0,0.0,0.0,0.0,0.0,0.0,0.0,0.0,0.0,0.0,0.0,0.0,0.0,0.0,0.0,0.0,0.0,0.0,0.0,0.0,0.0,0.0,0.0,0.0,0.0,0.0,0.0,0.0,0.0,0.0,0.0,0.0,0.0,0.0,0.0,0.0,0.0,0.0,0.0,0.0,0.0,0.0,0.0,0.0,0.0,0.0,0.0,0.0,0.0,0.0,0.0,0.0,0.0,0.0,0.0,0.0,0.0,0.0,0.0,0.0,0.0,0.0,0.0,0.0,0.0,0.0,0.0,0.0,0.0,0.0,0.0,0.0,0.0,0.0,0.0,0.0,0.0,0.0,0.0,0.0,0.0,0.0,0.0,0.0,0.0,0.0,0.0,0.0,0.0,0.0,0.0,0.0,0.0,0.0,0.0,0.0,0.0,0.0,0.0,0.0,0.0,0.0,0.0,0.0,0.0,0.0,0.0,0.0,0.0,0.0,0.0,0.0,0.0,0.0,0.0,0.0,0.0,0.0,0.0,0.0,0.0,0.0,0.0,0.0,0.0,0.0,0.0,0.0,0.0,0.0,0.0,0.0,0.0,0.0,0.0,0.0,0.0,0.0,0.0,0.0,0.0,0.0,0.0,0.0,0.0,0.0,0.0,0.0,0.0,0.0,0.0,0.0,0.0,0.0,0.0,0.0,0.0,0.0,0.0,0.0,0.0,0.0,0.0,0.0,0.0,0.0,0.0,0.0,0.0,0.0,0.0,0.0,0.0,0.0,0.0,0.0,0.0,0.0,0.0,0.0,0.0,0.0,0.0,0.0,0.0,0.0,0.0,0.0,0.0,0.0,0.0,0.0,0.0,0.0,0.0,0.0,0.0,0.0,0.0,0.0,0.0,0.0,0.0,0.0,0.0,0.0,0.0,0.0,0.0,0.0,0.0,0.0,0.0,0.0,0.0,0.0,0.0,0.0,0.0,0.0,0.0,0.0,0.0,0.0,0.0,0.0,0.0,0.0,0.0,0.0,0.0,0.0,0.0,0.0,0.0,0.0,0.0,0.0,0.0,0.0,0.0,0.0,0.0,0.0,0.0,0.0,0.0,0.0,0.0,0.0,0.0,0.0,0.0,0.0,0.0,0.0,0.0,0.0,0.0,0.0,0.0,0.0,0.0,0.0,0.0,0.0,0.0,0.0,0.0,0.0,0.0,0.0,0.0,0.0,0.0,0.0,0.0,0.0,0.0,0.0,0.0,0.0,0.0,0.0,0.0,0.0,0.0,0.0,0.0,0.0,0.0,0.0,0.0,0.0,0.0,0.0,0.0,0.0,0.0,0.0,0.0,0.0,0.0,0.0,0.0,0.0,0.0,0.0,0.0,0.0,0.0,0.0,0.0,0.0,0.0,0.0,0.0,0.0,0.0,0.0,0.0,0.0,0.0,0.0,0.0,0.0,0.0,0.0,0.0,0.0,0.0,0.0,0.0,0.0,0.0,0.0,0.0,0.0,0.0,0.0,0.0,0.0,0.0,0.0,0.0,0.0,0.0,0.0,0.0,0.0,0.0,0.0,0.0,0.0,0.0,0.0,0.0,0.0,0.0,0.0,0.0,0.0,0.0,0.0,0.0,0.0,0.0,0.0,0.0,0.0,0.0,0.0,0.0,0.0,0.0,0.0,0.0,0.0,0.0,0.0,0.0,0.0,0.0,0.0,0.0,0.0,0.0,0.0,0.0,0.0,0.0,0.0,0.0,0.0,0.0,0.0,0.0,0.0,0.0,0.0,0.0,0.0,0.0,0.0,0.0,0.0,0.0,0.0,0.0,0.0,0.0,0.0,0.0,0.0,0.0,0.0,0.0,0.0,0.0,0.0,0.0,0.0,0.0,0.0,0.0,0.0,0.0,0.0,0.0,0.0,0.0,0.0,0.0,0.0,0.0,0.0,0.0,0.0,0.0,0.0,0.0,0.0,0.0,0.0,0.0,0.0,0.0,0.0,0.0,0.0,0.0,0.0,0.0,0.0,0.0,0.0,0.0,0.0,0.0,0.0,0.0,0.0,0.0,0.0,0.0,0.0,0.0,0.0,0.0,0.0,0.0,0.0,0.0,0.0,0.0,0.0,0.0,0.0,0.0,0.0,0.0,0.0,0.0,0.0,0.0,0.0,0.0,0.0,0.0,0.0,0.0,0.0,0.0,0.0,0.0,0.0,0.0,0.0,0.0,0.0,0.0,0.0,0.0,0.0,0.0,0.0,0.0,0.0,0.0,0.0,0.0,0.0,0.0,0.0,0.0,0.0,0.0,0.0,0.0,0.0,0.0,0.0,0.0,0.0,0.0,0.0,0.0,0.0,0.0,0.0,0.0,0.0,0.0,0.0,0.0,0.0,0.0,0.0,0.0,0.0,0.0,0.0,0.0,0.0,0.0,0.0,0.0,0.0,0.0,0.0,0.0,0.0,0.0,0.0,0.0,0.0,0.0,0.0,0.0,0.0,0.0,0.0,0.0,0.0,0.0,0.0,0.0,0.0,0.0,0.0,0.0,0.0,0.0,0.0,0.0,0.0,0.0,0.0,0.0,0.0,0.0,0.0,0.0,0.0,0.0,0.0,0.0,0.0,0.0,0.0,0.0,0.0,0.0,0.0,0.0,0.0,0.0,0.0,0.0,0.0,0.0,0.0,0.0,0.0,0.0,0.0,0.0,0.0,0.0,0.0,0.0,0.0,0.0,0.0,0.0,0.0,0.0,0.0,0.0,0.0,0.0,0.0,0.0,0.0,0.0,0.0,0.0,0.0,0.0,0.0,0.0,0.0,0.0,0.0,0.0,0.0,0.0,0.0,0.0,0.0,0.0,0.0,0.0,0.0,0.0,0.0,0.0,0.0,0.0,0.0,0.0,0.0,0.0,0.0,0.0,0.0,0.0,0.0,0.0,0.0,0.0,0.0,0.0,0.0,0.0,0.0,0.0,0.0,0.0,0.0,0.0,0.0,0.0,0.0,0.0,0.0,0.0,0.0,0.0,0.0,0.0,0.0,0.0,0.0,0.0,0.0,0.0,0.0,0.0,0.0,0.0,0.0,0.0,0.0,0.0,0.0,0.0,0.0,0.0,0.0,0.0,0.0,0.0,0.0,0.0,0.0,0.0,0.0,0.0,0.0,0.0,0.0,0.0,0.0,0.0,0.0,0.0,0.0,0.0,0.0,0.0,0.0,0.0,0.0,0.0,0.0,0.0,0.0,0.0,0.0,0.0,0.0,0.0,0.0,0.0,0.0,0.0,0.0,0.0,0.0,0.0,0.0,0.0,0.0,0.0,0.0,0.0,0.0,0.0,0.0,0.0,0.0,0.0,0.0,0.0,0.0,0.0,0.0,0.0,0.0,0.0,0.0,0.0,0.0,0.0,0.0,0.0,0.0,0.0,0.0,0.0,0.0,0.0,0.0,0.0,0.0,0.0,0.0,0.0,0.0,0.0,0.0,0.0,0.0,0.0,0.0,0.0,0.0,0.0,0.0,0.0,0.0,0.0,0.0,0.0,0.0,0.0,0.0,0.0,0.0,0.0,0.0,0.0,0.0,0.0,0.0,0.0,0.0,0.0,0.0,0.0,0.0,0.0,0.0,0.0,0.0,0.0,0.0,0.0,0.0,0.0,0.0,0.0,0.0,0.0,0.0,0.0,0.0,0.0,0.0,0.0,0.0,0.0,0.0,0.0,0.0,0.0,0.0,0.0,0.0,0.0,0.0,0.0,0.0,0.0,0.0,0.0,0.0,0.0,0.0,0.0,0.0,0.0,0.0,0.0,-1.259,0.0,0.0,0.0,0.0,0.0,0.0,0.0,0.0,0.0,0.0,0.0,0.0,0.0,0.0,0.0,0.0,0.0,0.0,0.0,0.0,0.0,0.0,0.0,0.0,0.0,0.0,0.0,0.0,0.0,0.0,0.0,0.0,0.0,0.0,0.0,0.0,0.0,0.0,0.0,0.0,0.0,0.0,0.0,0.0,0.0,0.0,0.0,0.0,0.0,0.0,0.0,0.0,0.0,0.0,0.0,0.0,0.0,0.0,0.0,0.0,0.0,0.0,0.0,0.0,0.0,0.0,0.0,0.0,0.0,0.0,0.0,0.0,0.0,0.0,0.0,0.0,0.0,0.0,0.0,0.0,0.0,0.0,0.0,0.0,0.0,0.0,0.0,0.0,0.0,0.0,0.0,0.0,0.0,0.0,0.0,0.0,0.0,0.0,0.0,0.0,0.0,0.0,0.0,0.0,0.0,0.0,0.0,0.0,0.0,0.0,-1.3894,-1.3785,-1.3735,-1.3523,-1.3138,0.0,0.0,0.0,0.0,0.0,0.0,0.0,0.0,0.0,0.0,0.0,0.0,0.0,0.0,0.0,0.0,0.0,0.0,0.0,0.0,0.0,0.0,0.0,0.0,0.0,0.0,0.0,0.0,0.0,0.0,0.0,0.0,0.0,0.0,0.0,0.0,0.0,0.0,0.0,0.0,0.0,0.0,0.0,0.0,0.0,0.0,0.0,0.0,0.0,0.0,0.0,0.0,0.0,0.0,0.0,0.0,0.0,0.0,0.0,0.0,0.0,0.0,0.0,0.0,0.0,0.0,0.0,0.0,0.0,0.0,0.0,0.0,0.0,0.0,0.0,0.0,0.0,0.0,0.0,0.0,0.0,0.0,0.0,0.0,0.0,0.0,0.0,0.0,0.0,0.0,0.0,0.0,0.0,0.0,0.0,0.0,0.0,0.0,0.0,0.0,0.0,0.0,0.0,0.0,0.0,0.0,0.0,0.0,0.0,0.0,0.0,0.0,-1.4062,-1.3976,-1.3789,0.0,0.0,0.0,0.0,0.0,0.0,0.0,0.0,0.0,0.0,0.0,0.0,0.0,0.0,0.0,0.0,0.0,0.0,0.0,0.0,0.0,0.0,0.0,0.0,0.0,0.0,0.0,0.0,0.0,0.0,0.0,0.0,0.0,0.0,0.0,0.0,0.0,0.0,0.0,0.0,0.0,0.0,0.0,0.0,0.0,0.0,0.0,0.0,0.0,0.0,0.0,0.0,0.0,0.0,0.0,0.0,0.0,0.0,0.0,0.0,0.0,0.0,0.0,0.0,0.0,0.0,0.0,0.0,0.0,0.0,0.0,0.0,0.0,0.0,0.0,0.0,0.0,0.0,0.0,0.0,0.0,0.0,0.0,0.0,0.0,0.0,0.0,0.0,0.0,0.0,0.0,0.0,0.0,0.0,0.0,0.0,0.0,0.0,0.0,0.0,0.0,0.0,0.0,0.0,0.0,0.0,0.0,0.0,0.0,0.0,-1.4268,-1.4173,-1.4222,0.0,-1.457,0.0,0.0,0.0,0.0,0.0,0.0,0.0,0.0,0.0,0.0,0.0,0.0,0.0,0.0,0.0,0.0,0.0,0.0,0.0,0.0,0.0,0.0,0.0,0.0,0.0,0.0,0.0,0.0,0.0,0.0,0.0,0.0,0.0,0.0,0.0,0.0,0.0,0.0,0.0,0.0,0.0,0.0,0.0,0.0,0.0,0.0,0.0,0.0,0.0,0.0,0.0,0.0,0.0,0.0,0.0,0.0,0.0,0.0,0.0,0.0,0.0,0.0,0.0,0.0,0.0,0.0,0.0,0.0,0.0,0.0,0.0,0.0,0.0,0.0,0.0,0.0,0.0,0.0,0.0,0.0,0.0,0.0,0.0,0.0,0.0,0.0,0.0,0.0,0.0,0.0,0.0,0.0,0.0,0.0,0.0,0.0,0.0,0.0,0.0,0.0,0.0,0.0,0.0,0.0,0.0,0.0,0.0,0.0,0.0,0.0,-1.4319,-1.4268,-1.4353,-1.4467,0.0,0.0,0.0,0.0,0.0,0.0,0.0,0.0,0.0,0.0,0.0,0.0,0.0,0.0,0.0,0.0,0.0,0.0,0.0,0.0,0.0,0.0,0.0,0.0,0.0,0.0,0.0,0.0,0.0,0.0,0.0,0.0,0.0,0.0,0.0,0.0,0.0,0.0,0.0,0.0,0.0,0.0,0.0,0.0,0.0,0.0,0.0,0.0,0.0,0.0,0.0,0.0,0.0,0.0,0.0,0.0,0.0,0.0,0.0,0.0,0.0,0.0,0.0,0.0,0.0,0.0,0.0,0.0,0.0,0.0,0.0,0.0,0.0,0.0,0.0,0.0,0.0,0.0,0.0,0.0,0.0,0.0,0.0,0.0,0.0,0.0,0.0,0.0,0.0,0.0,0.0,0.0,0.0,0.0,0.0,0.0,0.0,0.0,0.0,0.0,0.0,0.0,0.0,0.0,0.0,0.0,0.0,0.0,0.0,0.0,-1.4433,-1.4367,-1.4349,-1.4417,-1.443,-1.4313,0.0,0.0,0.0,0.0,0.0,0.0,0.0,0.0,0.0,0.0,0.0,0.0,0.0,0.0,0.0,0.0,0.0,0.0,0.0,0.0,0.0,0.0,0.0,0.0,0.0,0.0,0.0,0.0,0.0,0.0,0.0,0.0,0.0,0.0,0.0,0.0,0.0,0.0,0.0,0.0,0.0,0.0,0.0,0.0,0.0,0.0,0.0,0.0,0.0,0.0,0.0,0.0,0.0,0.0,0.0,0.0,0.0,0.0,0.0,0.0,0.0,0.0,0.0,0.0,0.0,0.0,0.0,0.0,0.0,0.0,0.0,0.0,0.0,0.0,0.0,0.0,0.0,0.0,0.0,0.0,0.0,0.0,0.0,0.0,0.0,0.0,0.0,0.0,0.0,0.0,0.0,0.0,0.0,0.0,0.0,0.0,0.0,0.0,0.0,0.0,0.0,0.0,0.0,0.0,0.0,0.0,0.0,0.0,-1.4501,-1.4433,-1.4397,-1.4397,-1.4397,-1.4218,0.0,0.0,0.0,0.0,0.0,0.0,0.0,0.0,0.0,0.0,0.0,0.0,0.0,0.0,0.0,0.0,0.0,0.0,0.0,0.0,0.0,0.0,0.0,0.0,0.0,0.0,0.0,0.0,0.0,0.0,0.0,0.0,0.0,0.0,0.0,0.0,0.0,0.0,0.0,0.0,0.0,0.0,0.0,0.0,0.0,0.0,0.0,0.0,0.0,0.0,0.0,0.0,0.0,0.0,0.0,0.0,0.0,0.0,0.0,0.0,0.0,0.0,0.0,0.0,0.0,0.0,0.0,0.0,0.0,0.0,0.0,0.0,0.0,0.0,0.0,0.0,0.0,0.0,0.0,0.0,0.0,0.0,0.0,0.0,0.0,0.0,0.0,0.0,0.0,0.0,0.0,0.0,0.0,0.0,0.0,0.0,0.0,0.0,0.0,0.0,0.0,0.0,0.0,0.0,0.0,0.0,0.0,0.0,0.0,-1.4383,-1.4225,-1.4146,-1.4146,-1.4254,-1.4078,0.0,0.0,0.0,0.0,0.0,0.0,0.0,0.0,0.0,0.0,0.0,0.0,0.0,0.0,0.0,0.0,0.0,0.0,0.0,0.0,0.0,0.0,0.0,0.0,0.0,0.0,0.0,0.0,0.0,0.0,0.0,0.0,0.0,0.0,0.0,0.0,0.0,0.0,0.0,0.0,0.0,0.0,0.0,0.0,0.0,0.0,0.0,0.0,0.0,0.0,0.0,0.0,0.0,0.0,0.0,0.0,0.0,0.0,0.0,0.0,0.0,0.0,0.0,0.0,0.0,0.0,0.0,0.0,0.0,0.0,0.0,0.0,0.0,0.0,0.0,0.0,0.0,0.0,0.0,0.0,0.0,0.0,0.0,0.0,0.0,0.0,0.0,0.0,0.0,0.0,0.0,0.0,0.0,0.0,0.0,0.0,0.0,0.0,0.0,0.0,0.0,0.0,0.0,0.0,0.0,0.0,0.0,0.0,0.0,-1.4373,0.0,-1.4292,-1.4125,-1.4242,-1.4011,0.0,0.0,0.0,0.0,0.0,0.0,0.0,0.0,0.0,0.0,0.0,0.0,0.0,0.0,0.0,0.0,0.0,0.0,0.0,0.0,0.0,0.0,0.0,0.0,0.0,0.0,0.0,0.0,0.0,0.0,0.0,0.0,0.0,0.0,0.0,0.0,0.0,0.0,0.0,0.0,0.0,0.0,0.0,0.0,0.0,0.0,0.0,0.0,0.0,0.0,0.0,0.0,0.0,0.0,0.0,0.0,0.0,0.0,0.0,0.0,0.0,0.0,0.0,0.0,0.0,0.0,0.0,0.0,0.0,0.0,0.0,0.0,0.0,0.0,0.0,0.0,0.0,0.0,0.0,0.0,0.0,0.0,0.0,0.0,0.0,0.0,0.0,0.0,0.0,0.0,0.0,0.0,0.0,0.0,0.0,0.0,0.0,0.0,0.0,0.0,0.0,0.0,0.0,0.0,0.0,0.0,0.0,0.0,-1.4393,-1.4509,-1.4838,-1.4745,-1.4315,-1.4318,-1.3977,0.0,0.0,0.0,0.0,0.0,0.0,0.0,0.0,0.0,0.0,0.0,0.0,0.0,0.0,0.0,0.0,0.0,0.0,0.0,0.0,0.0,0.0,0.0,0.0,0.0,0.0,0.0,0.0,0.0,0.0,0.0,0.0,0.0,0.0,0.0,0.0,0.0,0.0,0.0,0.0,0.0,0.0,0.0,0.0,0.0,0.0,0.0,0.0,0.0,0.0,0.0,0.0,0.0,0.0,0.0,0.0,0.0,0.0,0.0,0.0,0.0,0.0,0.0,0.0,0.0,0.0,0.0,0.0,0.0,0.0,0.0,0.0,0.0,0.0,0.0,0.0,0.0,0.0,0.0,0.0,0.0,0.0,0.0,0.0,0.0,0.0,0.0,0.0,0.0,0.0,0.0,0.0,0.0,0.0,0.0,0.0,0.0,0.0,0.0,0.0,0.0,0.0,0.0,0.0,0.0,0.0,0.0,0.0,0.0,-1.4295,-1.4184,-1.4018,-1.3753,-1.3727,-1.3468,0.0,0.0,0.0,0.0,0.0,0.0,0.0,0.0,0.0,0.0,0.0,0.0,0.0,0.0,0.0,0.0,0.0,0.0,0.0,0.0,0.0,0.0,0.0,0.0,0.0,0.0,0.0,0.0,0.0,0.0,0.0,0.0,0.0,0.0,0.0,0.0,0.0,0.0,0.0,0.0,0.0,0.0,0.0,0.0,0.0,0.0,0.0,0.0,0.0,0.0,0.0,0.0,0.0,0.0,0.0,0.0,0.0,0.0,0.0,0.0,0.0,0.0,0.0,0.0,0.0,0.0,0.0,0.0,0.0,0.0,0.0,0.0,0.0,0.0,0.0,0.0,0.0,0.0,0.0,0.0,0.0,0.0,0.0,0.0,0.0,0.0,0.0,0.0,0.0,0.0,0.0,0.0,0.0,0.0,0.0,0.0,0.0,0.0,0.0,0.0,0.0,0.0,0.0,0.0,0.0,0.0,0.0,0.0,0.0,-1.3925,-1.3874,-1.3651,-1.3219,-1.3357,-1.3219,-1.2782,0.0,0.0,0.0,0.0,0.0,0.0,0.0,0.0,0.0,0.0,0.0,0.0,0.0,0.0,0.0,0.0,0.0,0.0,0.0,0.0,0.0,0.0,0.0,0.0,0.0,0.0,0.0,0.0,0.0,0.0,0.0,0.0,0.0,0.0,0.0,0.0,0.0,0.0,0.0,0.0,0.0,0.0,0.0,0.0,0.0,0.0,0.0,0.0,0.0,0.0,0.0,0.0,0.0,0.0,0.0,0.0,0.0,0.0,0.0,0.0,0.0,0.0,0.0,0.0,0.0,0.0,0.0,0.0,0.0,0.0,0.0,0.0,0.0,0.0,0.0,0.0,0.0,0.0,0.0,0.0,0.0,0.0,0.0,0.0,0.0,0.0,0.0,0.0,0.0,0.0,0.0,0.0,0.0,0.0,0.0,0.0,0.0,0.0,0.0,0.0,0.0,0.0,0.0,0.0,0.0,0.0,0.0,0.0,-1.3332,-1.3737,-1.3516,-1.2678,-1.3109,-1.3194,0.0,0.0,0.0,0.0,0.0,0.0,0.0,0.0,0.0,0.0,0.0,0.0,0.0,0.0,0.0,0.0,0.0,0.0,0.0,0.0,0.0,0.0,0.0,0.0,0.0,0.0,0.0,0.0,0.0,0.0,0.0,0.0,0.0,0.0,0.0,0.0,0.0,0.0,0.0,0.0,0.0,0.0,0.0,0.0,0.0,0.0,0.0,0.0,0.0,0.0,0.0,0.0,0.0,0.0,0.0,0.0,0.0,0.0,0.0,0.0,0.0,0.0,0.0,0.0,0.0,0.0,0.0,0.0,0.0,0.0,0.0,0.0,0.0,0.0,0.0,0.0,0.0,0.0,0.0,0.0,0.0,0.0,0.0,0.0,0.0,0.0,0.0,0.0,0.0,0.0,0.0,0.0,0.0,0.0,0.0,0.0,0.0,0.0,0.0,0.0,0.0,0.0,0.0,0.0,0.0,0.0,0.0,0.0,0.0,-1.2775,-1.2483,-1.2227,-1.2065,-1.2192,-1.2516,0.0,0.0,0.0,0.0,0.0,0.0,0.0,0.0,0.0,0.0,0.0,0.0,0.0,0.0,0.0,0.0,0.0,0.0,0.0,0.0,0.0,0.0,0.0,0.0,0.0,0.0,0.0,0.0,0.0,0.0,0.0,0.0,0.0,0.0,0.0,0.0,0.0,0.0,0.0,0.0,0.0,0.0,0.0,0.0,0.0,0.0,0.0,0.0,0.0,0.0,0.0,0.0,0.0,0.0,0.0,0.0,0.0,0.0,0.0,0.0,0.0,0.0,0.0,0.0,0.0,0.0,0.0,0.0,0.0,0.0,0.0,0.0,0.0,0.0,0.0,0.0,0.0,0.0,0.0,0.0,0.0,0.0,0.0,0.0,0.0,0.0,0.0,0.0,0.0,0.0,0.0,0.0,0.0,0.0,0.0,0.0,0.0,0.0,0.0,0.0,0.0,0.0,0.0,0.0,0.0,0.0,0.0,0.0,-1.333,-1.2601,-1.1729,-1.1303,-1.1325,-1.1801,-1.2312,0.0,0.0,0.0,0.0,0.0,0.0,0.0,0.0,0.0,0.0,0.0,0.0,0.0,0.0,0.0,0.0,0.0,0.0,0.0,0.0,0.0,0.0,0.0,0.0,0.0,0.0,0.0,0.0,0.0,0.0,0.0,0.0,0.0,0.0,0.0,0.0,0.0,0.0,0.0,0.0,0.0,0.0,0.0,0.0,0.0,0.0,0.0,0.0,0.0,0.0,0.0,0.0,0.0,0.0,0.0,0.0,0.0,0.0,0.0,0.0,0.0,0.0,0.0,0.0,0.0,0.0,0.0,0.0,0.0,0.0,0.0,0.0,0.0,0.0,0.0,0.0,0.0,0.0,0.0,0.0,0.0,0.0,0.0,0.0,0.0,0.0,0.0,0.0,0.0,0.0,0.0,0.0,0.0,0.0,0.0,0.0,0.0,0.0,0.0,0.0,0.0,0.0,0.0,0.0,0.0,0.0,0.0,0.0,-1.3107,-1.2593,-1.1384,-1.0725,-1.0779,-1.1753,-1.2353,0.0,0.0,0.0,0.0,0.0,0.0,0.0,0.0,0.0,0.0,0.0,0.0,0.0,0.0,0.0,0.0,0.0,0.0,0.0,0.0,0.0,0.0,0.0,0.0,0.0,0.0,0.0,0.0,0.0,0.0,0.0,0.0,0.0,0.0,0.0,0.0,0.0,0.0,0.0,0.0,0.0,0.0,0.0,0.0,0.0,0.0,0.0,0.0,0.0,0.0,0.0,0.0,0.0,0.0,0.0,0.0,0.0,0.0,0.0,0.0,0.0,0.0,0.0,0.0,0.0,0.0,0.0,0.0,0.0,0.0,0.0,0.0,0.0,0.0,0.0,0.0,0.0,0.0,0.0,0.0,0.0,0.0,0.0,0.0,0.0,0.0,0.0,0.0,0.0,0.0,0.0,0.0,0.0,0.0,0.0,0.0,0.0,0.0,0.0,0.0,0.0,0.0,0.0,0.0,0.0,0.0,0.0,0.0,-1.2694,-1.1948,-1.1319,-1.1033,-1.1021,-1.1496,-1.2089,0.0,0.0,0.0,0.0,0.0,0.0,0.0,0.0,0.0,0.0,0.0,0.0,0.0,0.0,0.0,0.0,0.0,0.0,0.0,0.0,0.0,0.0,0.0,0.0,0.0,0.0,0.0,0.0,0.0,0.0,0.0,0.0,0.0,0.0,0.0,0.0,0.0,0.0,0.0,0.0,0.0,0.0,0.0,0.0,0.0,0.0,0.0,0.0,-1.6757,0.0,0.0,0.0,0.0,0.0,0.0,0.0,0.0,0.0,0.0,0.0,0.0,0.0,0.0,0.0,0.0,0.0,0.0,0.0,0.0,0.0,0.0,0.0,0.0,0.0,0.0,0.0,0.0,0.0,0.0,0.0,0.0,0.0,0.0,0.0,0.0,0.0,0.0,0.0,0.0,0.0,0.0,0.0,0.0,0.0,0.0,0.0,0.0,0.0,0.0,0.0,0.0,0.0,0.0,0.0,0.0,0.0,0.0,0.0,-1.2639,-1.185,-1.1366,-1.1117,-1.1124,-1.1439,-1.2036,0.0,0.0,0.0,0.0,0.0,0.0,0.0,0.0,0.0,0.0,0.0,0.0,0.0,0.0,0.0,0.0,0.0,0.0,0.0,0.0,0.0,0.0,0.0,0.0,0.0,0.0,0.0,0.0,0.0,0.0,0.0,0.0,0.0,0.0,0.0,0.0,0.0,0.0,0.0,0.0,0.0,0.0,0.0,0.0,0.0,0.0,0.0,0.0,0.0,0.0,0.0,0.0,0.0,0.0,0.0,0.0,0.0,0.0,0.0,0.0,0.0,0.0,0.0,0.0,0.0,0.0,0.0,0.0,0.0,0.0,0.0,0.0,0.0,0.0,0.0,0.0,0.0,0.0,0.0,0.0,0.0,0.0,0.0,0.0,0.0,0.0,0.0,0.0,0.0,0.0,0.0,0.0,0.0,0.0,0.0,0.0,0.0,0.0,0.0,0.0,0.0,0.0,0.0,0.0,0.0,0.0,0.0,-1.3469,-1.2618,-1.1896,-1.1372,-1.1117,-1.1105,-1.1537,-1.2199,-1.3028,0.0,0.0,0.0,0.0,0.0,0.0,0.0,0.0,0.0,0.0,0.0,0.0,0.0,0.0,0.0,0.0,0.0,0.0,0.0,0.0,0.0,0.0,0.0,0.0,0.0,0.0,0.0,0.0,0.0,0.0,0.0,0.0,0.0,0.0,0.0,0.0,0.0,0.0,-1.4448,-1.6606,0.0,0.0,0.0,0.0,0.0,0.0,0.0,0.0,-1.7814,0.0,0.0,0.0,0.0,0.0,0.0,0.0,0.0,0.0,0.0,0.0,0.0,0.0,0.0,0.0,0.0,0.0,0.0,0.0,0.0,0.0,0.0,0.0,0.0,0.0,0.0,0.0,0.0,0.0,0.0,0.0,0.0,0.0,0.0,0.0,0.0,0.0,0.0,0.0,0.0,0.0,0.0,0.0,0.0,0.0,0.0,0.0,0.0,0.0,0.0,0.0,0.0,0.0,0.0,0.0,0.0,-1.3912,-1.3343,-1.2494,-1.1285,-1.1149,-1.1117,-1.1111,-1.181,-1.2572,-1.3352,0.0,0.0,0.0,0.0,0.0,0.0,0.0,0.0,0.0,0.0,0.0,0.0,0.0,0.0,0.0,0.0,0.0,0.0,0.0,0.0,0.0,0.0,0.0,0.0,0.0,0.0,0.0,0.0,0.0,0.0,0.0,0.0,0.0,0.0,0.0,0.0,0.0,0.0,0.0,-1.669,-1.7484,0.0,0.0,0.0,0.0,0.0,0.0,0.0,0.0,-1.6895,0.0,0.0,0.0,0.0,0.0,0.0,0.0,0.0,0.0,0.0,0.0,0.0,0.0,0.0,0.0,0.0,0.0,0.0,0.0,0.0,0.0,0.0,0.0,0.0,0.0,0.0,0.0,0.0,0.0,0.0,0.0,0.0,0.0,0.0,0.0,0.0,0.0,0.0,0.0,0.0,0.0,0.0,0.0,0.0,0.0,0.0,0.0,0.0,0.0,0.0,0.0,0.0,0.0,0.0,0.0,-1.3484,-1.2898,-1.2175,-1.1348,-1.1291,-1.1291,-1.1323,-1.1938,-1.2721,0.0,0.0,0.0,0.0,0.0,0.0,0.0,0.0,0.0,0.0,0.0,0.0,0.0,0.0,0.0,0.0,0.0,0.0,0.0,0.0,0.0,0.0,0.0,0.0,0.0,0.0,0.0,0.0,0.0,0.0,0.0,0.0,0.0,0.0,0.0,0.0,0.0,0.0,0.0,0.0,-1.7024,-1.732,-1.6973,0.0,0.0,0.0,0.0,0.0,0.0,-1.6559,-1.6724,0.0,0.0,0.0,0.0,0.0,0.0,0.0,0.0,0.0,0.0,0.0,0.0,0.0,0.0,0.0,0.0,0.0,0.0,0.0,0.0,0.0,0.0,0.0,0.0,0.0,0.0,0.0,0.0,0.0,0.0,0.0,0.0,0.0,0.0,0.0,0.0,0.0,0.0,0.0,0.0,0.0,0.0,0.0,0.0,0.0,0.0,0.0,0.0,0.0,0.0,0.0,0.0,0.0,0.0,0.0,-1.3324,-1.2635,-1.2018,-1.16,-1.1573,-1.1573,-1.1606,-1.225,-1.2985,0.0,0.0,0.0,0.0,0.0,0.0,0.0,0.0,0.0,0.0,0.0,0.0,0.0,0.0,0.0,0.0,0.0,0.0,0.0,0.0,0.0,0.0,0.0,0.0,0.0,0.0,0.0,0.0,0.0,0.0,0.0,0.0,0.0,0.0,0.0,0.0,0.0,0.0,0.0,0.0,0.0,-1.7189,-1.646,-1.6558,0.0,0.0,0.0,0.0,-1.626,-1.6345,0.0,0.0,0.0,0.0,0.0,0.0,0.0,0.0,0.0,0.0,0.0,0.0,0.0,0.0,0.0,0.0,0.0,0.0,0.0,0.0,0.0,0.0,0.0,0.0,0.0,0.0,0.0,0.0,0.0,0.0,0.0,0.0,0.0,0.0,0.0,0.0,0.0,0.0,0.0,0.0,0.0,0.0,0.0,0.0,0.0,0.0,0.0,0.0,0.0,0.0,0.0,0.0,0.0,0.0,0.0,0.0,-1.3816,-1.3102,-1.2436,-1.1912,-1.1838,-1.1878,-1.1872,-1.3063,-1.3806,0.0,0.0,0.0,0.0,0.0,0.0,0.0,0.0,0.0,0.0,0.0,0.0,0.0,0.0,0.0,0.0,0.0,0.0,0.0,0.0,0.0,0.0,0.0,0.0,0.0,0.0,0.0,0.0,0.0,0.0,0.0,0.0,0.0,0.0,0.0,0.0,0.0,0.0,0.0,0.0,0.0,-1.6917,-1.6541,-1.6398,-1.637,0.0,0.0,-1.5631,-1.5546,-1.5631,0.0,0.0,0.0,0.0,0.0,0.0,0.0,0.0,0.0,0.0,0.0,0.0,0.0,0.0,0.0,0.0,0.0,0.0,0.0,0.0,0.0,0.0,0.0,0.0,0.0,0.0,0.0,0.0,0.0,0.0,0.0,0.0,0.0,0.0,0.0,0.0,0.0,0.0,0.0,0.0,0.0,0.0,0.0,0.0,0.0,0.0,0.0,0.0,0.0,0.0,0.0,0.0,0.0,0.0,0.0,-1.4328,-1.3916,-1.3005,-1.2388,-1.2149,-1.2143,-1.2143,-1.2149,-1.3174,-1.3873,0.0,0.0,0.0,0.0,0.0,0.0,0.0,0.0,0.0,0.0,0.0,0.0,0.0,0.0,0.0,0.0,0.0,0.0,0.0,0.0,0.0,0.0,0.0,0.0,0.0,0.0,0.0,0.0,0.0,0.0,0.0,0.0,0.0,0.0,0.0,0.0,0.0,0.0,0.0,0.0,0.0,0.0,-1.6514,-1.6162,0.0,0.0,0.0,-1.5602,-1.5612,0.0,0.0,0.0,0.0,0.0,0.0,0.0,0.0,0.0,0.0,0.0,0.0,0.0,0.0,0.0,0.0,0.0,0.0,0.0,0.0,0.0,0.0,0.0,0.0,0.0,0.0,0.0,0.0,0.0,0.0,0.0,0.0,0.0,0.0,0.0,0.0,0.0,0.0,0.0,0.0,0.0,0.0,0.0,0.0,0.0,0.0,0.0,0.0,0.0,0.0,0.0,0.0,0.0,0.0,0.0,0.0,0.0,-1.4053,-1.2942,-1.2409,-1.2409,-1.2415,-1.2415,-1.2403,-1.3147,0.0,0.0,0.0,0.0,0.0,0.0,0.0,0.0,0.0,0.0,0.0,0.0,0.0,0.0,0.0,0.0,0.0,0.0,0.0,0.0,0.0,0.0,0.0,0.0,0.0,0.0,0.0,-1.243,0.0,0.0,0.0,0.0,0.0,0.0,0.0,0.0,0.0,0.0,0.0,0.0,0.0,0.0,-1.6635,-1.6777,-1.6157,-1.5666,0.0,0.0,-1.5706,-1.583,-1.5624,-1.5841,0.0,0.0,0.0,0.0,0.0,0.0,0.0,0.0,0.0,0.0,0.0,0.0,0.0,0.0,0.0,0.0,0.0,0.0,0.0,0.0,0.0,0.0,0.0,0.0,0.0,0.0,0.0,0.0,0.0,0.0,0.0,0.0,0.0,0.0,0.0,0.0,0.0,0.0,0.0,0.0,0.0,0.0,0.0,0.0,0.0,0.0,0.0,0.0,0.0,0.0,0.0,0.0,0.0,0.0,-1.4671,-1.4179,-1.3194,-1.2674,-1.2674,-1.2674,-1.2681,-1.2674,-1.3213,-1.388,0.0,0.0,0.0,0.0,0.0,0.0,0.0,0.0,0.0,0.0,0.0,0.0,0.0,0.0,0.0,0.0,0.0,0.0,0.0,0.0,0.0,0.0,0.0,0.0,0.0,0.0,0.0,0.0,0.0,0.0,0.0,0.0,0.0,0.0,0.0,0.0,0.0,0.0,0.0,0.0,0.0,-1.7383,-1.749,-1.659,-1.5876,0.0,-1.5867,-1.5876,-1.5908,-1.5794,-1.6214,-1.7747,0.0,0.0,0.0,0.0,0.0,0.0,0.0,0.0,0.0,0.0,0.0,0.0,0.0,0.0,0.0,0.0,0.0,0.0,0.0,0.0,0.0,0.0,0.0,0.0,0.0,0.0,0.0,0.0,0.0,0.0,0.0,0.0,0.0,0.0,0.0,0.0,0.0,0.0,0.0,0.0,0.0,0.0,0.0,0.0,0.0,0.0,0.0,0.0,0.0,0.0,0.0,0.0,0.0,-1.4622,-1.4355,-1.3276,-1.2705,-1.2705,-1.2705,-1.2705,-1.2705,-1.3105,-1.3695,0.0,0.0,0.0,0.0,0.0,0.0,0.0,0.0,0.0,0.0,0.0,0.0,0.0,0.0,0.0,0.0,0.0,0.0,0.0,0.0,0.0,0.0,0.0,0.0,0.0,0.0,0.0,0.0,-1.5002,-1.5731,-1.6429,0.0,0.0,0.0,0.0,0.0,0.0,0.0,0.0,0.0,0.0,-1.7389,-1.7029,-1.6516,0.0,0.0,-1.614,-1.6298,-1.663,-1.6462,-1.6743,-1.8176,-1.8802,0.0,0.0,0.0,0.0,0.0,0.0,0.0,0.0,0.0,0.0,0.0,0.0,0.0,0.0,0.0,0.0,0.0,0.0,0.0,0.0,0.0,0.0,0.0,0.0,0.0,0.0,0.0,0.0,0.0,0.0,0.0,0.0,0.0,0.0,0.0,0.0,0.0,0.0,0.0,0.0,0.0,0.0,0.0,0.0,0.0,0.0,0.0,0.0,0.0,0.0,0.0,0.0,-1.4963,-1.4796,-1.3594,-1.2946,-1.2946,-1.2868,-1.2831,-1.2819,-1.2993,-1.341,0.0,0.0,0.0,0.0,0.0,0.0,0.0,0.0,0.0,0.0,0.0,0.0,0.0,0.0,0.0,0.0,0.0,0.0,0.0,0.0,0.0,0.0,0.0,0.0,0.0,0.0,0.0,0.0,-1.5293,-1.6075,-1.7014,0.0,0.0,0.0,0.0,0.0,0.0,0.0,0.0,0.0,0.0,-1.7503,-1.7155,-1.6848,-1.6716,-1.6835,-1.6897,-1.7084,-1.7493,-1.7366,-1.759,-1.8683,0.0,0.0,0.0,0.0,0.0,0.0,0.0,0.0,0.0,0.0,0.0,0.0,0.0,0.0,0.0,0.0,0.0,0.0,0.0,0.0,0.0,0.0,0.0,0.0,0.0,0.0,0.0,0.0,0.0,0.0,-1.6271,0.0,0.0,0.0,0.0,0.0,0.0,0.0,0.0,0.0,0.0,0.0,0.0,0.0,0.0,0.0,0.0,0.0,0.0,0.0,0.0,0.0,0.0,-1.5849,-1.5467,-1.4107,-1.3483,-1.3483,-1.3203,-1.3115,-1.3109,-1.2843,-1.3071,-1.3791,0.0,0.0,0.0,0.0,0.0,0.0,0.0,0.0,0.0,0.0,0.0,0.0,0.0,0.0,0.0,0.0,0.0,0.0,0.0,0.0,0.0,0.0,0.0,0.0,0.0,0.0,-1.479,-1.5618,-1.6388,0.0,0.0,0.0,0.0,0.0,0.0,0.0,0.0,0.0,0.0,-1.8145,-1.7787,-1.8183,-1.7806,-1.7596,-1.7953,-1.8193,-1.835,-1.8359,-1.8534,-1.8827,0.0,0.0,0.0,0.0,0.0,0.0,0.0,0.0,0.0,0.0,0.0,0.0,0.0,0.0,0.0,0.0,0.0,0.0,0.0,0.0,0.0,0.0,0.0,0.0,0.0,0.0,0.0,-1.6741,-1.6197,0.0,0.0,0.0,0.0,0.0,0.0,0.0,0.0,0.0,0.0,0.0,-1.5884,-1.6015,0.0,0.0,0.0,0.0,0.0,0.0,0.0,0.0,0.0,0.0,0.0,0.0,-1.5705,-1.5103,-1.4027,-1.3468,-1.3468,-1.3429,-1.3387,-1.3381,-1.3121,-1.3236,-1.3784,0.0,0.0,0.0,0.0,0.0,0.0,0.0,0.0,0.0,0.0,0.0,0.0,0.0,0.0,0.0,0.0,0.0,0.0,0.0,0.0,0.0,0.0,0.0,0.0,0.0,-1.4623,0.0,0.0,0.0,0.0,0.0,0.0,0.0,0.0,0.0,0.0,0.0,-1.9342,-1.8539,-1.8694,-1.8676,-1.8227,-1.8018,-1.7972,0.0,0.0,0.0,0.0,0.0,0.0,0.0,0.0,0.0,0.0,0.0,0.0,0.0,0.0,-2.2064,-2.1485,-2.0979,-2.0552,-2.0322,0.0,0.0,0.0,0.0,0.0,0.0,0.0,0.0,0.0,0.0,0.0,0.0,0.0,0.0,-1.7153,0.0,-1.7126,0.0,0.0,0.0,0.0,0.0,0.0,0.0,0.0,-1.5765,-1.5681,-1.5474,-1.5584,-1.5734,0.0,-1.6107,-1.6661,0.0,0.0,0.0,0.0,0.0,0.0,0.0,0.0,-1.586,-1.5253,-1.4282,-1.3785,-1.3785,-1.3701,-1.3652,-1.3646,-1.3354,-1.3392,-1.3701,-1.451,-1.5045,0.0,0.0,0.0,0.0,0.0,0.0,0.0,0.0,0.0,0.0,0.0,0.0,0.0,0.0,0.0,0.0,0.0,0.0,0.0,0.0,0.0,0.0,0.0,-1.5061,0.0,0.0,0.0,0.0,0.0,0.0,0.0,0.0,0.0,-1.9172,-1.9244,-1.9116,-1.8523,-1.8753,-1.8907,-1.857,0.0,0.0,0.0,0.0,0.0,0.0,0.0,-2.0043,-2.0198,-2.0259,-2.0266,-2.0057,-2.0621,-2.1126,-2.1172,0.0,0.0,-2.0993,-2.0616,-2.0204,-1.9971,-2.0019,-2.0178,-2.0352,-2.05,-2.057,0.0,0.0,0.0,0.0,0.0,0.0,0.0,0.0,-1.6025,-1.6439,0.0,-1.6699,0.0,0.0,0.0,0.0,0.0,-1.6255,0.0,0.0,-1.4359,-1.3919,-1.4501,-1.4546,-1.4624,-1.4874,-1.5723,-1.6249,-1.6484,-1.6863,0.0,0.0,0.0,0.0,0.0,0.0,-1.6402,-1.5902,-1.4845,-1.4292,-1.428,-1.4045,-1.3912,-1.39,-1.3658,-1.3513,-1.3535,-1.3944,-1.4248,-1.4303,-1.5477,0.0,0.0,0.0,0.0,0.0,0.0,0.0,0.0,0.0,0.0,0.0,0.0,0.0,0.0,0.0,0.0,0.0,0.0,0.0,0.0,-1.4493,0.0,0.0,0.0,0.0,0.0,0.0,0.0,0.0,0.0,0.0,-1.9966,-1.8949,-1.8255,-1.8845,0.0,0.0,0.0,0.0,-1.9613,-2.0374,-2.0661,-2.0769,-2.0778,-2.0667,-2.0545,-2.0251,0.0,0.0,-1.925,-1.9674,-2.0102,-2.0186,-1.977,-1.9541,-2.0416,-2.0471,-2.0232,-1.968,-1.9519,-1.9744,-2.0206,-2.0362,-2.0659,-1.9971,0.0,0.0,0.0,0.0,-2.022,-1.9479,-1.8566,-1.8004,-1.7274,-1.6392,-1.6566,0.0,0.0,0.0,0.0,0.0,0.0,-1.6346,-1.5718,-1.5341,-1.509,-1.4943,-1.4943,-1.4986,-1.5029,-1.5273,-1.5522,-1.5786,-1.5914,-1.6572,-1.7687,0.0,0.0,0.0,0.0,-1.6033,-1.5213,-1.4586,-1.4298,-1.4298,-1.4226,-1.4093,-1.3918,-1.3833,-1.3707,-1.3519,-1.3625,-1.3885,-1.4213,-1.4743,0.0,0.0,0.0,0.0,0.0,0.0,0.0,0.0,0.0,0.0,0.0,0.0,0.0,0.0,0.0,0.0,0.0,0.0,0.0,-1.5223,-1.473,-1.4757,0.0,0.0,0.0,0.0,0.0,0.0,0.0,0.0,0.0,-1.9867,-1.9582,-1.9307,0.0,0.0,-2.007,-2.0145,-2.0173,-2.0246,-2.0493,-2.068,0.0,-2.0796,-2.093,-2.0948,-2.0671,-2.031,-2.0116,-2.032,-2.0332,-2.0382,-2.0394,-2.0251,-2.012,-2.0022,-1.936,-1.8819,-1.8593,-1.8636,-1.8773,-1.8961,-1.9242,-1.9543,-1.8017,-1.7987,-1.9751,-2.0518,-2.0473,-2.0096,-1.91,-1.7798,-1.7392,-1.6718,-1.5982,-1.6025,-1.6407,-1.7015,-1.7369,0.0,0.0,0.0,-1.6186,-1.5469,-1.5532,-1.5405,-1.5107,-1.5113,-1.5113,-1.5113,-1.5113,-1.5191,-1.5348,-1.5555,-1.6081,-1.6902,0.0,0.0,-1.7004,-1.6546,-1.5969,-1.5297,-1.4826,-1.457,-1.4467,-1.4358,-1.4226,-1.4069,-1.4057,-1.3942,-1.3682,-1.367,-1.3736,-1.3946,-1.4518,-1.512,0.0,0.0,0.0,0.0,0.0,0.0,0.0,0.0,0.0,0.0,0.0,-1.3751,-1.3812,0.0,0.0,0.0,-1.4537,-1.5126,-1.5007,-1.4784,0.0,0.0,0.0,0.0,0.0,0.0,0.0,-2.0361,-2.0151,-1.9987,-2.0082,-2.0311,-2.0283,-1.9635,-2.0182,-2.0693,-2.0732,0.0,-2.0805,-2.0936,-2.1084,-2.117,-2.1161,-2.1169,-2.1062,-2.075,-2.0563,-2.0554,-2.0638,-2.0554,-2.0521,-2.0521,-2.0521,-2.0448,-2.0168,-1.9509,-1.8953,-1.865,-1.8748,-1.8862,-1.89,-1.9203,-1.9505,-1.5885,-1.6327,-2.1383,-2.1857,-1.9339,-1.9309,-1.7724,-1.5212,-1.5167,-1.5422,-1.5821,-1.5371,-1.5821,-1.6874,-1.6931,0.0,-1.615,-1.6017,-1.5618,-1.5167,-1.5173,-1.5167,-1.5167,-1.5173,-1.5173,-1.5173,-1.5167,-1.5167,-1.5191,-1.5685,-1.59,-1.5906,-1.6303,-1.6676,-1.6854,-1.6426,-1.6067,-1.5859,-1.5354,-1.4992,-1.4751,-1.4497,-1.4352,-1.4328,-1.4328,-1.4201,-1.3954,-1.3912,-1.3803,-1.3631,-1.4559,-1.5205,-1.5374,0.0,0.0,0.0,0.0,0.0,0.0,0.0,0.0,0.0,0.0,0.0,0.0,0.0,0.0,0.0,-1.3526,0.0,-1.397,-1.4693,0.0,0.0,0.0,-1.8304,-1.8452,-1.9226,-1.9939,-2.0384,0.0,0.0,-2.0517,-2.1011,-2.1065,-2.0118,-2.0323,-2.0708,-2.1099,-2.1163,-2.1291,-2.1586,-2.1678,-2.1678,-2.164,-2.1383,-2.1096,-2.075,-2.058,-2.0625,-2.0659,-2.0616,-2.0631,-2.0625,-2.0589,-2.057,-2.0534,-2.0461,-2.0319,-1.9531,-1.9531,-1.9659,-1.9739,-2.0046,-2.0321,-1.5885,-1.6015,-1.7343,-1.7452,-1.6774,-1.6781,-1.6341,-1.5698,-1.5704,-1.5757,-1.5856,-1.5751,-1.5862,-1.6172,-1.6172,-1.6119,-1.5955,-1.5915,-1.5804,-1.5704,-1.5704,-1.5698,-1.5704,-1.5704,-1.5704,-1.5698,-1.5704,-1.5704,-1.5704,-1.5824,-1.5901,-1.5907,-1.6007,-1.6088,-1.6144,-1.6022,-1.5716,-1.531,-1.5157,-1.5077,-1.5016,-1.4956,-1.4817,-1.4618,-1.4618,-1.4485,-1.4214,-1.4008,-1.3966,-1.4099,-1.4374,-1.4936,-1.5883,-1.6449,0.0,0.0,0.0,0.0,0.0,0.0,0.0,0.0,0.0,-1.4618,-1.5115,0.0,-1.4194,0.0,-1.3523,-1.367,-1.4569,-1.4513,0.0,0.0,-1.6941,-1.7997,-1.8986,-1.9675,-2.0278,-2.0731,-2.0745,-2.0711,-2.0721,-2.1103,-2.1278,-2.086,-2.1138,-2.1431,-2.1531,-2.154,-2.1577,-2.1668,-2.1705,-2.1687,-2.1714,-2.1623,-2.1504,-2.1412,-2.1394,-2.1403,-2.1394,-2.1403,-2.1403,-2.1394,-2.1447,-2.1284,-2.1025,-2.097,-2.0796,-2.0356,-2.0237,-2.0361,-2.0527,-2.0806,-2.1002,-1.6254,-1.6254,-1.6254,-1.6247,-1.6235,-1.5994,-1.5885,-1.5885,-1.5885,-1.5885,-1.5885,-1.5885,-1.5885,-1.5885,-1.5885,-1.5885,-1.5885,-1.5885,-1.5885,-1.5885,-1.5885,-1.5885,-1.5885,-1.5885,-1.5885,-1.5885,-1.5885,-1.5885,-1.5885,-1.5885,-1.5885,-1.5885,-1.5885,-1.5919,-1.5897,-1.5891,-1.5765,-1.5457,-1.5336,-1.5282,-1.5276,-1.5167,-1.504,-1.4896,-1.489,-1.4817,-1.466,-1.4515,-1.4509,-1.4648,-1.4752,-1.521,-1.5952,-1.6411,-1.7074,0.0,0.0,0.0,0.0,0.0,0.0,0.0,0.0,0.0,0.0,0.0,-1.407,-1.4183,-1.381,-1.4076,-1.5317,-1.5395,-1.5754,-1.6748,-1.7842,-1.8721,-1.9204,-1.9897,-2.043,-2.0677,-2.0866,-2.0939,-2.0948,-2.1275,-2.1489,-2.1392,-2.1696,-2.1888,-2.1723,-2.1687,-2.1687,-2.1696,-2.1842,-2.2034,-2.2199,-2.2071,-2.1952,-2.1934,-2.1806,-2.1687,-2.1687,-2.1687,-2.1687,-2.1687,-2.1687,-2.1623,-2.1394,-2.1339,-2.1257,-2.1092,-2.1019,-2.101,-2.089,-2.1024,-2.1243,-1.67,-1.67,-1.67,-1.67,-1.6664,-1.6193,-1.5994,-1.5994,-1.5994,-1.597,-1.594,-1.5934,-1.5922,-1.5885,-1.5885,-1.5885,-1.5885,-1.5885,-1.5885,-1.5885,-1.5885,-1.5885,-1.5885,-1.5885,-1.5885,-1.5885,-1.5885,-1.5885,-1.5885,-1.5885,-1.5885,-1.5885,-1.5885,-1.5885,-1.5885,-1.5885,-1.5885,-1.5885,-1.5662,-1.5547,-1.5547,-1.5324,-1.5191,-1.5161,-1.5155,-1.5143,-1.5113,-1.5113,-1.5119,-1.5155,-1.5403,-1.5669,-1.5942,-1.6464,-1.7024,0.0,-1.8189,0.0,0.0,0.0,0.0,0.0,0.0,0.0,0.0,-1.4375,-1.4085,-1.4351,-1.4255,-1.4641,-1.5872,-1.653,-1.7117,-1.759,-1.893,-1.9699,-1.9435,-2.0083,-2.0594,-2.0594,-2.0943,-2.12,-2.1282,-2.1549,-2.1778,-2.1879,-2.2144,-2.2254,-2.1943,-2.1897,-2.1916,-2.1851,-2.2135,-2.2483,-2.273,-2.2574,-2.241,-2.2327,-2.2126,-2.1851,-2.1888,-2.1888,-2.187,-2.187,-2.1842,-2.1778,-2.1769,-2.1723,-2.1678,-2.1632,-2.1623,-2.1509,-2.1172,-2.1217,-2.1297,-1.67,-1.67,-1.67,-1.67,-1.6694,-1.6585,-1.6549,-1.6549,-1.6549,-1.6423,-1.6211,-1.6205,-1.6091,-1.5891,-1.5885,-1.5885,-1.5885,-1.5885,-1.5885,-1.5885,-1.5885,-1.5885,-1.5885,-1.5885,-1.5885,-1.5885,-1.5885,-1.5885,-1.5885,-1.5885,-1.5885,-1.5885,-1.5885,-1.5885,-1.5885,0.0,0.0,0.0,-1.5837,-1.5813,-1.5819,-1.5771,-1.5638,-1.5439,-1.5427,0.0,-1.5125,-1.5113,-1.5209,-1.5409,-1.5472,0.0,0.0,0.0,0.0,0.0,0.0,0.0,0.0,0.0,0.0,0.0,-1.6838,-1.6039,-1.5175,-1.4829,-1.474,-1.4852,-1.4842,-1.4906,-1.5181,-1.6002,-1.6804,-1.7628,-1.8691,-1.9563,-2.0183,-2.072,-2.0998,-2.0998,-2.1365,-2.1696,-2.1989,-2.2171,-2.2291,-2.2574,-2.2739,-2.2757,-2.2684,-2.2648,-2.2666,-2.2684,-2.2739,-2.2821,-2.2885,-2.2849,-2.2785,-2.2776,-2.2748,-2.2657,-2.2638,-2.2648,-2.2657,-2.2638,-2.24,-2.2172,-2.2163,-2.1916,-2.1733,-2.1696,-2.1696,-2.173,-2.1847,-2.1854,-2.1961,-1.7086,0.0,-1.7086,-1.7086,0.0,-1.7086,-1.7086,-1.7068,-1.6809,-1.6616,-1.6495,-1.6483,-1.6416,-1.629,-1.629,-1.629,-1.629,-1.629,-1.629,-1.629,-1.629,-1.629,-1.629,-1.6151,-1.6085,-1.6091,-1.5958,-1.5885,-1.5885,-1.5885,-1.5885,-1.5885,-1.5885,-1.5885,-1.5885,-1.5885,-1.5885,-1.5885,-1.5885,-1.5885,-1.5885,-1.5885,-1.5825,-1.5698,-1.5692,0.0,0.0,0.0,0.0,0.0,0.0,0.0,0.0,-1.6684,0.0,-1.7237,-1.738,-1.7483,-1.7598,-1.7493,-1.7221,-1.6723,-1.614,-1.5637,-1.5248,-1.5048,-1.4987,-1.4995,-1.5397,-1.5873,-1.6316,-1.7407,-1.8425,-1.9263,-2.0018,-2.063,-2.1005,-2.1248,-2.1493,-2.1641,-2.1851,-2.2135,-2.2529,-2.2593,-2.2666,-2.2876,-2.3078,-2.3197,-2.3178,-2.3023,-2.2959,-2.316,-2.3206,-2.327,-2.3474,-2.3306,-2.3197,-2.3187,-2.3041,-2.2922,-2.2913,-2.2913,-2.2913,-2.2895,-2.2721,-2.2593,-2.2574,-2.2419,-2.2227,-2.2044,-2.198,-2.1942,-2.1939,-2.1919,-2.1909,-1.7624,-1.763,-1.7624,-1.7624,-1.763,-1.763,-1.7599,-1.7515,0.0,0.0,0.0,-1.6773,-1.6748,-1.67,-1.67,-1.67,-1.67,-1.67,-1.67,-1.67,-1.67,-1.67,-1.6688,-1.6465,-1.6362,-1.6368,-1.6145,-1.603,-1.603,-1.5982,-1.5958,-1.5958,-1.591,-1.5885,-1.5885,-1.5885,-1.5885,-1.5885,-1.5885,-1.5885,-1.5885,-1.5885,-1.5885,-1.5885,-1.5885,-1.5994,-1.6199,-1.6266,-1.6429,-1.6599,-1.6938,-1.7001,-1.6709,-1.6932,-1.7032,-1.6952,-1.7104,-1.7074,-1.6877,-1.6894,-1.6536,-1.5832,-1.5391,-1.5187,-1.532,-1.5172,-1.5102,-1.511,-1.5849,-1.6551,-1.7313,-1.8532,-1.9768,-2.0686,-2.1275,-2.159,-2.1843,-2.1906,-2.2044,-2.2327,-2.2382,-2.2538,-2.294,-2.3004,-2.305,-2.3142,-2.3425,-2.3657,-2.3563,-2.3361,-2.3288,-2.3593,-2.3608,-2.3767,-2.4045,-2.3877,-2.3666,-2.3639,-2.3343,-2.3123,-2.3114,-2.3123,-2.3114,-2.3187,-2.3078,-2.3014,-2.3004,-2.2913,-2.2794,-2.2465,-2.2391,-2.2318,-2.1906,-2.1797,-2.1778,-1.8179,-1.8179,-1.8179,-1.8179,-1.8179,-1.8179,-1.804,-1.7799,-1.7503,-1.7243,-1.7044,-1.7038,-1.6911,-1.67,-1.67,-1.67,-1.67,-1.67,-1.67,-1.67,-1.67,-1.67,-1.67,-1.6664,-1.664,-1.6646,-1.6604,-1.6585,-1.6561,-1.6344,-1.6229,-1.6199,-1.6,-1.5891,-1.5885,-1.5885,-1.5885,-1.5885,-1.5885,-1.5885,-1.5885,-1.5885,-1.5885,-1.5885,-1.5885,-1.5903,-1.594,-1.6172,-1.6345,-1.6382,-1.659,-1.6759,-1.6683,-1.6745,-1.6742,-1.6754,-1.6784,-1.6666,-1.641,-1.6378,-1.6244,-1.5858,-1.5704,-1.5605,-1.541,-1.5383,-1.5438,-1.5671,-1.5879,-1.5933,-1.6121,-1.7145,-1.8381,-1.951,-2.0471,-2.1441,-2.2499,-2.2693,-2.2721,-2.2803,-2.2821,-2.2968,-2.3334,-2.3416,-2.3535,-2.3877,-2.395,-2.4042,-2.4015,-2.4073,-2.4055,-2.4101,-2.4119,-2.4146,-2.4174,-2.4174,-2.4082,-2.4119,-2.4036,-2.3895,-2.3935,-2.3886,-2.3935,-2.4009,-2.3666,-2.3435,-2.3407,-2.3123,-2.2968,-2.284,-2.2812,-2.2675,-2.2291,-2.2181,-2.2071,-1.83,-1.83,-1.83,-1.83,-1.83,-1.83,-1.8221,-1.8094,-1.798,-1.769,-1.7322,-1.7304,-1.7243,-1.7129,-1.7123,-1.7123,-1.7129,-1.7123,-1.7123,-1.7123,-1.7123,-1.7129,-1.7117,-1.6984,-1.6917,-1.6905,-1.6767,-1.67,-1.6688,-1.6567,-1.6507,-1.6489,-1.6235,-1.603,-1.5897,-1.5885,-1.5885,-1.5885,-1.5885,-1.5885,-1.5885,-1.5885,-1.5885,-1.5885,-1.5885,-1.5958,-1.6097,-1.6211,-1.6446,-1.6703,-1.7037,-1.7115,-1.6914,-1.7107,-1.7016,-1.6751,-1.6711,-1.6643,-1.6526,-1.6506,-1.6446,-1.6319,-1.6306,-1.6253,-1.6126,-1.5959,-1.5932,-1.6059,-1.6684,-1.712,-1.7127,-1.7982,-1.8858,-1.947,-2.0506,-2.1359,-2.1981,-2.2612,-2.2995,-2.3178,-2.3224,-2.338,-2.3822,-2.3877,-2.3923,-2.4183,-2.4211,-2.4211,-2.4211,-2.4211,-2.4211,-2.4211,-2.4211,-2.4202,-2.4211,-2.4211,-2.4211,-2.4211,-2.4211,-2.4211,-2.4211,-2.4211,-2.4211,-2.4202,-2.3978,-2.3886,-2.3868,-2.3739,-2.3538,-2.3251,-2.3224,-2.3059,-2.273,-2.2455,-2.2144,-1.8469,-1.8469,-1.8469,-1.8469,-1.8463,-1.8408,-1.8384,-1.8378,-1.8318,-1.8058,-1.7702,-1.7666,-1.7666,-1.7666,-1.7666,-1.763,-1.7575,-1.7569,-1.7539,-1.7485,-1.7485,-1.7485,-1.7467,-1.7267,-1.7177,-1.7159,-1.6972,-1.6875,-1.6875,-1.6821,-1.6754,-1.6688,-1.6483,-1.6241,-1.5982,-1.5976,-1.5952,-1.5891,-1.5885,-1.5885,-1.5885,-1.5885,-1.5885,-1.5885,-1.5885,-1.5982,-1.6181,-1.6302,-1.6508,-1.6876,-1.7294,-1.737,-1.7159,-1.743,-1.7382,-1.6961,-1.6907,-1.6867,-1.6807,-1.674,-1.6707,-1.6707,-1.6707,-1.67,-1.6693,-1.6567,-1.6482,-1.6511,-1.7196,-1.7775,-1.781,-1.8452,-1.9226,-1.9785,-2.0589,-2.1374,-2.1926,-2.2673,-2.3279,-2.3629,-2.3684,-2.3813,-2.4119,-2.4211,-2.4202,-2.4192,-2.4211,-2.4211,-2.4211,-2.4211,-2.4211,-2.4211,-2.4211,-2.4211,-2.4211,-2.4211,-2.4211,-2.4211,-2.4211,-2.4211,-2.4211,-2.4211,-2.4211,-2.4202,-2.4202,-2.4165,-2.4192,-2.4183,-2.4036,-2.3739,-2.3684,-2.3547,-2.3123,-2.262,-2.2172,-1.8994,-1.9006,-1.8982,-1.9063,-1.8963,-1.8746,-1.865,-1.8619,-1.8402,-1.8269,-1.8221,-1.8221,-1.8215,-1.8215,-1.8197,-1.8064,-1.7853,-1.7895,-1.7714,-1.7521,-1.7485,-1.7485,-1.7497,-1.7455,-1.7449,-1.7436,-1.7394,-1.7364,-1.7352,-1.7159,-1.6936,-1.6724,-1.667,-1.6525,-1.6278,-1.6247,-1.6127,-1.5891,-1.5885,-1.5885,-1.5885,-1.5885,-1.5885,-1.5885,-1.5885,-1.5897,-1.594,-1.6201,-1.632,-1.6398,-1.6951,-1.7244,-1.7232,-1.7424,-1.7555,-1.7488,-1.7488,-1.7388,-1.7179,-1.686,-1.6734,-1.6707,-1.6734,-1.674,-1.6747,-1.6985,-1.6998,-1.6811,-1.6807,-1.6948,-1.6857,-1.7027,-1.8046,-1.9925,-2.0404,-2.1379,-2.3296,-2.3993,-2.411,-2.4128,-2.4101,-2.4165,-2.4192,-2.4211,-2.4211,-2.4211,-2.4211,-2.4211,-2.4211,-2.4211,-2.4211,-2.4211,-2.4211,-2.4211,-2.4211,-2.4211,-2.4211,-2.4211,-2.4211,-2.4211,-2.4211,-2.4211,-2.4211,-2.4211,-2.4211,-2.4211,-2.4211,-2.4211,-2.4192,-2.411,-2.3996,-2.3999,-2.3529,-2.2885,-2.2291,-1.9136,-1.9136,-1.9136,-1.9136,-1.9054,-1.8957,-1.8921,-1.8903,-1.8807,-1.8752,-1.8758,-1.8752,-1.8589,-1.83,-1.83,-1.8227,-1.8125,-1.8125,-1.8064,-1.7943,-1.7799,-1.7714,-1.7702,-1.7545,-1.7485,-1.7485,-1.7485,-1.7485,-1.7467,-1.737,-1.7189,-1.696,-1.693,-1.6797,-1.6549,-1.6531,-1.6392,-1.6127,-1.6121,-1.6042,-1.5903,-1.5885,-1.5885,-1.5885,-1.5885,-1.5885,-1.5885,-1.5998,-1.6164,-1.6324,-1.6696,-1.7008,-1.7173,-1.7424,-1.7589,-1.7589,-1.7589,-1.7535,-1.7415,-1.7288,-1.7221,-1.7221,-1.7221,-1.7221,-1.7228,-1.7341,-1.7348,-1.7255,-1.7221,-1.7221,-1.7215,-1.7221,-1.7881,-1.9418,-2.0257,-2.1384,-2.2953,-2.3795,-2.4211,-2.4211,-2.4211,-2.4211,-2.4211,-2.4211,-2.4211,-2.4211,-2.4211,-2.4211,-2.4211,-2.4211,-2.4211,-2.4211,-2.4211,-2.4211,-2.4211,-2.4211,-2.4211,-2.4211,-2.4211,-2.4211,-2.4211,-2.4211,-2.4211,-2.4211,-2.4211,-2.4211,-2.4211,-2.4211,-2.4211,-2.4211,-2.4183,-2.4082,-2.3581,-2.3233,-2.2785,-1.881,-1.9072,-1.9136,-1.9136,-1.9136,-1.9136,-1.9136,-1.9136,-1.9136,-1.9136,-1.9136,-1.9136,-1.8867,-1.8541,-1.8511,-1.8475,-1.8408,-1.8402,-1.836,-1.8281,-1.8082,-1.7986,-1.7956,-1.7714,-1.7587,-1.7634,-1.7515,-1.7485,-1.7485,-1.7485,-1.7382,-1.7225,-1.7195,-1.7068,-1.6839,-1.6809,-1.6676,-1.6416,-1.6392,-1.6272,-1.6036,-1.5994,-1.5964,-1.5897,-1.5885,-1.5885,-1.5885,-1.5885,-1.5998,-1.6217,-1.6477,-1.6736,-1.7067,-1.7325,-1.7529,-1.7589,-1.7589,-1.7589,-1.7589,-1.7589,-1.7589,-1.7589,-1.7589,-1.7589,-1.7589,-1.7589,-1.7589,-1.7569,-1.7589,-1.7569,-1.7589,-1.7589,-1.8048,-1.9079,-2.0004,-2.0877,-2.1954,-2.3079,-2.3696,-2.3746,-2.3954,-2.4211,-2.4211,-2.4211,-2.4211,-2.4211,-2.4211,-2.4211,-2.4211,-2.4211,-2.4211,-2.4211,-2.4211,-2.4211,-2.4211,-2.4211,-2.4211,-2.4211,-2.4211,-2.4211,-2.4211,-2.4211,-2.4211,-2.4211,-2.4211,-2.4211,-2.4211,-2.4211,-2.4211,-2.4211,-2.4192,-2.4119,-2.3831,-2.3648,-2.327,-1.7893,-1.9008,-1.9136,-1.9136,-1.9136,-1.9136,-1.9136,-1.9136,-1.9136,-1.9136,-1.9136,-1.9136,-1.906,-1.9012,-1.8988,-1.8897,-1.8692,-1.8668,-1.8547,-1.8348,-1.8287,-1.8275,-1.8257,-1.7992,-1.7859,-1.7835,-1.7624,-1.7503,-1.7485,-1.7485,-1.7473,-1.7461,-1.7443,-1.7322,-1.7111,-1.7074,-1.6942,-1.6712,-1.6676,-1.6549,-1.6302,-1.626,-1.6133,-1.594,-1.5891,-1.5885,-1.5885,-1.5885,-1.5885,-1.5945,-1.6217,-1.6477,-1.673,-1.706,-1.7331,-1.7582,-1.7589,-1.7589,-1.7589,-1.7589,-1.7589,-1.7589,-1.7589,-1.7589,-1.7589,-1.7589,-1.7589,-1.7589,-1.7589,-1.7589,-1.7589,-1.7589,-1.8048,-1.902,-1.9228,-1.9901,-2.0885,-2.2114,-2.2526,-2.2778,-2.3587,-2.4152,-2.4211,-2.4211,-2.4211,-2.4211,-2.4211,-2.4211,-2.4211,-2.4211,-2.4211,-2.4211,-2.4211,-2.4211,-2.4211,-2.4211,-2.4211,-2.4211,-2.4211,-2.4211,-2.4211,-2.4211,-2.4211,-2.4211,-2.4211,-2.4211,-2.4211,-2.4211,-2.4211,-2.4211,-2.4211,-2.4119,-2.4036,-2.3749,-2.3474,-1.7829,-1.9078,-1.9136,-1.9136,-1.9136,-1.9136,-1.9136,-1.9136,-1.9136,-1.9136,-1.9136,-1.9136,-1.9136,-1.9136,-1.9136,-1.903,-1.8939,-1.8939,-1.8879,-1.8776,-1.8625,-1.8541,-1.8511,-1.8269,-1.8143,-1.81,-1.7859,-1.7642,-1.7491,-1.7485,-1.7485,-1.7485,-1.7485,-1.743,-1.7352,-1.734,-1.7213,-1.6978,-1.6948,-1.6821,-1.6555,-1.6386,-1.6241,-1.6139,-1.5976,-1.5885,-1.5885,-1.5885,-1.5885,-1.5885,-1.6158,-1.6424,-1.673,-1.716,-1.7483,-1.7582,-1.7589,-1.7589,-1.7589,-1.7589,-1.7589,-1.7589,-1.7589,-1.7589,-1.7589,-1.7589,-1.7589,-1.7589,-1.7589,-1.7589,-1.7589,-1.7589,-1.8048,-1.8968,-1.9228,-1.9591,-2.0775,-2.1802,-2.2476,-2.2677,-2.3488,-2.4152,-2.4211,-2.4211,-2.4211,-2.4211,-2.4211,-2.4211,-2.4211,-2.4211,-2.4211,-2.4211,-2.4211,-2.4211,-2.4211,-2.4211,-2.4211,-2.4211,-2.4211,-2.4211,-2.4211,-2.4248,-2.4266,-2.4229,-2.422,-2.4238,-2.4248,-2.4211,-2.4211,-2.4211,-2.4211,-2.4211,-2.4202,-2.3941,-2.3767,-1.7829,-1.9008,-1.9136,-1.9136,-1.9136,-1.9136,-1.9136,-1.9136,-1.9136,-1.9136,-1.9136,-1.9136,-1.9136,-1.9136,-1.9136,-1.9136,-1.9136,-1.9072,-1.9136,-1.906,-1.8891,-1.8807,-1.8764,-1.8541,-1.8426,-1.836,-1.8046,-1.7781,-1.7618,-1.7521,-1.7485,-1.7485,-1.7485,-1.7485,-1.7485,-1.7485,-1.7382,-1.7243,-1.7213,-1.7092,-1.6839,-1.6658,-1.6507,-1.6392,-1.6157,-1.5976,-1.5897,-1.5885,-1.5885,-1.5945,-1.6051,-1.6318,-1.6677,-1.7206,-1.7536,-1.7582,-1.7589,-1.7589,-1.7589,-1.7589,-1.7589,-1.7589,-1.7589,-1.7589,-1.7589,-1.7589,-1.7589,-1.7589,-1.7589,-1.7589,-1.7589,-1.7589,-1.7898,-1.8558,-1.8708,-1.8975,-1.9805,-2.1089,-2.2215,-2.3038,-2.3746,-2.4152,-2.4211,-2.4211,-2.4211,-2.4211,-2.4211,-2.4211,-2.4211,-2.4211,-2.4211,-2.4211,-2.4211,-2.4211,-2.4211,-2.4202,-2.4152,-2.4102,-2.4211,-2.4211,-2.4189,-2.4235,-2.4194,-2.4207,-2.4207,-2.4284,-2.4266,-2.422,-2.4211,-2.4211,-2.4211,-2.4211,-2.4211,-2.4211,-2.3978,-1.7765,-1.9008,-1.9136,-1.9136,-1.9136,-1.9136,-1.9136,-1.9136,-1.9136,-1.9136,-1.9136,-1.9136,-1.9136,-1.9136,-1.9136,-1.9136,-1.9136,-1.9136,-1.9136,-1.9066,-1.9054,-1.9106,-1.9024,-1.8801,-1.8662,-1.8625,-1.8149,-1.7895,-1.7889,-1.763,-1.7515,-1.7491,-1.7485,-1.7485,-1.7485,-1.7479,-1.7479,-1.7449,-1.7443,-1.7334,-1.7123,-1.7044,-1.6917,-1.6706,-1.6447,-1.6199,-1.5946,-1.5903,-1.5885,-1.5885,-1.5945,-1.6146,-1.663,-1.7067,-1.7325,-1.7536,-1.7589,-1.7589,-1.7589,-1.7589,-1.7589,-1.7589,-1.7589,-1.7589,-1.7589,-1.7589,-1.7589,-1.7589,-1.7589,-1.7589,-1.7589,-1.7589,-1.7635,-1.7635,-1.7793,-1.7845,-1.8206,-1.9642,-2.1751,-2.3538,-2.4202,-2.4211,-2.4211,-2.4211,-2.4211,-2.4211,-2.4211,-2.4211,-2.4211,-2.4211,-2.4211,-2.4211,-2.4152,-2.4152,-2.4152,-2.4152,-2.4093,-2.4044,-2.4152,-2.4211,-2.4108,-2.4153,-2.3863,-2.3786,-2.3799,-2.3867,-2.4248,-2.4211,-2.4211,-2.4211,-2.4211,-2.4211,-2.4211,-2.4211,-2.4211,-1.692,-1.9008,-1.9136,-1.9136,-1.9136,-1.9136,-1.9136,-1.9136,-1.9136,-1.9136,-1.9136,-1.9136,-1.9136,-1.9136,-1.9136,-1.9136,-1.9136,-1.9136,-1.9136,-1.9136,-1.9136,-1.9136,-1.9054,-1.8994,-1.8861,-1.8692,-1.8523,-1.8227,-1.7986,-1.7793,-1.7731,-1.7521,-1.7485,-1.7485,-1.7485,-1.7485,-1.7485,-1.7485,-1.7485,-1.7436,-1.7346,-1.7183,-1.705,-1.696,-1.6718,-1.6525,-1.6441,-1.6091,-1.5897,-1.5897,-1.5885,-1.6051,-1.6424,-1.6908,-1.7232,-1.7331,-1.7483,-1.7589,-1.7589,-1.7589,-1.7589,-1.7589,-1.7589,-1.7589,-1.7589,-1.7589,-1.7589,-1.7589,-1.7589,-1.7589,-1.7589,-1.7589,-1.7589,-1.7589,-1.7589,-1.7635,-1.8003,-1.9591,-2.1751,-2.3696,-2.4211,-2.4211,-2.4211,-2.4211,-2.4211,-2.4211,-2.4211,-2.4211,-2.4152,-2.4053,-2.4211,-2.4211,-2.4152,-2.3696,-2.3288,-2.2979,-2.2878,-2.297,-2.3229,-2.3488,-2.3541,-2.3557,-2.3355,-2.3406,-2.3408,-2.3616,-2.4008,-2.4211,-2.4211,-2.4211,-2.4211,-2.4211,-2.4211,-2.4211,-2.4211,-1.6532,-1.9008,-1.9136,-1.9136,-1.9136,-1.9136,-1.9136,-1.9136,-1.9136,-1.9136,-1.9136,-1.9136,-1.9136,-1.9136,-1.9136,-1.9136,-1.9136,-1.9136,-1.9136,-1.9136,-1.9136,-1.9136,-1.9136,-1.9136,-1.9006,-1.8837,-1.8728,-1.8517,-1.8185,-1.7968,-1.7793,-1.7648,-1.7533,-1.7485,-1.7485,-1.7485,-1.7485,-1.7485,-1.7485,-1.7485,-1.7455,-1.7322,-1.7237,-1.7201,-1.6984,-1.6857,-1.6815,-1.6416,-1.6139,-1.6036,-1.5946,-1.6051,-1.6271,-1.6649,-1.6961,-1.7173,-1.7325,-1.7483,-1.7582,-1.7589,-1.7589,-1.7589,-1.7589,-1.7589,-1.7589,-1.7589,-1.7589,-1.7589,-1.7589,-1.7589,-1.7589,-1.7589,-1.7589,-1.7589,-1.7589,-1.7996,-1.8722,-2.0012,-2.1802,-2.3538,-2.4211,-2.4211,-2.4211,-2.4211,-2.4211,-2.4211,-2.4211,-2.3895,-2.3746,-2.3546,-2.3447,-2.3188,-2.2719,-2.2316,-2.2013,-2.181,-2.1599,-2.1802,-2.2055,-2.2257,-2.2434,-2.2443,-2.2331,-2.2885,-2.3055,-2.3462,-2.3795,-2.4102,-2.4211,-2.4211,-2.4211,-2.4211,-2.4211,-2.4211,-2.4211,-1.6408,-1.888,-1.8944,-1.9008,-1.9072,-1.9136,-1.9136,-1.9136,-1.9136,-1.9136,-1.9136,-1.9136,-1.9136,-1.9136,-1.9136,-1.9136,-1.9136,-1.9136,-1.9136,-1.9136,-1.9136,-1.9136,-1.9136,-1.9136,-1.9054,-1.9006,-1.8831,-1.8704,-1.8571,-1.8203,-1.7955,-1.7829,-1.7636,-1.7491,-1.7491,-1.7485,-1.7485,-1.7485,-1.7485,-1.7485,-1.7485,-1.7467,-1.7461,-1.7449,-1.7237,-1.7111,-1.7074,-1.6827,-1.6555,-1.629,-1.6048,-1.6041,-1.6223,-1.6271,-1.6596,-1.7067,-1.7179,-1.7331,-1.7536,-1.7582,-1.7589,-1.7589,-1.7589,-1.7589,-1.7589,-1.7589,-1.7582,-1.7536,-1.7582,-1.7589,-1.7589,-1.7582,-1.7589,-1.7589,-1.7589,-1.8408,-2.0321,-2.068,-2.165,-2.3329,-2.4053,-2.4152,-2.4102,-2.4211,-2.4211,-2.4152,-2.4053,-2.3488,-2.2929,-2.2577,-2.1962,-2.17,-2.1599,-2.1183,-2.0979,-2.0723,-2.0518,-2.0055,-2.0459,-2.0877,-2.1234,-2.1317,-2.149,-2.2067,-2.2494,-2.3007,-2.3696,-2.4003,-2.4202,-2.4211,-2.4211,-2.4211,-2.4211,-2.4202,-2.4152,-1.4963,-1.7501,-1.7566,-1.8156,-1.9008,-1.9136,-1.9136,-1.9136,-1.9136,-1.9136,-1.9136,-1.9136,-1.9136,-1.9136,-1.9136,-1.9136,-1.9136,-1.9136,-1.9136,-1.9136,-1.9136,-1.9136,-1.9136,-1.9136,-1.9136,-1.9054,-1.8988,-1.8873,-1.8692,-1.8511,-1.8257,-1.7877,-1.7805,-1.766,-1.7515,-1.7485,-1.7485,-1.7485,-1.7485,-1.7485,-1.7485,-1.7485,-1.7485,-1.7473,-1.7406,-1.737,-1.7352,-1.7129,-1.6754,-1.632,-1.6223,-1.6139,-1.6059,-1.6189,-1.6402,-1.6615,-1.6967,-1.7226,-1.7331,-1.7477,-1.7582,-1.7589,-1.7589,-1.7589,-1.7589,-1.7582,-1.7477,-1.743,-1.7483,-1.7477,-1.7384,-1.7483,-1.7582,-1.7589,-1.7589,-1.8146,-1.9339,-1.9694,-2.0511,-2.2467,-2.2929,-2.3288,-2.3795,-2.4003,-2.4003,-2.3895,-2.3438,-2.2778,-2.2114,-2.1599,-2.0987,-2.1089,-2.0936,-2.0416,-1.9996,-1.9738,-1.9272,-1.8506,-1.8715,-1.9383,-1.9849,-2.022,-2.0568,-2.1067,-2.1245,-2.1658,-2.3129,-2.4143,-2.4152,-2.3845,-2.3845,-2.3696,-2.4003,-2.4102,-2.4053,-1.4441,-1.698,-1.698,-1.7829,-1.9008,-1.9136,-1.9136,-1.9136,-1.9136,-1.9136,-1.9136,-1.9136,-1.9136,-1.9136,-1.9136,-1.9136,-1.9136,-1.9136,-1.9136,-1.9136,-1.9136,-1.9136,-1.9136,-1.9136,-1.9136,-1.9136,-1.9136,-1.8994,-1.8855,-1.874,-1.8444,-1.8106,-1.7931,-1.7738,-1.7497,-1.7485,-1.7485,-1.7485,-1.7485,-1.7485,-1.7485,-1.7485,-1.7485,-1.7485,-1.7485,-1.7485,-1.7455,-1.7334,-1.7008,-1.6585,-1.6453,-1.6386,-1.6241,-1.6277,-1.633,-1.6437,-1.6819,-1.7008,-1.7226,-1.743,-1.7582,-1.7589,-1.7536,-1.7536,-1.7529,-1.7424,-1.716,-1.7226,-1.7219,-1.716,-1.7054,-1.716,-1.7213,-1.7213,-1.7325,-1.7943,-1.9079,-1.9228,-2.0004,-2.1242,-2.1861,-2.2013,-2.2769,-2.282,-2.282,-2.2669,-2.2215,-2.1599,-2.103,-2.0518,-2.0063,-1.996,-1.9753,-1.9183,-1.8923,-1.8767,-1.8715,-1.7943,-1.7838,-1.8408,-1.8722,-1.9235,-1.9813,-2.0181,-2.0166,-2.0775,-2.256,-2.3529,-2.2979,-2.2778,-2.2979,-2.2929,-2.3029,-2.3696,-2.3696,-1.4184,-1.6586,-1.6721,-1.7636,-1.8746,-1.9008,-1.9136,-1.9136,-1.9136,-1.9136,-1.9136,-1.9136,-1.9136,-1.9136,-1.9136,-1.9136,-1.9136,-1.9136,-1.9136,-1.9136,-1.9136,-1.9136,-1.9136,-1.9136,-1.9136,-1.9136,-1.9136,-1.9066,-1.8994,-1.8825,-1.8601,-1.8336,-1.807,-1.7793,-1.7599,-1.7515,-1.7485,-1.7485,-1.7485,-1.7485,-1.7485,-1.7485,-1.7485,-1.7485,-1.7485,-1.7485,-1.7485,-1.7436,-1.7249,-1.6809,-1.6761,-1.6706,-1.6658,-1.6429,-1.6454,-1.6636,-1.6759,-1.6955,-1.7224,-1.7463,-1.7602,-1.7556,-1.7371,-1.7279,-1.7318,-1.7047,-1.6842,-1.6961,-1.6849,-1.6783,-1.6783,-1.673,-1.6783,-1.6836,-1.7008,-1.774,-1.861,-1.902,-1.9495,-2.0526,-2.0723,-2.0731,-2.0885,-2.0885,-2.0987,-2.17,-2.1191,-2.057,-1.9952,-1.9435,-1.8826,-1.8311,-1.8101,-1.7845,-1.7793,-1.774,-1.7845,-1.7635,-1.7635,-1.7898,-1.7898,-1.8415,-1.9079,-1.9495,-1.9694,-2.0716,-2.2459,-2.2669,-2.1903,-2.1802,-2.2013,-2.1548,-2.1242,-2.2476,-2.2979,-1.2161,-1.3796,-1.4907,-1.6138,-1.7501,-1.8617,-1.9072,-1.9136,-1.9136,-1.9136,-1.9136,-1.9136,-1.9136,-1.9136,-1.9136,-1.9136,-1.9136,-1.9136,-1.9136,-1.9136,-1.9136,-1.9136,-1.9136,-1.9136,-1.9136,-1.9136,-1.9136,-1.9136,-1.9042,-1.8994,-1.8918,-1.8583,-1.8294,-1.8058,-1.7858,-1.7569,-1.7485,-1.7485,-1.7485,-1.7485,-1.7485,-1.7485,-1.7485,-1.7485,-1.7485,-1.7485,-1.7485,-1.7485,-1.7424,-1.7298,-1.7117,-1.6936,-1.6779,-1.6664,-1.6671,-1.6752,-1.6938,-1.7158,-1.7421,-1.7514,-1.7613,-1.7546,-1.7349,-1.7113,-1.6895,-1.6802,-1.659,-1.659,-1.6583,-1.6624,-1.6624,-1.667,-1.6624,-1.6677,-1.6736,-1.6948,-1.7252,-1.7681,-1.8461,-1.9228,-1.9591,-1.9901,-2.068,-2.0629,-2.0629,-2.0731,-2.021,-1.9531,-1.902,-1.8461,-1.8048,-1.7589,-1.7589,-1.7589,-1.7589,-1.7589,-1.7589,-1.7589,-1.7589,-1.7589,-1.7589,-1.774,-1.8513,-1.8975,-1.928,-2.0562,-2.1895,-2.154,-2.0723,-2.0885,-2.0987,-2.0526,-2.0526,-2.1599,-2.2274,-1.1508,-1.2816,-1.3604,-1.5098,-1.6915,-1.7829,-1.8483,-1.9008,-1.9136,-1.9136,-1.9136,-1.9136,-1.9136,-1.9136,-1.9136,-1.9136,-1.9136,-1.9136,-1.9136,-1.9136,-1.9136,-1.9136,-1.9136,-1.9136,-1.9136,-1.9136,-1.9136,-1.9136,-1.9136,-1.9054,-1.8927,-1.868,-1.8426,-1.8137,-1.7877,-1.7624,-1.7497,-1.7485,-1.7485,-1.7485,-1.7485,-1.7485,-1.7485,-1.7485,-1.7485,-1.7485,-1.7485,-1.7485,-1.7485,-1.7449,-1.7346,-1.7219,-1.7068,-1.6948,-1.6887,-1.6926,-1.7017,-1.7142,-1.7302,-1.7461,-1.7531,-1.7524,-1.7322,-1.708,-1.6816,-1.6665,-1.6483,-1.6361,-1.6318,-1.6311,-1.6311,-1.6311,-1.6311,-1.6365,-1.6424,-1.653,-1.6577,-1.6895,-1.7424,-1.8042,-1.8251,-1.8558,-1.9079,-1.9546,-1.9443,-1.9079,-1.9034,-1.8461,-1.8408,-1.7943,-1.7845,-1.7589,-1.7589,-1.7589,-1.7589,-1.7589,-1.7589,-1.7589,-1.7589,-1.7589,-1.7589,-1.7793,-1.8042,-1.8454,-1.8916,-1.9591,-2.057,-2.0012,-1.9746,-1.9797,-1.9797,-1.9539,-1.9797,-2.0621,-2.1242,-1.1442,-1.2487,-1.2684,-1.418,-1.6198,-1.6592,-1.7442,-1.8617,-1.8746,-1.8816,-1.9136,-1.9136,-1.9136,-1.9136,-1.9136,-1.9136,-1.9136,-1.9136,-1.9136,-1.9136,-1.9136,-1.9136,-1.9136,-1.9136,-1.9136,-1.9136,-1.9136,-1.9136,-1.9136,-1.906,-1.8976,-1.874,-1.8493,-1.8257,-1.7962,-1.769,-1.7539,-1.7497,-1.7485,-1.7485,-1.7485,-1.7485,-1.7485,-1.7485,-1.7485,-1.7485,-1.7485,-1.7485,-1.7485,-1.7485,-1.7485,-1.7485,-1.743,-1.7304,-1.7153,-1.7147,-1.7206,-1.7252,-1.7397,-1.7478,-1.7534,-1.7478,-1.7235,-1.7073,-1.6954,-1.6605,-1.6374,-1.6245,-1.616,-1.5992,-1.5885,-1.5992,-1.5939,-1.5945,-1.6111,-1.6217,-1.6264,-1.6471,-1.6743,-1.7107,-1.7364,-1.7674,-1.7733,-1.7943,-1.7681,-1.7529,-1.7582,-1.7589,-1.7589,-1.7589,-1.7589,-1.7589,-1.7589,-1.7589,-1.7589,-1.7589,-1.7589,-1.7589,-1.7589,-1.7589,-1.7589,-1.7687,-1.7891,-1.8199,-1.8662,-1.9183,-1.9235,-1.8871,-1.8715,-1.8715,-1.8715,-1.867,-1.9079,-1.9702,-2.0416,-1.085,-1.1178,-1.2293,-1.3079,-1.3661,-1.4707,-1.6073,-1.7179,-1.7431,-1.8022,-1.9008,-1.9136,-1.9136,-1.9136,-1.9136,-1.9136,-1.9136,-1.9136,-1.9136,-1.9136,-1.9136,-1.9136,-1.9136,-1.9136,-1.9136,-1.9136,-1.9136,-1.9136,-1.9136,-1.9066,-1.903,-1.8951,-1.8728,-1.8463,-1.8191,-1.7943,-1.766,-1.7503,-1.7485,-1.7485,-1.7485,-1.7485,-1.7485,-1.7485,-1.7485,-1.7485,-1.7485,-1.7485,-1.7485,-1.7485,-1.7485,-1.7485,-1.7473,-1.7424,-1.7394,-1.737,-1.738,-1.7481,-1.7654,-1.7576,-1.7552,-1.7478,-1.7309,-1.7005,-1.682,-1.6551,-1.6381,-1.6229,-1.6072,-1.5897,-1.5885,-1.5885,-1.5885,-1.5945,-1.5945,-1.5998,-1.5998,-1.6105,-1.6258,-1.663,-1.6736,-1.6836,-1.7001,-1.716,-1.7213,-1.7318,-1.7424,-1.7483,-1.7536,-1.7589,-1.7589,-1.7589,-1.7589,-1.7589,-1.7589,-1.7589,-1.7589,-1.7589,-1.7589,-1.7589,-1.7589,-1.7589,-1.7793,-1.7996,-1.7996,-1.8153,-1.8048,-1.7838,-1.7943,-1.8153,-1.7996,-1.7898,-1.8617,-1.9391,-2.057,-1.0721,-1.0787,-1.1442,-1.2165,-1.2816,-1.3473,-1.4642,-1.5949,-1.6651,-1.7367,-1.8092,-1.8746,-1.9136,-1.9136,-1.9136,-1.9136,-1.9136,-1.9136,-1.9136,-1.9136,-1.9136,-1.9136,-1.9136,-1.9136,-1.9136,-1.9136,-1.9136,-1.9136,-1.9136,-1.9136,-1.9136,-1.9012,-1.8813,-1.8553,-1.8287,-1.8004,-1.775,-1.7545,-1.7485,-1.7485,-1.7485,-1.7485,-1.7485,-1.7485,-1.7485,-1.7485,-1.7485,-1.7485,-1.7485,-1.7485,-1.7485,-1.7485,-1.7485,-1.7485,-1.7485,-1.7485,-1.7485,-1.7543,-1.7719,-1.7579,-1.7524,-1.7511,-1.7377,-1.7204,-1.6974,-1.6773,-1.6561,-1.6314,-1.6205,-1.603,-1.591,-1.5891,-1.5885,-1.5885,-1.5885,-1.5885,-1.5885,-1.5885,-1.6099,-1.6311,-1.6418,-1.6577,-1.673,-1.6842,-1.6955,-1.706,-1.7219,-1.7325,-1.743,-1.7483,-1.7536,-1.7589,-1.7589,-1.7589,-1.7589,-1.7589,-1.7589,-1.7589,-1.7589,-1.7589,-1.7589,-1.7589,-1.7589,-1.7687,-1.7641,-1.7589,-1.7641,-1.774,-1.7635,-1.7589,-1.7687,-1.7845,-1.8408,-1.9183,-2.0261,-1.0721,-1.0721,-1.0721,-1.1376,-1.2289,-1.2359,-1.321,-1.4511,-1.5614,-1.6198,-1.6721,-1.7636,-1.8291,-1.8682,-1.8944,-1.9136,-1.9136,-1.9136,-1.9136,-1.9136,-1.9136,-1.9136,-1.9136,-1.9136,-1.9136,-1.9136,-1.9136,-1.9136,-1.9136,-1.9136,-1.9136,-1.903,-1.8849,-1.8589,-1.8312,-1.81,-1.7799,-1.7569,-1.7485,-1.7485,-1.7485,-1.7485,-1.7485,-1.7485,-1.7485,-1.7485,-1.7485,-1.7485,-1.7485,-1.7485,-1.7485,-1.7485,-1.7485,-1.7485,-1.7485,-1.7485,-1.7485,-1.7485,-1.7479,-1.7531,-1.7495,-1.7489,-1.7467,-1.7352,-1.7213,-1.7032,-1.6839,-1.6423,-1.6266,-1.6145,-1.594,-1.5885,-1.5885,-1.5885,-1.5885,-1.5885,-1.5885,-1.5885,-1.5885,-1.6051,-1.6164,-1.6264,-1.6418,-1.6577,-1.6643,-1.6743,-1.6902,-1.7166,-1.7279,-1.7378,-1.743,-1.7589,-1.7589,-1.7589,-1.7589,-1.7589,-1.7589,-1.7589,-1.7589,-1.7589,-1.7589,-1.7589,-1.7589,-1.7589,-1.7589,-1.7589,-1.7589,-1.7589,-1.7589,-1.7589,-1.7589,-1.7943,-1.861,-1.9027,-1.9746,-1.0721,-1.0721,-1.0721,-1.0787,-1.0982,-1.1045,-1.1769,-1.3013,-1.3403,-1.4054,-1.5163,-1.5429,-1.6273,-1.7372,-1.8547,-1.9008,-1.9136,-1.9136,-1.9136,-1.9136,-1.9136,-1.9136,-1.9136,-1.9136,-1.9136,-1.9136,-1.9136,-1.9136,-1.9136,-1.9136,-1.9136,-1.9112,-1.9,-1.8782,-1.8324,-1.8221,-1.798,-1.7575,-1.7485,-1.7485,-1.7485,-1.7485,-1.7485,-1.7485,-1.7485,-1.7485,-1.7485,-1.7485,-1.7485,-1.7485,-1.7485,-1.7485,-1.7485,-1.7485,-1.7485,-1.7485,-1.7485,-1.7485,-1.7485,-1.7485,-1.7485,-1.7485,-1.7485,-1.7461,-1.737,-1.7201,-1.6917,-1.635,-1.6302,-1.6199,-1.6,-1.5897,-1.5891,-1.5885,-1.5885,-1.5885,-1.5885,-1.5885,-1.5885,-1.5885,-1.6051,-1.5998,-1.6045,-1.6211,-1.6383,-1.643,-1.6583,-1.6855,-1.7067,-1.7166,-1.7213,-1.7318,-1.7483,-1.7483,-1.7536,-1.7536,-1.7582,-1.7589,-1.7589,-1.7589,-1.7589,-1.7589,-1.7589,-1.7589,-1.7589,-1.7589,-1.7589,-1.7589,-1.7589,-1.7589,-1.7589,-1.8199,-1.8968,-1.9228,-1.9235,-1.0721,-1.0721,-1.0721,-1.0721,-1.0721,-1.0721,-1.1049,-1.1703,-1.2487,-1.3144,-1.3796,-1.4646,-1.5684,-1.6845,-1.7765,-1.8349,-1.8938,-1.9008,-1.9072,-1.9072,-1.9072,-1.9072,-1.9136,-1.9136,-1.9136,-1.9136,-1.9136,-1.9136,-1.9136,-1.9136,-1.9136,-1.9136,-1.9042,-1.8807,-1.8348,-1.83,-1.7968,-1.7636,-1.7485,-1.7485,-1.7485,-1.7485,-1.7485,-1.7485,-1.7485,-1.7485,-1.7485,-1.7485,-1.7485,-1.7485,-1.7485,-1.7485,-1.7485,-1.7485,-1.7485,-1.7485,-1.7485,-1.7485,-1.7485,-1.7485,-1.7485,-1.7485,-1.7485,-1.7479,-1.7455,-1.7364,-1.7165,-1.6791,-1.6604,-1.6398,-1.6133,-1.597,-1.591,-1.5885,-1.5885,-1.5885,-1.5885,-1.5885,-1.5885,-1.5885,-1.5885,-1.5885,-1.5885,-1.5998,-1.6164,-1.6158,-1.6318,-1.6537,-1.669,-1.6789,-1.6895,-1.6995,-1.7166,-1.7331,-1.7437,-1.749,-1.7529,-1.7582,-1.7582,-1.7582,-1.7589,-1.7589,-1.7589,-1.7589,-1.7589,-1.7589,-1.7589,-1.7589,-1.7589,-1.7589,-1.7589,-1.8101,-1.8454,-1.8304,-1.8363,-1.0721,-1.0721,-1.0721,-1.0721,-1.0721,-1.0721,-1.0721,-1.085,-1.1769,-1.2227,-1.2618,-1.3665,-1.4968,-1.5874,-1.6328,-1.7179,-1.8419,-1.8226,-1.8617,-1.8816,-1.881,-1.874,-1.9002,-1.9136,-1.9136,-1.9136,-1.9136,-1.9136,-1.9136,-1.9136,-1.9136,-1.9136,-1.9136,-1.8776,-1.8432,-1.8257,-1.8022,-1.7539,-1.7485,-1.7485,-1.7485,-1.7485,-1.7485,-1.7485,-1.7485,-1.7485,-1.7485,-1.7485,-1.7485,-1.7485,-1.7485,-1.7485,-1.7485,-1.7485,-1.7485,-1.7485,-1.7485,-1.7485,-1.7485,-1.7485,-1.7485,-1.7485,-1.7485,-1.7485,-1.7479,-1.7479,-1.737,-1.7044,-1.6911,-1.6634,-1.6344,-1.6091,-1.5994,-1.5934,-1.5885,-1.5885,-1.5885,-1.5885,-1.5885,-1.5885,-1.5885,-1.5885,-1.5885,-1.5885,-1.5939,-1.5945,-1.6051,-1.6217,-1.6371,-1.6524,-1.6677,-1.6783,-1.6895,-1.706,-1.7113,-1.7219,-1.7371,-1.7529,-1.7529,-1.7582,-1.7582,-1.7589,-1.7589,-1.7589,-1.7589,-1.7589,-1.7589,-1.7589,-1.7589,-1.7589,-1.7589,-1.7589,-1.774,-1.7589,-1.7641,-1.0721,-1.0721,-1.0721,-1.0721,-1.0721,-1.0721,-1.0721,-1.0721,-1.085,-1.0982,-1.1244,-1.2293,-1.3079,-1.3534,-1.4707,-1.5814,-1.7044,-1.5819,-1.6861,-1.7765,-1.7958,-1.7958,-1.8419,-1.881,-1.9002,-1.9136,-1.9136,-1.9136,-1.9136,-1.9136,-1.9136,-1.9136,-1.9136,-1.8746,-1.8414,-1.8185,-1.795,-1.7563,-1.7485,-1.7485,-1.7485,-1.7485,-1.7485,-1.7485,-1.7485,-1.7485,-1.7485,-1.7485,-1.7485,-1.7485,-1.7485,-1.7485,-1.7485,-1.7485,-1.7485,-1.7485,-1.7485,-1.7485,-1.7485,-1.7485,-1.7485,-1.7485,-1.7485,-1.7485,-1.7485,-1.7485,-1.7352,-1.7165,-1.7056,-1.6791,-1.6489,-1.6241,-1.6109,-1.5952,-1.5885,-1.5885,-1.5885,-1.5885,-1.5885,-1.5885,-1.5885,-1.5885,-1.5885,-1.5885,-1.5885,-1.5891,-1.5945,-1.6105,-1.6211,-1.6371,-1.6518,-1.6624,-1.6677,-1.6736,-1.6736,-1.6895,-1.716,-1.7325,-1.743,-1.7477,-1.7582,-1.7582,-1.7589,-1.7589,-1.7589,-1.7589,-1.7589,-1.7589,-1.7589,-1.7589,-1.7589,-1.7589,-1.7589,-1.7589,-1.7589,-1.0522,-1.0717,-1.0721,-1.0721,-1.0721,-1.0721,-1.0721,-1.0721,-1.0721,-1.0721,-1.0721,-1.131,-1.2033,-1.2754,-1.3276,-1.4381,-1.5489,-1.5233,-1.5754,-1.6014,-1.6078,-1.6597,-1.7378,-1.7958,-1.8215,-1.8874,-1.9072,-1.9072,-1.9136,-1.9136,-1.9136,-1.9136,-1.9136,-1.874,-1.8408,-1.801,-1.7696,-1.7587,-1.7485,-1.7485,-1.7485,-1.7485,-1.7485,-1.7485,-1.7485,-1.7485,-1.7485,-1.7485,-1.7485,-1.7485,-1.7485,-1.7485,-1.7485,-1.7485,-1.7485,-1.7485,-1.7485,-1.7485,-1.7485,-1.7485,-1.7485,-1.7485,-1.7485,-1.7485,-1.7485,-1.7485,-1.7455,-1.7322,-1.7177,-1.6923,-1.6646,-1.6392,-1.6193,-1.5988,-1.5885,-1.5885,-1.5885,-1.5885,-1.5885,-1.5885,-1.5885,-1.5885,-1.5885,-1.5885,-1.5885,-1.5885,-1.5945,-1.5945,-1.6105,-1.6158,-1.6258,-1.6358,-1.6418,-1.6471,-1.6471,-1.6743,-1.7008,-1.7166,-1.7272,-1.743,-1.7529,-1.7582,-1.7589,-1.7589,-1.7589,-1.7582,-1.7582,-1.7589,-1.7589,-1.7589,-1.7589,-1.7589,-1.7589,-1.7589,-1.7483,-1.0323,-1.0522,-1.0651,-1.0721,-1.0721,-1.0721,-1.0721,-1.0721,-1.0721,-1.0721,-1.0721,-1.0787,-1.1178,-1.1967,-1.2227,-1.2947,-1.3796,-1.3801,-1.4254,-1.4516,-1.4777,-1.5233,-1.5944,-1.6592,-1.705,-1.8162,-1.8547,-1.8483,-1.9078,-1.9136,-1.9136,-1.9136,-1.9042,-1.8752,-1.8287,-1.7787,-1.7485,-1.7485,-1.7485,-1.7485,-1.7485,-1.7485,-1.7485,-1.7485,-1.7485,-1.7485,-1.7485,-1.7485,-1.7485,-1.7485,-1.7485,-1.7485,-1.7485,-1.7485,-1.7485,-1.7485,-1.7485,-1.7485,-1.7485,-1.7485,-1.7485,-1.7485,-1.7485,-1.7485,-1.7485,-1.7485,-1.7461,-1.7455,-1.7292,-1.7092,-1.6833,-1.661,-1.635,-1.6145,-1.5922,-1.5885,-1.5885,-1.5885,-1.5885,-1.5885,-1.5885,-1.5885,-1.5885,-1.5885,-1.5885,-1.5885,-1.5885,-1.5885,-1.5939,-1.5998,-1.5992,-1.6099,-1.6099,-1.6211,-1.6324,-1.6424,-1.6583,-1.7067,-1.7219,-1.7371,-1.7477,-1.7529,-1.7589,-1.7589,-1.7582,-1.7582,-1.7477,-1.743,-1.7483,-1.7582,-1.7536,-1.743,-1.7378,-1.7325,-1.7213,-1.0193,-1.0256,-1.0522,-1.0717,-1.0717,-1.0721,-1.0721,-1.0721,-1.0721,-1.0721,-1.0721,-1.0721,-1.0721,-1.0916,-1.1111,-1.1769,-1.2359,-1.1835,-1.2227,-1.3669,-1.3272,-1.3731,-1.4516,-1.5103,-1.5684,-1.6716,-1.7302,-1.8028,-1.8886,-1.9072,-1.9072,-1.903,-1.8957,-1.874,-1.8275,-1.7756,-1.7503,-1.7485,-1.7485,-1.7485,-1.7485,-1.7485,-1.7485,-1.7485,-1.7485,-1.7485,-1.7485,-1.7485,-1.7485,-1.7485,-1.7485,-1.7485,-1.7485,-1.7485,-1.7485,-1.7485,-1.7485,-1.7485,-1.7485,-1.7485,-1.7485,-1.7485,-1.7485,-1.7485,-1.7485,-1.7485,-1.7485,-1.7473,-1.743,-1.7304,-1.7086,-1.6827,-1.6531,-1.626,-1.603,-1.5885,-1.5885,-1.5885,-1.5885,-1.5885,-1.5885,-1.5885,-1.5885,-1.5885,-1.5885,-1.5885,-1.5885,-1.5885,-1.5885,-1.5885,-1.5885,-1.5939,-1.5998,-1.6051,-1.6105,-1.6051,-1.6264,-1.6749,-1.7113,-1.716,-1.7265,-1.7318,-1.7424,-1.7529,-1.7424,-1.7265,-1.7219,-1.7226,-1.7272,-1.7265,-1.7219,-1.7173,-1.7113,-1.7054,-1.7001,-0.9721,-1.0193,-1.0323,-1.0522,-1.0721,-1.0721,-1.0721,-1.0721,-1.0721,-1.0721,-1.0721,-1.0721,-1.0721,-1.0721,-1.0721,-1.0982,-1.1178,-1.1178,-1.1769,-1.1901,-1.1703,-1.2425,-1.3144,-1.3801,-1.4385,-1.5554,-1.6398,-1.7173,-1.7636,-1.8547,-1.9072,-1.903,-1.8449,-1.8475,-1.8191,-1.7799,-1.7485,-1.7485,-1.7485,-1.7485,-1.7485,-1.7485,-1.7485,-1.7485,-1.7485,-1.7485,-1.7485,-1.7485,-1.7485,-1.7485,-1.7485,-1.7485,-1.7485,-1.7485,-1.7485,-1.7485,-1.7485,-1.7485,-1.7485,-1.7485,-1.7485,-1.7485,-1.7485,-1.7485,-1.7485,-1.7485,-1.7485,-1.7485,-1.7485,-1.7346,-1.7111,-1.6851,-1.6567,-1.629,-1.6079,-1.5934,-1.5885,-1.5885,-1.5885,-1.5885,-1.5885,-1.5885,-1.5885,-1.5885,-1.5885,-1.5885,-1.5885,-1.5885,-1.5885,-1.5885,-1.5885,-1.5885,-1.5939,-1.5945,-1.5945,-1.5998,-1.6105,-1.659,-1.6796,-1.6836,-1.6942,-1.71,-1.7047,-1.71,-1.7054,-1.6948,-1.6902,-1.6902,-1.6895,-1.6895,-1.6849,-1.6849,-1.6849,-1.6789,-1.6789,-0.9386,-0.9788,-0.999,-1.019,-1.0522,-1.0654,-1.0721,-1.0721,-1.0721,-1.0721,-1.0721,-1.0721,-1.0721,-1.0721,-1.0721,-1.0721,-1.0721,-1.0721,-1.0721,-1.0721,-1.0717,-1.1703,-1.2491,-1.2947,-1.425,-1.5294,-1.6398,-1.7179,-1.8022,-1.8682,-1.8676,-1.8163,-1.748,-1.7117,-1.7198,-1.7386,-1.7485,-1.7485,-1.7485,-1.7485,-1.7485,-1.7485,-1.7485,-1.7485,-1.7485,-1.7485,-1.7485,-1.7485,-1.7485,-1.7485,-1.7485,-1.7485,-1.7485,-1.7485,-1.7485,-1.7485,-1.7485,-1.7485,-1.7485,-1.7485,-1.7485,-1.7485,-1.7485,-1.7485,-1.7485,-1.7485,-1.7485,-1.7485,-1.7485,-1.74,-1.7219,-1.6948,-1.664,-1.6368,-1.6133,-1.5988,-1.5885,-1.5885,-1.5885,-1.5885,-1.5885,-1.5885,-1.5885,-1.5885,-1.5885,-1.5885,-1.5885,-1.5885,-1.5885,-1.5885,-1.5885,-1.5885,-1.5939,-1.5998,-1.5998,-1.6057,-1.6217,-1.643,-1.6471,-1.6571,-1.6723,-1.6889,-1.6776,-1.667,-1.6783,-1.6789,-1.6577,-1.6524,-1.6524,-1.6471,-1.6424,-1.6424,-1.653,-1.6524,-1.6524,-0.9117,-0.9183,-0.9525,-0.9857,-1.0259,-1.0588,-1.0721,-1.0721,-1.0721,-1.0721,-1.0721,-1.0721,-1.0721,-1.0721,-1.0721,-1.0721,-1.0721,-1.0721,-1.0721,-1.0721,-1.0721,-1.1641,-1.2165,-1.2622,-1.3464,-1.5414,-1.6457,-1.6398,-1.8419,-1.8226,-1.7636,-1.6877,-1.5625,-1.5649,-1.6134,-1.6528,-1.6985,-1.7303,-1.7485,-1.7485,-1.7485,-1.7303,-1.7303,-1.7303,-1.7303,-1.7303,-1.7361,-1.7485,-1.7485,-1.7485,-1.7485,-1.7485,-1.7485,-1.7485,-1.7485,-1.7485,-1.7485,-1.7485,-1.7485,-1.7485,-1.7485,-1.7485,-1.7485,-1.7485,-1.7485,-1.7485,-1.7485,-1.7485,-1.7485,-1.7485,-1.7406,-1.7074,-1.6742,-1.6471,-1.6193,-1.6042,-1.5922,-1.5885,-1.5885,-1.5885,-1.5885,-1.5885,-1.5885,-1.5885,-1.5885,-1.5885,-1.5885,-1.5885,-1.5885,-1.5885,-1.5885,-1.5885,-1.5945,-1.6051,-1.6051,-1.6051,-1.6105,-1.6264,-1.6264,-1.6311,-1.6465,-1.6571,-1.6465,-1.6465,-1.6571,-1.6571,-1.6365,-1.6158,-1.6045,-1.5992,-1.6105,-1.6158,-1.6264,-1.6158,-1.6099,-0.8917,-0.9117,-0.9186,-0.9588,-1.019,-1.0522,-1.0721,-1.0721,-1.0721,-1.0721,-1.0721,-1.0721,-1.0721,-1.0721,-1.0721,-1.0721,-1.0721,-1.0721,-1.0721,-1.0721,-1.0721,-1.0982,-1.131,-1.1637,-1.2095,-1.2812,-1.3792,-1.4833,-1.4903,-1.5559,-1.6143,-1.536,-1.4414,-1.4456,-1.4627,-1.4842,-1.5899,-1.6826,-1.712,-1.7126,-1.6944,-1.6526,-1.6703,-1.6826,-1.6408,-1.6526,-1.7003,-1.7303,-1.7361,-1.742,-1.7479,-1.7485,-1.7485,-1.7485,-1.7485,-1.7485,-1.7485,-1.7485,-1.7485,-1.7485,-1.7485,-1.7485,-1.7485,-1.7485,-1.7485,-1.7485,-1.7485,-1.7485,-1.7485,-1.7485,-1.7418,-1.7159,-1.6893,-1.6658,-1.6368,-1.6127,-1.6,-1.591,-1.5903,-1.5885,-1.5885,-1.5885,-1.5885,-1.5885,-1.5885,-1.5885,-1.5885,-1.5885,-1.5885,-1.5885,-1.5885,-1.5885,-1.5939,-1.5998,-1.5998,-1.5945,-1.5998,-1.6051,-1.6051,-1.6105,-1.6152,-1.6199,-1.6152,-1.6205,-1.6305,-1.6205,-1.6051,-1.5945,-1.5885,-1.5885,-1.5992,-1.5998,-1.6004,-1.5945,-1.5885,-0.872,-0.8917,-0.892,-0.9319,-0.9994,-1.0326,-1.0588,-1.0721,-1.0721,-1.0721,-1.0721,-1.0721,-1.0721,-1.0721,-1.0721,-1.0721,-1.0721,-1.0721,-1.0721,-1.0721,-1.0721,-1.1244,-1.131,-1.1505,-1.2227,-1.2425,-1.3013,-1.4189,-1.36,-1.3525,-1.4045,-1.3902,-1.3287,-1.3148,-1.3159,-1.3299,-1.4052,-1.5154,-1.5865,-1.5989,-1.5752,-1.5332,-1.5569,-1.5752,-1.5159,-1.5515,-1.6048,-1.6408,-1.6767,-1.6944,-1.7003,-1.7485,-1.7485,-1.7485,-1.7485,-1.7485,-1.7485,-1.7485,-1.7485,-1.7485,-1.7485,-1.7485,-1.7485,-1.7485,-1.7485,-1.7485,-1.7485,-1.7485,-1.7485,-1.7467,-1.737,-1.7249,-1.7062,-1.6869,-1.6549,-1.6284,-1.6085,-1.5958,-1.5916,-1.5891,-1.5885,-1.5885,-1.5885,-1.5885,-1.5885,-1.5885,-1.5885,-1.5885,-1.5885,-1.5885,-1.5885,-1.5885,-1.5885,-1.5939,-1.5885,-1.5885,-1.5939,-1.5945,-1.5939,-1.5939,-1.5885,-1.5939,-1.5992,-1.5992,-1.5939,-1.5945,-1.5945,-1.5945,-1.5885,-1.5885,-1.5885,-1.5945,-1.5945,-1.5945,-1.5885,-0.8587,-0.8653,-0.8653,-0.9056,-0.9658,-0.999,-1.0323,-1.0588,-1.0588,-1.0654,-1.0654,-1.0721,-1.0721,-1.0721,-1.0721,-1.0721,-1.0721,-1.0721,-1.0721,-1.0721,-1.0721,-1.1178,-1.1831,-1.2553,-1.2293,-1.3665,-1.4189,-1.3272,-1.3722,-1.3291,-1.2478,-1.2343,-1.1266,-1.1125,-1.1727,-1.1675,-1.223,-1.3002,-1.3481,-1.36,-1.3904,-1.3725,-1.3605,-1.3844,-1.3725,-1.3725,-1.4143,-1.4798,-1.5628,-1.6048,-1.6708,-1.7426,-1.7485,-1.7485,-1.7485,-1.7303,-1.7244,-1.7303,-1.7244,-1.7185,-1.7303,-1.7361,-1.7485,-1.7485,-1.7485,-1.7485,-1.7485,-1.7485,-1.7485,-1.7485,-1.7412,-1.7334,-1.7183,-1.7002,-1.6748,-1.6435,-1.6205,-1.6048,-1.5903,-1.5885,-1.5885,-1.5885,-1.5885,-1.5885,-1.5885,-1.5885,-1.5885,-1.5885,-1.5885,-1.5885,-1.5885,-1.5885,-1.5885,-1.5885,-1.5885,-1.5885,-1.5885,-1.5885,-1.5885,-1.5885,-1.5885,-1.5885,-1.5885,-1.5885,-1.5885,-1.5885,-1.5885,-1.5885,-1.5885,-1.5885,-1.5885,-1.5885,-1.5885,-1.5885,-1.5885,-0.8587,-0.8653,-0.8851,-0.9117,-0.9253,-0.9661,-0.9861,-0.9927,-0.9927,-1.0259,-1.0654,-1.0721,-1.0721,-1.0654,-1.0721,-1.0721,-1.0721,-1.0721,-1.0721,-1.0721,-1.0721,-1.085,-1.1244,-1.1505,-1.1637,-1.1508,-1.1703,-1.2022,-1.1984,-1.145,-1.1109,-1.1027,-1.0266,-1.0395,-1.0638,-1.049,-1.0728,-1.1265,-1.1265,-1.2105,-1.3066,-1.2771,-1.247,-1.2826,-1.2946,-1.2831,-1.3485,-1.4798,-1.5391,-1.5811,-1.6885,-1.7367,-1.7485,-1.742,-1.742,-1.7303,-1.6526,-1.6526,-1.6703,-1.6526,-1.6473,-1.7126,-1.7361,-1.742,-1.7485,-1.7485,-1.7485,-1.7485,-1.7485,-1.7485,-1.7467,-1.7388,-1.731,-1.7129,-1.6942,-1.6634,-1.6326,-1.6109,-1.5916,-1.5885,-1.5885,-1.5885,-1.5885,-1.5885,-1.5885,-1.5885,-1.5885,-1.5885,-1.5885,-1.5885,-1.5885,-1.5885,-1.5885,-1.5885,-1.5885,-1.5885,-1.5885,-1.5885,-1.5885,-1.5885,-1.5885,-1.5885,-1.5885,-1.5885,-1.5885,-1.5885,-1.5885,-1.5885,-1.5885,-1.5885,-1.5885,-1.5885,-1.5885,-1.5885,-1.5885,-0.8465,-0.8516,-0.8764,-0.8984,-0.9117,-0.9322,-0.9525,-0.9664,-0.9731,-0.9927,-1.0259,-1.0392,-1.0459,-1.0522,-1.0654,-1.0654,-1.0721,-1.0721,-1.0721,-1.0721,-1.0721,-1.0721,-1.0721,-1.0721,-1.085,-1.0721,-1.0714,-1.0822,-1.0612,-1.0544,-1.0528,-1.0314,-1.0044,-0.995,-0.9899,-0.9798,-0.9758,-0.9879,-0.9758,-1.0664,-1.2105,-1.1507,-1.1148,-1.1503,-1.1563,-1.1687,-1.2766,-1.4078,-1.4971,-1.5451,-1.629,-1.5989,-1.5811,-1.5575,-1.5693,-1.5575,-1.5219,-1.5095,-1.5451,-1.5451,-1.5397,-1.6166,-1.5989,-1.5634,-1.7244,-1.7244,-1.7067,-1.7067,-1.7426,-1.7485,-1.7485,-1.743,-1.7412,-1.7304,-1.7068,-1.6791,-1.641,-1.6072,-1.594,-1.5885,-1.5885,-1.5885,-1.5885,-1.5885,-1.5885,-1.5885,-1.5885,-1.5885,-1.5885,-1.5885,-1.5885,-1.5885,-1.5885,-1.5885,-1.5885,-1.5885,-1.5885,-1.5885,-1.5885,-1.5885,-1.5885,-1.5885,-1.5885,-1.5885,-1.5885,-1.5885,-1.5885,-1.5885,-1.5885,-1.5885,-1.5885,-1.5885,-1.5885,-1.5885,-1.5885,-0.824,-0.8405,-0.8516,-0.8762,-0.8967,-0.9045,-0.9189,-0.9528,-0.9528,-0.9525,-0.9594,-0.9924,-1.0057,-1.0259,-1.0392,-1.0522,-1.0588,-1.0522,-1.0588,-1.0721,-1.0721,-1.0721,-1.0721,-1.0721,-1.0697,-1.0673,-1.066,-1.0568,-1.0463,-1.0392,-1.0203,-1.0017,-0.9878,-0.9831,-0.9798,-0.9758,-0.97,-0.9697,-0.9697,-0.97,-0.9822,-0.9819,-1.0001,-0.994,-0.9879,-1.0422,-1.1507,-1.2706,-1.4018,-1.4619,-1.5035,-1.4857,-1.45,-1.4321,-1.4202,-1.4088,-1.3725,-1.3725,-1.3904,-1.3784,-1.4321,-1.4738,-1.4023,-1.45,-1.6161,-1.6397,-1.622,-1.645,-1.6803,-1.7343,-1.7343,-1.7337,-1.739,-1.7376,-1.7071,-1.6687,-1.6269,-1.6,-1.5958,-1.5885,-1.5885,-1.5885,-1.5885,-1.5885,-1.5885,-1.5885,-1.5885,-1.5885,-1.5885,-1.5885,-1.5885,-1.5885,-1.5885,-1.5885,-1.5885,-1.5885,-1.5885,-1.5885,-1.5885,-1.5885,-1.5885,-1.5885,-1.5885,-1.5885,-1.5885,-1.5885,-1.5885,-1.5885,-1.5885,-1.5885,-1.5885,-1.5885,-1.5885,-1.5885,-1.5885,-0.8247,-0.828,-0.8399,-0.8514,-0.8527,-0.8676,-0.872,-0.879,-0.8848,-0.8787,-0.89,-0.918,-0.9455,-0.9791,-0.9861,-0.9994,-1.0256,-1.0256,-1.0522,-1.0654,-1.0558,-1.0638,-1.0621,-1.0428,-1.0553,-1.0513,-1.039,-1.0381,-1.0136,-1.0086,-0.9933,-0.9666,-0.9477,-0.9435,-0.9422,-0.94,-0.9396,-0.9396,-0.9396,-0.9396,-0.9518,-0.9579,-0.9761,-0.9819,-0.9819,-0.994,-1.0482,-1.1446,-1.2049,-1.2646,-1.3426,-1.3605,-1.3426,-1.3186,-1.3186,-1.2886,-1.247,-1.259,-1.2646,-1.2346,-1.2882,-1.372,-1.3301,-1.3407,-1.4292,-1.4153,-1.4203,-1.4528,-1.5242,-1.6628,-1.6926,-1.6909,-1.695,-1.6942,-1.6803,-1.6139,-1.5502,-1.5748,-1.591,-1.5885,-1.5885,-1.5885,-1.5885,-1.5885,-1.5885,-1.5885,-1.5885,-1.5885,-1.5618,-1.5725,-1.5832,-1.5725,-1.5672,-1.5885,-1.5885,-1.5885,-1.5885,-1.5885,-1.5885,-1.5885,-1.5885,-1.5885,-1.5885,-1.5885,-1.5885,-1.5885,-1.5885,-1.5885,-1.5885,-1.5885,-1.5885,-1.5885,-1.5885,-1.5885,-1.5885]}]]